<?xml version="1.0" encoding="UTF-8" standalone="no" ?>
<gpx xmlns="http://www.topografix.com/GPX/1/1" xmlns:xsi="http://www.w3.org/2001/XMLSchema-instance" xsi:schemaLocation="http://www.topografix.com/GPX/1/1 http://www.topografix.com/GPX/1/1/gpx.xsd" version="1.1" creator="VisuGPX - https://www.visugpx.com">
  <metadata>
    <name>Vacqueyras : Beau Regard - Tauleigne - Gigondas - Rocher du Midi - Les Plâtières - Roque Rascasse - La Briquette - Chambilles</name>
  </metadata>
  <trk>
    <name><![CDATA[2021-01-10 11:47:31 nettoyé]]></name>
    <extensions>
      <line xmlns="http://www.topografix.com/GPX/gpx_style/0/2">
        <color>0000FF</color>
        <width>4</width>
      </line>
    </extensions>
    <trkseg>
      <trkpt lat="44.13835" lon="4.98694">
        <ele>123</ele>
        <time>2021-01-10T08:00:56Z</time>
      </trkpt>
      <trkpt lat="44.13834" lon="4.98706">
        <ele>123</ele>
        <time>2021-01-10T08:02:05Z</time>
      </trkpt>
      <trkpt lat="44.13833" lon="4.98721">
        <ele>123</ele>
        <time>2021-01-10T08:02:14Z</time>
      </trkpt>
      <trkpt lat="44.13833" lon="4.98739">
        <ele>124</ele>
        <time>2021-01-10T08:02:25Z</time>
      </trkpt>
      <trkpt lat="44.13833" lon="4.98757">
        <ele>124</ele>
        <time>2021-01-10T08:02:36Z</time>
      </trkpt>
      <trkpt lat="44.13834" lon="4.98767">
        <ele>124</ele>
        <time>2021-01-10T08:02:40Z</time>
      </trkpt>
      <trkpt lat="44.13837" lon="4.98775">
        <ele>123</ele>
        <time>2021-01-10T08:02:44Z</time>
      </trkpt>
      <trkpt lat="44.13849" lon="4.98801">
        <ele>123</ele>
        <time>2021-01-10T08:02:56Z</time>
      </trkpt>
      <trkpt lat="44.13861" lon="4.9882">
        <ele>124</ele>
        <time>2021-01-10T08:03:05Z</time>
      </trkpt>
      <trkpt lat="44.13871" lon="4.9884">
        <ele>124</ele>
        <time>2021-01-10T08:03:14Z</time>
      </trkpt>
      <trkpt lat="44.13889" lon="4.98868">
        <ele>125</ele>
        <time>2021-01-10T08:03:27Z</time>
      </trkpt>
      <trkpt lat="44.13901" lon="4.98887">
        <ele>125</ele>
        <time>2021-01-10T08:03:37Z</time>
      </trkpt>
      <trkpt lat="44.13913" lon="4.98908">
        <ele>126</ele>
        <time>2021-01-10T08:03:45Z</time>
      </trkpt>
      <trkpt lat="44.13932" lon="4.98931">
        <ele>128</ele>
        <time>2021-01-10T08:03:58Z</time>
      </trkpt>
      <trkpt lat="44.13948" lon="4.98944">
        <ele>129</ele>
        <time>2021-01-10T08:04:07Z</time>
      </trkpt>
      <trkpt lat="44.13973" lon="4.9896">
        <ele>129</ele>
        <time>2021-01-10T08:04:19Z</time>
      </trkpt>
      <trkpt lat="44.1399" lon="4.98969">
        <ele>129</ele>
        <time>2021-01-10T08:04:28Z</time>
      </trkpt>
      <trkpt lat="44.13996" lon="4.98972">
        <ele>129</ele>
        <time>2021-01-10T08:04:31Z</time>
      </trkpt>
      <trkpt lat="44.13998" lon="4.98973">
        <ele>129</ele>
        <time>2021-01-10T08:04:32Z</time>
      </trkpt>
      <trkpt lat="44.14013" lon="4.98981">
        <ele>130</ele>
        <time>2021-01-10T08:04:40Z</time>
      </trkpt>
      <trkpt lat="44.14029" lon="4.98993">
        <ele>130</ele>
        <time>2021-01-10T08:04:48Z</time>
      </trkpt>
      <trkpt lat="44.14052" lon="4.99009">
        <ele>132</ele>
        <time>2021-01-10T08:04:59Z</time>
      </trkpt>
      <trkpt lat="44.14071" lon="4.99015">
        <ele>133</ele>
        <time>2021-01-10T08:05:09Z</time>
      </trkpt>
      <trkpt lat="44.1409" lon="4.99018">
        <ele>135</ele>
        <time>2021-01-10T08:05:19Z</time>
      </trkpt>
      <trkpt lat="44.14111" lon="4.99019">
        <ele>137</ele>
        <time>2021-01-10T08:05:28Z</time>
      </trkpt>
      <trkpt lat="44.14123" lon="4.99019">
        <ele>138</ele>
        <time>2021-01-10T08:05:35Z</time>
      </trkpt>
      <trkpt lat="44.14127" lon="4.9902">
        <ele>138</ele>
        <time>2021-01-10T08:05:37Z</time>
      </trkpt>
      <trkpt lat="44.14131" lon="4.9902">
        <ele>138</ele>
        <time>2021-01-10T08:05:39Z</time>
      </trkpt>
      <trkpt lat="44.14133" lon="4.99021">
        <ele>139</ele>
        <time>2021-01-10T08:05:40Z</time>
      </trkpt>
      <trkpt lat="44.14156" lon="4.99033">
        <ele>140</ele>
        <time>2021-01-10T08:05:52Z</time>
      </trkpt>
      <trkpt lat="44.14176" lon="4.99045">
        <ele>142</ele>
        <time>2021-01-10T08:06:02Z</time>
      </trkpt>
      <trkpt lat="44.14193" lon="4.99062">
        <ele>143</ele>
        <time>2021-01-10T08:06:12Z</time>
      </trkpt>
      <trkpt lat="44.1421" lon="4.99074">
        <ele>144</ele>
        <time>2021-01-10T08:06:21Z</time>
      </trkpt>
      <trkpt lat="44.14226" lon="4.99083">
        <ele>146</ele>
        <time>2021-01-10T08:06:30Z</time>
      </trkpt>
      <trkpt lat="44.14233" lon="4.99087">
        <ele>146</ele>
        <time>2021-01-10T08:06:34Z</time>
      </trkpt>
      <trkpt lat="44.14238" lon="4.99089">
        <ele>146</ele>
        <time>2021-01-10T08:06:37Z</time>
      </trkpt>
      <trkpt lat="44.1424" lon="4.99089">
        <ele>147</ele>
        <time>2021-01-10T08:06:38Z</time>
      </trkpt>
      <trkpt lat="44.14242" lon="4.99088">
        <ele>147</ele>
        <time>2021-01-10T08:06:39Z</time>
      </trkpt>
      <trkpt lat="44.14246" lon="4.99087">
        <ele>147</ele>
        <time>2021-01-10T08:06:41Z</time>
      </trkpt>
      <trkpt lat="44.1425" lon="4.99088">
        <ele>148</ele>
        <time>2021-01-10T08:06:43Z</time>
      </trkpt>
      <trkpt lat="44.14254" lon="4.99089">
        <ele>148</ele>
        <time>2021-01-10T08:06:45Z</time>
      </trkpt>
      <trkpt lat="44.14257" lon="4.9909">
        <ele>148</ele>
        <time>2021-01-10T08:06:47Z</time>
      </trkpt>
      <trkpt lat="44.1426" lon="4.9909">
        <ele>148</ele>
        <time>2021-01-10T08:06:48Z</time>
      </trkpt>
      <trkpt lat="44.14263" lon="4.9909">
        <ele>148</ele>
        <time>2021-01-10T08:06:50Z</time>
      </trkpt>
      <trkpt lat="44.14267" lon="4.99091">
        <ele>149</ele>
        <time>2021-01-10T08:06:52Z</time>
      </trkpt>
      <trkpt lat="44.1427" lon="4.99091">
        <ele>149</ele>
        <time>2021-01-10T08:06:54Z</time>
      </trkpt>
      <trkpt lat="44.14274" lon="4.99091">
        <ele>149</ele>
        <time>2021-01-10T08:06:56Z</time>
      </trkpt>
      <trkpt lat="44.14276" lon="4.99091">
        <ele>149</ele>
        <time>2021-01-10T08:06:57Z</time>
      </trkpt>
      <trkpt lat="44.14283" lon="4.99091">
        <ele>150</ele>
        <time>2021-01-10T08:07:01Z</time>
      </trkpt>
      <trkpt lat="44.14299" lon="4.99092">
        <ele>151</ele>
        <time>2021-01-10T08:07:10Z</time>
      </trkpt>
      <trkpt lat="44.14319" lon="4.9909">
        <ele>152</ele>
        <time>2021-01-10T08:07:20Z</time>
      </trkpt>
      <trkpt lat="44.14338" lon="4.99089">
        <ele>154</ele>
        <time>2021-01-10T08:07:30Z</time>
      </trkpt>
      <trkpt lat="44.14354" lon="4.99088">
        <ele>156</ele>
        <time>2021-01-10T08:07:37Z</time>
      </trkpt>
      <trkpt lat="44.14359" lon="4.99087">
        <ele>156</ele>
        <time>2021-01-10T08:07:40Z</time>
      </trkpt>
      <trkpt lat="44.14363" lon="4.99087">
        <ele>157</ele>
        <time>2021-01-10T08:07:42Z</time>
      </trkpt>
      <trkpt lat="44.14366" lon="4.99087">
        <ele>157</ele>
        <time>2021-01-10T08:07:44Z</time>
      </trkpt>
      <trkpt lat="44.14385" lon="4.99087">
        <ele>159</ele>
        <time>2021-01-10T08:07:55Z</time>
      </trkpt>
      <trkpt lat="44.14404" lon="4.99086">
        <ele>161</ele>
        <time>2021-01-10T08:08:05Z</time>
      </trkpt>
      <trkpt lat="44.14426" lon="4.99085">
        <ele>164</ele>
        <time>2021-01-10T08:08:16Z</time>
      </trkpt>
      <trkpt lat="44.14444" lon="4.99084">
        <ele>166</ele>
        <time>2021-01-10T08:08:25Z</time>
      </trkpt>
      <trkpt lat="44.1446" lon="4.99086">
        <ele>168</ele>
        <time>2021-01-10T08:08:34Z</time>
      </trkpt>
      <trkpt lat="44.14469" lon="4.99085">
        <ele>169</ele>
        <time>2021-01-10T08:08:39Z</time>
      </trkpt>
      <trkpt lat="44.14472" lon="4.99085">
        <ele>169</ele>
        <time>2021-01-10T08:08:40Z</time>
      </trkpt>
      <trkpt lat="44.14473" lon="4.99085">
        <ele>169</ele>
        <time>2021-01-10T08:08:41Z</time>
      </trkpt>
      <trkpt lat="44.14475" lon="4.99085">
        <ele>170</ele>
        <time>2021-01-10T08:08:42Z</time>
      </trkpt>
      <trkpt lat="44.14477" lon="4.99085">
        <ele>170</ele>
        <time>2021-01-10T08:08:43Z</time>
      </trkpt>
      <trkpt lat="44.14478" lon="4.99085">
        <ele>170</ele>
        <time>2021-01-10T08:08:44Z</time>
      </trkpt>
      <trkpt lat="44.1448" lon="4.99085">
        <ele>170</ele>
        <time>2021-01-10T08:08:45Z</time>
      </trkpt>
      <trkpt lat="44.14482" lon="4.99085">
        <ele>171</ele>
        <time>2021-01-10T08:08:46Z</time>
      </trkpt>
      <trkpt lat="44.14484" lon="4.99085">
        <ele>171</ele>
        <time>2021-01-10T08:08:47Z</time>
      </trkpt>
      <trkpt lat="44.14486" lon="4.99085">
        <ele>171</ele>
        <time>2021-01-10T08:08:48Z</time>
      </trkpt>
      <trkpt lat="44.14488" lon="4.99085">
        <ele>171</ele>
        <time>2021-01-10T08:08:49Z</time>
      </trkpt>
      <trkpt lat="44.1449" lon="4.99085">
        <ele>172</ele>
        <time>2021-01-10T08:08:50Z</time>
      </trkpt>
      <trkpt lat="44.14492" lon="4.99085">
        <ele>172</ele>
        <time>2021-01-10T08:08:51Z</time>
      </trkpt>
      <trkpt lat="44.14494" lon="4.99085">
        <ele>172</ele>
        <time>2021-01-10T08:08:52Z</time>
      </trkpt>
      <trkpt lat="44.14496" lon="4.99085">
        <ele>172</ele>
        <time>2021-01-10T08:08:53Z</time>
      </trkpt>
      <trkpt lat="44.14498" lon="4.99084">
        <ele>173</ele>
        <time>2021-01-10T08:08:54Z</time>
      </trkpt>
      <trkpt lat="44.14508" lon="4.99083">
        <ele>174</ele>
        <time>2021-01-10T08:08:59Z</time>
      </trkpt>
      <trkpt lat="44.1451" lon="4.99083">
        <ele>174</ele>
        <time>2021-01-10T08:09:00Z</time>
      </trkpt>
      <trkpt lat="44.14528" lon="4.99081">
        <ele>176</ele>
        <time>2021-01-10T08:09:10Z</time>
      </trkpt>
      <trkpt lat="44.14546" lon="4.99081">
        <ele>177</ele>
        <time>2021-01-10T08:09:20Z</time>
      </trkpt>
      <trkpt lat="44.14562" lon="4.99081">
        <ele>179</ele>
        <time>2021-01-10T08:09:28Z</time>
      </trkpt>
      <trkpt lat="44.1458" lon="4.99082">
        <ele>181</ele>
        <time>2021-01-10T08:09:37Z</time>
      </trkpt>
      <trkpt lat="44.14595" lon="4.99083">
        <ele>182</ele>
        <time>2021-01-10T08:09:45Z</time>
      </trkpt>
      <trkpt lat="44.14597" lon="4.99083">
        <ele>183</ele>
        <time>2021-01-10T08:09:46Z</time>
      </trkpt>
      <trkpt lat="44.146" lon="4.99082">
        <ele>183</ele>
        <time>2021-01-10T08:09:47Z</time>
      </trkpt>
      <trkpt lat="44.14601" lon="4.99081">
        <ele>183</ele>
        <time>2021-01-10T08:09:48Z</time>
      </trkpt>
      <trkpt lat="44.14603" lon="4.99079">
        <ele>183</ele>
        <time>2021-01-10T08:09:49Z</time>
      </trkpt>
      <trkpt lat="44.14604" lon="4.99076">
        <ele>183</ele>
        <time>2021-01-10T08:09:50Z</time>
      </trkpt>
      <trkpt lat="44.14605" lon="4.99074">
        <ele>183</ele>
        <time>2021-01-10T08:09:51Z</time>
      </trkpt>
      <trkpt lat="44.14606" lon="4.99071">
        <ele>183</ele>
        <time>2021-01-10T08:09:52Z</time>
      </trkpt>
      <trkpt lat="44.14608" lon="4.99046">
        <ele>184</ele>
        <time>2021-01-10T08:10:01Z</time>
      </trkpt>
      <trkpt lat="44.14609" lon="4.99029">
        <ele>184</ele>
        <time>2021-01-10T08:10:08Z</time>
      </trkpt>
      <trkpt lat="44.14609" lon="4.99027">
        <ele>184</ele>
        <time>2021-01-10T08:10:09Z</time>
      </trkpt>
      <trkpt lat="44.14609" lon="4.99024">
        <ele>184</ele>
        <time>2021-01-10T08:10:10Z</time>
      </trkpt>
      <trkpt lat="44.1461" lon="4.99022">
        <ele>184</ele>
        <time>2021-01-10T08:10:11Z</time>
      </trkpt>
      <trkpt lat="44.14611" lon="4.99021">
        <ele>184</ele>
        <time>2021-01-10T08:10:12Z</time>
      </trkpt>
      <trkpt lat="44.14613" lon="4.99019">
        <ele>184</ele>
        <time>2021-01-10T08:10:13Z</time>
      </trkpt>
      <trkpt lat="44.14614" lon="4.99018">
        <ele>184</ele>
        <time>2021-01-10T08:10:14Z</time>
      </trkpt>
      <trkpt lat="44.14616" lon="4.99017">
        <ele>184</ele>
        <time>2021-01-10T08:10:15Z</time>
      </trkpt>
      <trkpt lat="44.14617" lon="4.99016">
        <ele>185</ele>
        <time>2021-01-10T08:10:16Z</time>
      </trkpt>
      <trkpt lat="44.14619" lon="4.99016">
        <ele>185</ele>
        <time>2021-01-10T08:10:17Z</time>
      </trkpt>
      <trkpt lat="44.14624" lon="4.99016">
        <ele>185</ele>
        <time>2021-01-10T08:10:20Z</time>
      </trkpt>
      <trkpt lat="44.14625" lon="4.99015">
        <ele>186</ele>
        <time>2021-01-10T08:10:21Z</time>
      </trkpt>
      <trkpt lat="44.14627" lon="4.99015">
        <ele>186</ele>
        <time>2021-01-10T08:10:22Z</time>
      </trkpt>
      <trkpt lat="44.14628" lon="4.99014">
        <ele>186</ele>
        <time>2021-01-10T08:10:23Z</time>
      </trkpt>
      <trkpt lat="44.1463" lon="4.99014">
        <ele>186</ele>
        <time>2021-01-10T08:10:24Z</time>
      </trkpt>
      <trkpt lat="44.14645" lon="4.99014">
        <ele>188</ele>
        <time>2021-01-10T08:10:32Z</time>
      </trkpt>
      <trkpt lat="44.14663" lon="4.99019">
        <ele>190</ele>
        <time>2021-01-10T08:10:42Z</time>
      </trkpt>
      <trkpt lat="44.14677" lon="4.99019">
        <ele>191</ele>
        <time>2021-01-10T08:10:50Z</time>
      </trkpt>
      <trkpt lat="44.14695" lon="4.99022">
        <ele>193</ele>
        <time>2021-01-10T08:11:00Z</time>
      </trkpt>
      <trkpt lat="44.14718" lon="4.99023">
        <ele>196</ele>
        <time>2021-01-10T08:11:12Z</time>
      </trkpt>
      <trkpt lat="44.14737" lon="4.99026">
        <ele>198</ele>
        <time>2021-01-10T08:11:21Z</time>
      </trkpt>
      <trkpt lat="44.14759" lon="4.99024">
        <ele>201</ele>
        <time>2021-01-10T08:11:31Z</time>
      </trkpt>
      <trkpt lat="44.14768" lon="4.99026">
        <ele>202</ele>
        <time>2021-01-10T08:11:36Z</time>
      </trkpt>
      <trkpt lat="44.1477" lon="4.99027">
        <ele>202</ele>
        <time>2021-01-10T08:11:37Z</time>
      </trkpt>
      <trkpt lat="44.14771" lon="4.99027">
        <ele>202</ele>
        <time>2021-01-10T08:11:38Z</time>
      </trkpt>
      <trkpt lat="44.14785" lon="4.99032">
        <ele>203</ele>
        <time>2021-01-10T08:11:48Z</time>
      </trkpt>
      <trkpt lat="44.14804" lon="4.99034">
        <ele>205</ele>
        <time>2021-01-10T08:11:59Z</time>
      </trkpt>
      <trkpt lat="44.1482" lon="4.99036">
        <ele>207</ele>
        <time>2021-01-10T08:12:08Z</time>
      </trkpt>
      <trkpt lat="44.14827" lon="4.99034">
        <ele>208</ele>
        <time>2021-01-10T08:12:12Z</time>
      </trkpt>
      <trkpt lat="44.1483" lon="4.99034">
        <ele>208</ele>
        <time>2021-01-10T08:12:13Z</time>
      </trkpt>
      <trkpt lat="44.14831" lon="4.99033">
        <ele>208</ele>
        <time>2021-01-10T08:12:14Z</time>
      </trkpt>
      <trkpt lat="44.14833" lon="4.99033">
        <ele>208</ele>
        <time>2021-01-10T08:12:15Z</time>
      </trkpt>
      <trkpt lat="44.14835" lon="4.99032">
        <ele>209</ele>
        <time>2021-01-10T08:12:16Z</time>
      </trkpt>
      <trkpt lat="44.14837" lon="4.99032">
        <ele>209</ele>
        <time>2021-01-10T08:12:17Z</time>
      </trkpt>
      <trkpt lat="44.14838" lon="4.99032">
        <ele>209</ele>
        <time>2021-01-10T08:12:18Z</time>
      </trkpt>
      <trkpt lat="44.14853" lon="4.99033">
        <ele>210</ele>
        <time>2021-01-10T08:12:25Z</time>
      </trkpt>
      <trkpt lat="44.14855" lon="4.99032">
        <ele>211</ele>
        <time>2021-01-10T08:12:26Z</time>
      </trkpt>
      <trkpt lat="44.14857" lon="4.99032">
        <ele>211</ele>
        <time>2021-01-10T08:12:27Z</time>
      </trkpt>
      <trkpt lat="44.14859" lon="4.99032">
        <ele>211</ele>
        <time>2021-01-10T08:12:28Z</time>
      </trkpt>
      <trkpt lat="44.1486" lon="4.99032">
        <ele>211</ele>
        <time>2021-01-10T08:12:29Z</time>
      </trkpt>
      <trkpt lat="44.14865" lon="4.99032">
        <ele>212</ele>
        <time>2021-01-10T08:12:32Z</time>
      </trkpt>
      <trkpt lat="44.14867" lon="4.99032">
        <ele>212</ele>
        <time>2021-01-10T08:12:33Z</time>
      </trkpt>
      <trkpt lat="44.14877" lon="4.99033">
        <ele>213</ele>
        <time>2021-01-10T08:12:38Z</time>
      </trkpt>
      <trkpt lat="44.14879" lon="4.99033">
        <ele>213</ele>
        <time>2021-01-10T08:12:39Z</time>
      </trkpt>
      <trkpt lat="44.14881" lon="4.99034">
        <ele>213</ele>
        <time>2021-01-10T08:12:40Z</time>
      </trkpt>
      <trkpt lat="44.14883" lon="4.99035">
        <ele>213</ele>
        <time>2021-01-10T08:12:41Z</time>
      </trkpt>
      <trkpt lat="44.14885" lon="4.99036">
        <ele>213</ele>
        <time>2021-01-10T08:12:42Z</time>
      </trkpt>
      <trkpt lat="44.14902" lon="4.99038">
        <ele>215</ele>
        <time>2021-01-10T08:12:51Z</time>
      </trkpt>
      <trkpt lat="44.14903" lon="4.99038">
        <ele>215</ele>
        <time>2021-01-10T08:12:52Z</time>
      </trkpt>
      <trkpt lat="44.14908" lon="4.99037">
        <ele>216</ele>
        <time>2021-01-10T08:12:55Z</time>
      </trkpt>
      <trkpt lat="44.1491" lon="4.99037">
        <ele>216</ele>
        <time>2021-01-10T08:12:56Z</time>
      </trkpt>
      <trkpt lat="44.1493" lon="4.99042">
        <ele>218</ele>
        <time>2021-01-10T08:13:06Z</time>
      </trkpt>
      <trkpt lat="44.14936" lon="4.99043">
        <ele>218</ele>
        <time>2021-01-10T08:13:09Z</time>
      </trkpt>
      <trkpt lat="44.14953" lon="4.99039">
        <ele>220</ele>
        <time>2021-01-10T08:13:18Z</time>
      </trkpt>
      <trkpt lat="44.14956" lon="4.9904">
        <ele>221</ele>
        <time>2021-01-10T08:13:20Z</time>
      </trkpt>
      <trkpt lat="44.14967" lon="4.99038">
        <ele>222</ele>
        <time>2021-01-10T08:13:27Z</time>
      </trkpt>
      <trkpt lat="44.14979" lon="4.99036">
        <ele>224</ele>
        <time>2021-01-10T08:13:34Z</time>
      </trkpt>
      <trkpt lat="44.14993" lon="4.99033">
        <ele>226</ele>
        <time>2021-01-10T08:13:43Z</time>
      </trkpt>
      <trkpt lat="44.1501" lon="4.99032">
        <ele>227</ele>
        <time>2021-01-10T08:13:53Z</time>
      </trkpt>
      <trkpt lat="44.15012" lon="4.99033">
        <ele>228</ele>
        <time>2021-01-10T08:13:55Z</time>
      </trkpt>
      <trkpt lat="44.15014" lon="4.99033">
        <ele>228</ele>
        <time>2021-01-10T08:13:56Z</time>
      </trkpt>
      <trkpt lat="44.15016" lon="4.99033">
        <ele>228</ele>
        <time>2021-01-10T08:13:57Z</time>
      </trkpt>
      <trkpt lat="44.1502" lon="4.99033">
        <ele>228</ele>
        <time>2021-01-10T08:13:59Z</time>
      </trkpt>
      <trkpt lat="44.15022" lon="4.99033">
        <ele>229</ele>
        <time>2021-01-10T08:14:00Z</time>
      </trkpt>
      <trkpt lat="44.15027" lon="4.99031">
        <ele>229</ele>
        <time>2021-01-10T08:14:03Z</time>
      </trkpt>
      <trkpt lat="44.15037" lon="4.99037">
        <ele>230</ele>
        <time>2021-01-10T08:14:09Z</time>
      </trkpt>
      <trkpt lat="44.15039" lon="4.99038">
        <ele>230</ele>
        <time>2021-01-10T08:14:10Z</time>
      </trkpt>
      <trkpt lat="44.15052" lon="4.99042">
        <ele>231</ele>
        <time>2021-01-10T08:14:17Z</time>
      </trkpt>
      <trkpt lat="44.15053" lon="4.99042">
        <ele>231</ele>
        <time>2021-01-10T08:14:18Z</time>
      </trkpt>
      <trkpt lat="44.15057" lon="4.99044">
        <ele>232</ele>
        <time>2021-01-10T08:14:20Z</time>
      </trkpt>
      <trkpt lat="44.15059" lon="4.99045">
        <ele>232</ele>
        <time>2021-01-10T08:14:21Z</time>
      </trkpt>
      <trkpt lat="44.15063" lon="4.99044">
        <ele>232</ele>
        <time>2021-01-10T08:14:23Z</time>
      </trkpt>
      <trkpt lat="44.15067" lon="4.99044">
        <ele>233</ele>
        <time>2021-01-10T08:14:25Z</time>
      </trkpt>
      <trkpt lat="44.15084" lon="4.99045">
        <ele>235</ele>
        <time>2021-01-10T08:14:35Z</time>
      </trkpt>
      <trkpt lat="44.15097" lon="4.99048">
        <ele>235</ele>
        <time>2021-01-10T08:14:43Z</time>
      </trkpt>
      <trkpt lat="44.15098" lon="4.99048">
        <ele>235</ele>
        <time>2021-01-10T08:14:44Z</time>
      </trkpt>
      <trkpt lat="44.151" lon="4.99048">
        <ele>235</ele>
        <time>2021-01-10T08:14:45Z</time>
      </trkpt>
      <trkpt lat="44.15102" lon="4.99048">
        <ele>236</ele>
        <time>2021-01-10T08:14:46Z</time>
      </trkpt>
      <trkpt lat="44.15103" lon="4.99047">
        <ele>236</ele>
        <time>2021-01-10T08:14:47Z</time>
      </trkpt>
      <trkpt lat="44.15104" lon="4.99046">
        <ele>236</ele>
        <time>2021-01-10T08:14:48Z</time>
      </trkpt>
      <trkpt lat="44.15106" lon="4.99046">
        <ele>236</ele>
        <time>2021-01-10T08:14:49Z</time>
      </trkpt>
      <trkpt lat="44.15108" lon="4.99045">
        <ele>236</ele>
        <time>2021-01-10T08:14:50Z</time>
      </trkpt>
      <trkpt lat="44.1511" lon="4.99045">
        <ele>236</ele>
        <time>2021-01-10T08:14:51Z</time>
      </trkpt>
      <trkpt lat="44.15112" lon="4.99046">
        <ele>236</ele>
        <time>2021-01-10T08:14:52Z</time>
      </trkpt>
      <trkpt lat="44.15114" lon="4.99047">
        <ele>236</ele>
        <time>2021-01-10T08:14:53Z</time>
      </trkpt>
      <trkpt lat="44.15115" lon="4.99048">
        <ele>236</ele>
        <time>2021-01-10T08:14:54Z</time>
      </trkpt>
      <trkpt lat="44.15117" lon="4.99049">
        <ele>237</ele>
        <time>2021-01-10T08:14:55Z</time>
      </trkpt>
      <trkpt lat="44.15119" lon="4.99049">
        <ele>237</ele>
        <time>2021-01-10T08:14:56Z</time>
      </trkpt>
      <trkpt lat="44.15121" lon="4.9905">
        <ele>237</ele>
        <time>2021-01-10T08:14:57Z</time>
      </trkpt>
      <trkpt lat="44.15123" lon="4.9905">
        <ele>237</ele>
        <time>2021-01-10T08:14:58Z</time>
      </trkpt>
      <trkpt lat="44.15125" lon="4.9905">
        <ele>237</ele>
        <time>2021-01-10T08:14:59Z</time>
      </trkpt>
      <trkpt lat="44.15128" lon="4.99049">
        <ele>237</ele>
        <time>2021-01-10T08:15:01Z</time>
      </trkpt>
      <trkpt lat="44.15131" lon="4.9905">
        <ele>238</ele>
        <time>2021-01-10T08:15:03Z</time>
      </trkpt>
      <trkpt lat="44.15133" lon="4.99051">
        <ele>238</ele>
        <time>2021-01-10T08:15:04Z</time>
      </trkpt>
      <trkpt lat="44.15134" lon="4.99052">
        <ele>238</ele>
        <time>2021-01-10T08:15:05Z</time>
      </trkpt>
      <trkpt lat="44.15136" lon="4.99054">
        <ele>238</ele>
        <time>2021-01-10T08:15:06Z</time>
      </trkpt>
      <trkpt lat="44.15138" lon="4.99054">
        <ele>238</ele>
        <time>2021-01-10T08:15:07Z</time>
      </trkpt>
      <trkpt lat="44.1514" lon="4.99054">
        <ele>239</ele>
        <time>2021-01-10T08:15:08Z</time>
      </trkpt>
      <trkpt lat="44.15142" lon="4.99054">
        <ele>239</ele>
        <time>2021-01-10T08:15:09Z</time>
      </trkpt>
      <trkpt lat="44.15144" lon="4.99055">
        <ele>239</ele>
        <time>2021-01-10T08:15:10Z</time>
      </trkpt>
      <trkpt lat="44.15145" lon="4.99055">
        <ele>239</ele>
        <time>2021-01-10T08:15:11Z</time>
      </trkpt>
      <trkpt lat="44.15147" lon="4.99056">
        <ele>239</ele>
        <time>2021-01-10T08:15:12Z</time>
      </trkpt>
      <trkpt lat="44.15149" lon="4.99056">
        <ele>239</ele>
        <time>2021-01-10T08:15:13Z</time>
      </trkpt>
      <trkpt lat="44.1515" lon="4.99057">
        <ele>240</ele>
        <time>2021-01-10T08:15:14Z</time>
      </trkpt>
      <trkpt lat="44.15151" lon="4.99058">
        <ele>240</ele>
        <time>2021-01-10T08:15:15Z</time>
      </trkpt>
      <trkpt lat="44.15153" lon="4.99059">
        <ele>240</ele>
        <time>2021-01-10T08:15:16Z</time>
      </trkpt>
      <trkpt lat="44.15154" lon="4.9906">
        <ele>240</ele>
        <time>2021-01-10T08:15:17Z</time>
      </trkpt>
      <trkpt lat="44.15156" lon="4.9906">
        <ele>240</ele>
        <time>2021-01-10T08:15:18Z</time>
      </trkpt>
      <trkpt lat="44.15159" lon="4.9906">
        <ele>241</ele>
        <time>2021-01-10T08:15:19Z</time>
      </trkpt>
      <trkpt lat="44.15161" lon="4.9906">
        <ele>241</ele>
        <time>2021-01-10T08:15:20Z</time>
      </trkpt>
      <trkpt lat="44.15163" lon="4.99061">
        <ele>241</ele>
        <time>2021-01-10T08:15:21Z</time>
      </trkpt>
      <trkpt lat="44.15166" lon="4.99062">
        <ele>241</ele>
        <time>2021-01-10T08:15:22Z</time>
      </trkpt>
      <trkpt lat="44.15168" lon="4.99062">
        <ele>241</ele>
        <time>2021-01-10T08:15:23Z</time>
      </trkpt>
      <trkpt lat="44.1517" lon="4.99062">
        <ele>242</ele>
        <time>2021-01-10T08:15:24Z</time>
      </trkpt>
      <trkpt lat="44.15187" lon="4.99067">
        <ele>242</ele>
        <time>2021-01-10T08:15:33Z</time>
      </trkpt>
      <trkpt lat="44.15191" lon="4.99069">
        <ele>243</ele>
        <time>2021-01-10T08:15:35Z</time>
      </trkpt>
      <trkpt lat="44.15193" lon="4.99069">
        <ele>243</ele>
        <time>2021-01-10T08:15:36Z</time>
      </trkpt>
      <trkpt lat="44.152" lon="4.99069">
        <ele>243</ele>
        <time>2021-01-10T08:15:40Z</time>
      </trkpt>
      <trkpt lat="44.15202" lon="4.99068">
        <ele>243</ele>
        <time>2021-01-10T08:15:41Z</time>
      </trkpt>
      <trkpt lat="44.15203" lon="4.99067">
        <ele>243</ele>
        <time>2021-01-10T08:15:42Z</time>
      </trkpt>
      <trkpt lat="44.15205" lon="4.99067">
        <ele>243</ele>
        <time>2021-01-10T08:15:43Z</time>
      </trkpt>
      <trkpt lat="44.15207" lon="4.99067">
        <ele>243</ele>
        <time>2021-01-10T08:15:44Z</time>
      </trkpt>
      <trkpt lat="44.15219" lon="4.99075">
        <ele>244</ele>
        <time>2021-01-10T08:15:50Z</time>
      </trkpt>
      <trkpt lat="44.1522" lon="4.99077">
        <ele>245</ele>
        <time>2021-01-10T08:15:51Z</time>
      </trkpt>
      <trkpt lat="44.15221" lon="4.99078">
        <ele>245</ele>
        <time>2021-01-10T08:15:52Z</time>
      </trkpt>
      <trkpt lat="44.15234" lon="4.99083">
        <ele>246</ele>
        <time>2021-01-10T08:15:58Z</time>
      </trkpt>
      <trkpt lat="44.15237" lon="4.99084">
        <ele>246</ele>
        <time>2021-01-10T08:15:59Z</time>
      </trkpt>
      <trkpt lat="44.15239" lon="4.99084">
        <ele>247</ele>
        <time>2021-01-10T08:16:00Z</time>
      </trkpt>
      <trkpt lat="44.15241" lon="4.99084">
        <ele>247</ele>
        <time>2021-01-10T08:16:01Z</time>
      </trkpt>
      <trkpt lat="44.15243" lon="4.99085">
        <ele>247</ele>
        <time>2021-01-10T08:16:02Z</time>
      </trkpt>
      <trkpt lat="44.15248" lon="4.99089">
        <ele>246</ele>
        <time>2021-01-10T08:16:05Z</time>
      </trkpt>
      <trkpt lat="44.15249" lon="4.99091">
        <ele>246</ele>
        <time>2021-01-10T08:16:06Z</time>
      </trkpt>
      <trkpt lat="44.15251" lon="4.99092">
        <ele>246</ele>
        <time>2021-01-10T08:16:07Z</time>
      </trkpt>
      <trkpt lat="44.15252" lon="4.99092">
        <ele>245</ele>
        <time>2021-01-10T08:16:08Z</time>
      </trkpt>
      <trkpt lat="44.15254" lon="4.99092">
        <ele>245</ele>
        <time>2021-01-10T08:16:09Z</time>
      </trkpt>
      <trkpt lat="44.15256" lon="4.99092">
        <ele>245</ele>
        <time>2021-01-10T08:16:10Z</time>
      </trkpt>
      <trkpt lat="44.15258" lon="4.99093">
        <ele>245</ele>
        <time>2021-01-10T08:16:11Z</time>
      </trkpt>
      <trkpt lat="44.1526" lon="4.99094">
        <ele>245</ele>
        <time>2021-01-10T08:16:12Z</time>
      </trkpt>
      <trkpt lat="44.15262" lon="4.99095">
        <ele>245</ele>
        <time>2021-01-10T08:16:13Z</time>
      </trkpt>
      <trkpt lat="44.15265" lon="4.99096">
        <ele>245</ele>
        <time>2021-01-10T08:16:14Z</time>
      </trkpt>
      <trkpt lat="44.15267" lon="4.99096">
        <ele>245</ele>
        <time>2021-01-10T08:16:15Z</time>
      </trkpt>
      <trkpt lat="44.15269" lon="4.99097">
        <ele>244</ele>
        <time>2021-01-10T08:16:16Z</time>
      </trkpt>
      <trkpt lat="44.15273" lon="4.99097">
        <ele>244</ele>
        <time>2021-01-10T08:16:17Z</time>
      </trkpt>
      <trkpt lat="44.15275" lon="4.99097">
        <ele>244</ele>
        <time>2021-01-10T08:16:18Z</time>
      </trkpt>
      <trkpt lat="44.15278" lon="4.99097">
        <ele>244</ele>
        <time>2021-01-10T08:16:19Z</time>
      </trkpt>
      <trkpt lat="44.15279" lon="4.99098">
        <ele>244</ele>
        <time>2021-01-10T08:16:20Z</time>
      </trkpt>
      <trkpt lat="44.15281" lon="4.99099">
        <ele>244</ele>
        <time>2021-01-10T08:16:21Z</time>
      </trkpt>
      <trkpt lat="44.15283" lon="4.99099">
        <ele>244</ele>
        <time>2021-01-10T08:16:22Z</time>
      </trkpt>
      <trkpt lat="44.15285" lon="4.99098">
        <ele>244</ele>
        <time>2021-01-10T08:16:23Z</time>
      </trkpt>
      <trkpt lat="44.15287" lon="4.99098">
        <ele>244</ele>
        <time>2021-01-10T08:16:24Z</time>
      </trkpt>
      <trkpt lat="44.1529" lon="4.99098">
        <ele>244</ele>
        <time>2021-01-10T08:16:25Z</time>
      </trkpt>
      <trkpt lat="44.15292" lon="4.99099">
        <ele>244</ele>
        <time>2021-01-10T08:16:26Z</time>
      </trkpt>
      <trkpt lat="44.15294" lon="4.99099">
        <ele>244</ele>
        <time>2021-01-10T08:16:27Z</time>
      </trkpt>
      <trkpt lat="44.15296" lon="4.991">
        <ele>244</ele>
        <time>2021-01-10T08:16:28Z</time>
      </trkpt>
      <trkpt lat="44.15298" lon="4.991">
        <ele>244</ele>
        <time>2021-01-10T08:16:29Z</time>
      </trkpt>
      <trkpt lat="44.15299" lon="4.99101">
        <ele>244</ele>
        <time>2021-01-10T08:16:30Z</time>
      </trkpt>
      <trkpt lat="44.15318" lon="4.99108">
        <ele>243</ele>
        <time>2021-01-10T08:16:39Z</time>
      </trkpt>
      <trkpt lat="44.15327" lon="4.99111">
        <ele>243</ele>
        <time>2021-01-10T08:16:45Z</time>
      </trkpt>
      <trkpt lat="44.1533" lon="4.99111">
        <ele>243</ele>
        <time>2021-01-10T08:16:46Z</time>
      </trkpt>
      <trkpt lat="44.15332" lon="4.99112">
        <ele>243</ele>
        <time>2021-01-10T08:16:47Z</time>
      </trkpt>
      <trkpt lat="44.15337" lon="4.99117">
        <ele>243</ele>
        <time>2021-01-10T08:16:50Z</time>
      </trkpt>
      <trkpt lat="44.15339" lon="4.99118">
        <ele>243</ele>
        <time>2021-01-10T08:16:51Z</time>
      </trkpt>
      <trkpt lat="44.15341" lon="4.99119">
        <ele>243</ele>
        <time>2021-01-10T08:16:52Z</time>
      </trkpt>
      <trkpt lat="44.15343" lon="4.99119">
        <ele>243</ele>
        <time>2021-01-10T08:16:53Z</time>
      </trkpt>
      <trkpt lat="44.15346" lon="4.99118">
        <ele>243</ele>
        <time>2021-01-10T08:16:54Z</time>
      </trkpt>
      <trkpt lat="44.15348" lon="4.99118">
        <ele>243</ele>
        <time>2021-01-10T08:16:55Z</time>
      </trkpt>
      <trkpt lat="44.1535" lon="4.99119">
        <ele>243</ele>
        <time>2021-01-10T08:16:56Z</time>
      </trkpt>
      <trkpt lat="44.15352" lon="4.99119">
        <ele>243</ele>
        <time>2021-01-10T08:16:57Z</time>
      </trkpt>
      <trkpt lat="44.15354" lon="4.9912">
        <ele>243</ele>
        <time>2021-01-10T08:16:58Z</time>
      </trkpt>
      <trkpt lat="44.15355" lon="4.99121">
        <ele>243</ele>
        <time>2021-01-10T08:16:59Z</time>
      </trkpt>
      <trkpt lat="44.15361" lon="4.99123">
        <ele>243</ele>
        <time>2021-01-10T08:17:08Z</time>
      </trkpt>
      <trkpt lat="44.15362" lon="4.99122">
        <ele>243</ele>
        <time>2021-01-10T08:17:23Z</time>
      </trkpt>
      <trkpt lat="44.15366" lon="4.99123">
        <ele>243</ele>
        <time>2021-01-10T08:17:34Z</time>
      </trkpt>
      <trkpt lat="44.15367" lon="4.99123">
        <ele>243</ele>
        <time>2021-01-10T08:17:35Z</time>
      </trkpt>
      <trkpt lat="44.15369" lon="4.99122">
        <ele>242</ele>
        <time>2021-01-10T08:17:36Z</time>
      </trkpt>
      <trkpt lat="44.1537" lon="4.99122">
        <ele>242</ele>
        <time>2021-01-10T08:17:37Z</time>
      </trkpt>
      <trkpt lat="44.15373" lon="4.99122">
        <ele>242</ele>
        <time>2021-01-10T08:17:38Z</time>
      </trkpt>
      <trkpt lat="44.15375" lon="4.99124">
        <ele>242</ele>
        <time>2021-01-10T08:17:39Z</time>
      </trkpt>
      <trkpt lat="44.15376" lon="4.99125">
        <ele>243</ele>
        <time>2021-01-10T08:17:40Z</time>
      </trkpt>
      <trkpt lat="44.15376" lon="4.99127">
        <ele>243</ele>
        <time>2021-01-10T08:17:41Z</time>
      </trkpt>
      <trkpt lat="44.15379" lon="4.99133">
        <ele>243</ele>
        <time>2021-01-10T08:17:44Z</time>
      </trkpt>
      <trkpt lat="44.15401" lon="4.99143">
        <ele>245</ele>
        <time>2021-01-10T08:17:54Z</time>
      </trkpt>
      <trkpt lat="44.15403" lon="4.99144">
        <ele>245</ele>
        <time>2021-01-10T08:17:55Z</time>
      </trkpt>
      <trkpt lat="44.15423" lon="4.99156">
        <ele>246</ele>
        <time>2021-01-10T08:18:04Z</time>
      </trkpt>
      <trkpt lat="44.15427" lon="4.99159">
        <ele>247</ele>
        <time>2021-01-10T08:18:06Z</time>
      </trkpt>
      <trkpt lat="44.15429" lon="4.9916">
        <ele>247</ele>
        <time>2021-01-10T08:18:07Z</time>
      </trkpt>
      <trkpt lat="44.15431" lon="4.99161">
        <ele>247</ele>
        <time>2021-01-10T08:18:08Z</time>
      </trkpt>
      <trkpt lat="44.15432" lon="4.99162">
        <ele>247</ele>
        <time>2021-01-10T08:18:09Z</time>
      </trkpt>
      <trkpt lat="44.15434" lon="4.99164">
        <ele>247</ele>
        <time>2021-01-10T08:18:10Z</time>
      </trkpt>
      <trkpt lat="44.15436" lon="4.99166">
        <ele>247</ele>
        <time>2021-01-10T08:18:11Z</time>
      </trkpt>
      <trkpt lat="44.15438" lon="4.99167">
        <ele>247</ele>
        <time>2021-01-10T08:18:12Z</time>
      </trkpt>
      <trkpt lat="44.1544" lon="4.99168">
        <ele>247</ele>
        <time>2021-01-10T08:18:13Z</time>
      </trkpt>
      <trkpt lat="44.15442" lon="4.99169">
        <ele>247</ele>
        <time>2021-01-10T08:18:14Z</time>
      </trkpt>
      <trkpt lat="44.15444" lon="4.99171">
        <ele>246</ele>
        <time>2021-01-10T08:18:15Z</time>
      </trkpt>
      <trkpt lat="44.15445" lon="4.99172">
        <ele>246</ele>
        <time>2021-01-10T08:18:16Z</time>
      </trkpt>
      <trkpt lat="44.15447" lon="4.99174">
        <ele>246</ele>
        <time>2021-01-10T08:18:17Z</time>
      </trkpt>
      <trkpt lat="44.1545" lon="4.99178">
        <ele>245</ele>
        <time>2021-01-10T08:18:19Z</time>
      </trkpt>
      <trkpt lat="44.15452" lon="4.99181">
        <ele>245</ele>
        <time>2021-01-10T08:18:21Z</time>
      </trkpt>
      <trkpt lat="44.15454" lon="4.99182">
        <ele>245</ele>
        <time>2021-01-10T08:18:22Z</time>
      </trkpt>
      <trkpt lat="44.15456" lon="4.99183">
        <ele>244</ele>
        <time>2021-01-10T08:18:23Z</time>
      </trkpt>
      <trkpt lat="44.15459" lon="4.99182">
        <ele>244</ele>
        <time>2021-01-10T08:18:24Z</time>
      </trkpt>
      <trkpt lat="44.15462" lon="4.99183">
        <ele>244</ele>
        <time>2021-01-10T08:18:25Z</time>
      </trkpt>
      <trkpt lat="44.15464" lon="4.99184">
        <ele>244</ele>
        <time>2021-01-10T08:18:26Z</time>
      </trkpt>
      <trkpt lat="44.15466" lon="4.99185">
        <ele>244</ele>
        <time>2021-01-10T08:18:27Z</time>
      </trkpt>
      <trkpt lat="44.15468" lon="4.99186">
        <ele>244</ele>
        <time>2021-01-10T08:18:28Z</time>
      </trkpt>
      <trkpt lat="44.15491" lon="4.99201">
        <ele>243</ele>
        <time>2021-01-10T08:18:38Z</time>
      </trkpt>
      <trkpt lat="44.15495" lon="4.99204">
        <ele>243</ele>
        <time>2021-01-10T08:18:40Z</time>
      </trkpt>
      <trkpt lat="44.15499" lon="4.99206">
        <ele>243</ele>
        <time>2021-01-10T08:18:42Z</time>
      </trkpt>
      <trkpt lat="44.15517" lon="4.9922">
        <ele>242</ele>
        <time>2021-01-10T08:18:51Z</time>
      </trkpt>
      <trkpt lat="44.1554" lon="4.99238">
        <ele>242</ele>
        <time>2021-01-10T08:19:03Z</time>
      </trkpt>
      <trkpt lat="44.15542" lon="4.99239">
        <ele>242</ele>
        <time>2021-01-10T08:19:04Z</time>
      </trkpt>
      <trkpt lat="44.15544" lon="4.99241">
        <ele>242</ele>
        <time>2021-01-10T08:19:05Z</time>
      </trkpt>
      <trkpt lat="44.15546" lon="4.99243">
        <ele>243</ele>
        <time>2021-01-10T08:19:06Z</time>
      </trkpt>
      <trkpt lat="44.15548" lon="4.99245">
        <ele>243</ele>
        <time>2021-01-10T08:19:07Z</time>
      </trkpt>
      <trkpt lat="44.1555" lon="4.99247">
        <ele>243</ele>
        <time>2021-01-10T08:19:08Z</time>
      </trkpt>
      <trkpt lat="44.15552" lon="4.99249">
        <ele>243</ele>
        <time>2021-01-10T08:19:09Z</time>
      </trkpt>
      <trkpt lat="44.15554" lon="4.99251">
        <ele>243</ele>
        <time>2021-01-10T08:19:10Z</time>
      </trkpt>
      <trkpt lat="44.15571" lon="4.99263">
        <ele>241</ele>
        <time>2021-01-10T08:19:19Z</time>
      </trkpt>
      <trkpt lat="44.15583" lon="4.99274">
        <ele>239</ele>
        <time>2021-01-10T08:19:25Z</time>
      </trkpt>
      <trkpt lat="44.15584" lon="4.99276">
        <ele>238</ele>
        <time>2021-01-10T08:19:26Z</time>
      </trkpt>
      <trkpt lat="44.15585" lon="4.99279">
        <ele>238</ele>
        <time>2021-01-10T08:19:27Z</time>
      </trkpt>
      <trkpt lat="44.15588" lon="4.99289">
        <ele>236</ele>
        <time>2021-01-10T08:19:32Z</time>
      </trkpt>
      <trkpt lat="44.15588" lon="4.99301">
        <ele>234</ele>
        <time>2021-01-10T08:19:36Z</time>
      </trkpt>
      <trkpt lat="44.15586" lon="4.99308">
        <ele>234</ele>
        <time>2021-01-10T08:19:39Z</time>
      </trkpt>
      <trkpt lat="44.15584" lon="4.99309">
        <ele>234</ele>
        <time>2021-01-10T08:19:40Z</time>
      </trkpt>
      <trkpt lat="44.15583" lon="4.99309">
        <ele>234</ele>
        <time>2021-01-10T08:19:41Z</time>
      </trkpt>
      <trkpt lat="44.15581" lon="4.9931">
        <ele>234</ele>
        <time>2021-01-10T08:19:42Z</time>
      </trkpt>
      <trkpt lat="44.1558" lon="4.9931">
        <ele>234</ele>
        <time>2021-01-10T08:19:43Z</time>
      </trkpt>
      <trkpt lat="44.15579" lon="4.99311">
        <ele>234</ele>
        <time>2021-01-10T08:19:44Z</time>
      </trkpt>
      <trkpt lat="44.15577" lon="4.99312">
        <ele>234</ele>
        <time>2021-01-10T08:19:45Z</time>
      </trkpt>
      <trkpt lat="44.15575" lon="4.99312">
        <ele>234</ele>
        <time>2021-01-10T08:19:46Z</time>
      </trkpt>
      <trkpt lat="44.15573" lon="4.99312">
        <ele>234</ele>
        <time>2021-01-10T08:19:47Z</time>
      </trkpt>
      <trkpt lat="44.15571" lon="4.99314">
        <ele>233</ele>
        <time>2021-01-10T08:19:48Z</time>
      </trkpt>
      <trkpt lat="44.1557" lon="4.99316">
        <ele>233</ele>
        <time>2021-01-10T08:19:49Z</time>
      </trkpt>
      <trkpt lat="44.1557" lon="4.99319">
        <ele>233</ele>
        <time>2021-01-10T08:19:50Z</time>
      </trkpt>
      <trkpt lat="44.15571" lon="4.9932">
        <ele>232</ele>
        <time>2021-01-10T08:19:51Z</time>
      </trkpt>
      <trkpt lat="44.15572" lon="4.99321">
        <ele>232</ele>
        <time>2021-01-10T08:19:52Z</time>
      </trkpt>
      <trkpt lat="44.15587" lon="4.99329">
        <ele>231</ele>
        <time>2021-01-10T08:20:01Z</time>
      </trkpt>
      <trkpt lat="44.15601" lon="4.99341">
        <ele>227</ele>
        <time>2021-01-10T08:20:10Z</time>
      </trkpt>
      <trkpt lat="44.15607" lon="4.99343">
        <ele>226</ele>
        <time>2021-01-10T08:20:13Z</time>
      </trkpt>
      <trkpt lat="44.15612" lon="4.99342">
        <ele>225</ele>
        <time>2021-01-10T08:20:16Z</time>
      </trkpt>
      <trkpt lat="44.15619" lon="4.99343">
        <ele>224</ele>
        <time>2021-01-10T08:20:20Z</time>
      </trkpt>
      <trkpt lat="44.15621" lon="4.99342">
        <ele>224</ele>
        <time>2021-01-10T08:20:21Z</time>
      </trkpt>
      <trkpt lat="44.15622" lon="4.9934">
        <ele>224</ele>
        <time>2021-01-10T08:20:22Z</time>
      </trkpt>
      <trkpt lat="44.15623" lon="4.99338">
        <ele>224</ele>
        <time>2021-01-10T08:20:23Z</time>
      </trkpt>
      <trkpt lat="44.15624" lon="4.99337">
        <ele>224</ele>
        <time>2021-01-10T08:20:24Z</time>
      </trkpt>
      <trkpt lat="44.1563" lon="4.99329">
        <ele>223</ele>
        <time>2021-01-10T08:20:31Z</time>
      </trkpt>
      <trkpt lat="44.15631" lon="4.99329">
        <ele>223</ele>
        <time>2021-01-10T08:20:32Z</time>
      </trkpt>
      <trkpt lat="44.15633" lon="4.99329">
        <ele>222</ele>
        <time>2021-01-10T08:20:33Z</time>
      </trkpt>
      <trkpt lat="44.15634" lon="4.99329">
        <ele>222</ele>
        <time>2021-01-10T08:20:34Z</time>
      </trkpt>
      <trkpt lat="44.15636" lon="4.99328">
        <ele>222</ele>
        <time>2021-01-10T08:20:35Z</time>
      </trkpt>
      <trkpt lat="44.15637" lon="4.99329">
        <ele>221</ele>
        <time>2021-01-10T08:20:36Z</time>
      </trkpt>
      <trkpt lat="44.15639" lon="4.9933">
        <ele>221</ele>
        <time>2021-01-10T08:20:37Z</time>
      </trkpt>
      <trkpt lat="44.1564" lon="4.99332">
        <ele>221</ele>
        <time>2021-01-10T08:20:38Z</time>
      </trkpt>
      <trkpt lat="44.15642" lon="4.99334">
        <ele>220</ele>
        <time>2021-01-10T08:20:39Z</time>
      </trkpt>
      <trkpt lat="44.15644" lon="4.99335">
        <ele>220</ele>
        <time>2021-01-10T08:20:40Z</time>
      </trkpt>
      <trkpt lat="44.15646" lon="4.99337">
        <ele>220</ele>
        <time>2021-01-10T08:20:41Z</time>
      </trkpt>
      <trkpt lat="44.15647" lon="4.99338">
        <ele>219</ele>
        <time>2021-01-10T08:20:42Z</time>
      </trkpt>
      <trkpt lat="44.15655" lon="4.99345">
        <ele>218</ele>
        <time>2021-01-10T08:20:46Z</time>
      </trkpt>
      <trkpt lat="44.15657" lon="4.99349">
        <ele>218</ele>
        <time>2021-01-10T08:20:48Z</time>
      </trkpt>
      <trkpt lat="44.15657" lon="4.99351">
        <ele>218</ele>
        <time>2021-01-10T08:20:49Z</time>
      </trkpt>
      <trkpt lat="44.15656" lon="4.99352">
        <ele>218</ele>
        <time>2021-01-10T08:20:50Z</time>
      </trkpt>
      <trkpt lat="44.15655" lon="4.99353">
        <ele>218</ele>
        <time>2021-01-10T08:20:51Z</time>
      </trkpt>
      <trkpt lat="44.15654" lon="4.99354">
        <ele>219</ele>
        <time>2021-01-10T08:20:52Z</time>
      </trkpt>
      <trkpt lat="44.15653" lon="4.99355">
        <ele>219</ele>
        <time>2021-01-10T08:20:53Z</time>
      </trkpt>
      <trkpt lat="44.15651" lon="4.99356">
        <ele>219</ele>
        <time>2021-01-10T08:20:54Z</time>
      </trkpt>
      <trkpt lat="44.1565" lon="4.99357">
        <ele>219</ele>
        <time>2021-01-10T08:20:55Z</time>
      </trkpt>
      <trkpt lat="44.15648" lon="4.99358">
        <ele>219</ele>
        <time>2021-01-10T08:20:56Z</time>
      </trkpt>
      <trkpt lat="44.15647" lon="4.99359">
        <ele>219</ele>
        <time>2021-01-10T08:20:57Z</time>
      </trkpt>
      <trkpt lat="44.15646" lon="4.9936">
        <ele>220</ele>
        <time>2021-01-10T08:20:58Z</time>
      </trkpt>
      <trkpt lat="44.15644" lon="4.99362">
        <ele>220</ele>
        <time>2021-01-10T08:20:59Z</time>
      </trkpt>
      <trkpt lat="44.15643" lon="4.99364">
        <ele>220</ele>
        <time>2021-01-10T08:21:00Z</time>
      </trkpt>
      <trkpt lat="44.15641" lon="4.99367">
        <ele>220</ele>
        <time>2021-01-10T08:21:01Z</time>
      </trkpt>
      <trkpt lat="44.15639" lon="4.99369">
        <ele>220</ele>
        <time>2021-01-10T08:21:02Z</time>
      </trkpt>
      <trkpt lat="44.15637" lon="4.99372">
        <ele>220</ele>
        <time>2021-01-10T08:21:03Z</time>
      </trkpt>
      <trkpt lat="44.15635" lon="4.99374">
        <ele>221</ele>
        <time>2021-01-10T08:21:04Z</time>
      </trkpt>
      <trkpt lat="44.15633" lon="4.99377">
        <ele>221</ele>
        <time>2021-01-10T08:21:05Z</time>
      </trkpt>
      <trkpt lat="44.15631" lon="4.9938">
        <ele>221</ele>
        <time>2021-01-10T08:21:06Z</time>
      </trkpt>
      <trkpt lat="44.15629" lon="4.99383">
        <ele>221</ele>
        <time>2021-01-10T08:21:07Z</time>
      </trkpt>
      <trkpt lat="44.15627" lon="4.99386">
        <ele>221</ele>
        <time>2021-01-10T08:21:08Z</time>
      </trkpt>
      <trkpt lat="44.15613" lon="4.99399">
        <ele>221</ele>
        <time>2021-01-10T08:21:17Z</time>
      </trkpt>
      <trkpt lat="44.15612" lon="4.994">
        <ele>221</ele>
        <time>2021-01-10T08:21:18Z</time>
      </trkpt>
      <trkpt lat="44.15611" lon="4.99402">
        <ele>221</ele>
        <time>2021-01-10T08:21:19Z</time>
      </trkpt>
      <trkpt lat="44.15602" lon="4.99414">
        <ele>220</ele>
        <time>2021-01-10T08:21:28Z</time>
      </trkpt>
      <trkpt lat="44.15603" lon="4.99416">
        <ele>220</ele>
        <time>2021-01-10T08:21:29Z</time>
      </trkpt>
      <trkpt lat="44.15605" lon="4.99417">
        <ele>220</ele>
        <time>2021-01-10T08:21:30Z</time>
      </trkpt>
      <trkpt lat="44.15607" lon="4.99418">
        <ele>220</ele>
        <time>2021-01-10T08:21:32Z</time>
      </trkpt>
      <trkpt lat="44.15614" lon="4.99438">
        <ele>221</ele>
        <time>2021-01-10T08:21:41Z</time>
      </trkpt>
      <trkpt lat="44.15617" lon="4.99444">
        <ele>222</ele>
        <time>2021-01-10T08:21:44Z</time>
      </trkpt>
      <trkpt lat="44.15618" lon="4.99447">
        <ele>222</ele>
        <time>2021-01-10T08:21:45Z</time>
      </trkpt>
      <trkpt lat="44.15618" lon="4.99449">
        <ele>222</ele>
        <time>2021-01-10T08:21:46Z</time>
      </trkpt>
      <trkpt lat="44.15619" lon="4.99451">
        <ele>223</ele>
        <time>2021-01-10T08:21:47Z</time>
      </trkpt>
      <trkpt lat="44.15619" lon="4.99453">
        <ele>223</ele>
        <time>2021-01-10T08:21:48Z</time>
      </trkpt>
      <trkpt lat="44.1562" lon="4.99455">
        <ele>223</ele>
        <time>2021-01-10T08:21:49Z</time>
      </trkpt>
      <trkpt lat="44.15621" lon="4.99457">
        <ele>223</ele>
        <time>2021-01-10T08:21:50Z</time>
      </trkpt>
      <trkpt lat="44.15622" lon="4.99459">
        <ele>223</ele>
        <time>2021-01-10T08:21:51Z</time>
      </trkpt>
      <trkpt lat="44.15631" lon="4.99481">
        <ele>226</ele>
        <time>2021-01-10T08:22:01Z</time>
      </trkpt>
      <trkpt lat="44.15641" lon="4.99501">
        <ele>229</ele>
        <time>2021-01-10T08:22:10Z</time>
      </trkpt>
      <trkpt lat="44.1565" lon="4.99516">
        <ele>231</ele>
        <time>2021-01-10T08:22:18Z</time>
      </trkpt>
      <trkpt lat="44.15659" lon="4.9953">
        <ele>232</ele>
        <time>2021-01-10T08:22:26Z</time>
      </trkpt>
      <trkpt lat="44.15663" lon="4.99531">
        <ele>232</ele>
        <time>2021-01-10T08:22:32Z</time>
      </trkpt>
      <trkpt lat="44.15664" lon="4.99534">
        <ele>233</ele>
        <time>2021-01-10T08:22:34Z</time>
      </trkpt>
      <trkpt lat="44.15665" lon="4.99536">
        <ele>233</ele>
        <time>2021-01-10T08:22:35Z</time>
      </trkpt>
      <trkpt lat="44.15663" lon="4.99541">
        <ele>233</ele>
        <time>2021-01-10T08:22:39Z</time>
      </trkpt>
      <trkpt lat="44.15657" lon="4.99546">
        <ele>233</ele>
        <time>2021-01-10T08:22:44Z</time>
      </trkpt>
      <trkpt lat="44.15657" lon="4.99547">
        <ele>233</ele>
        <time>2021-01-10T08:22:45Z</time>
      </trkpt>
      <trkpt lat="44.15645" lon="4.9956">
        <ele>233</ele>
        <time>2021-01-10T08:22:55Z</time>
      </trkpt>
      <trkpt lat="44.1563" lon="4.99573">
        <ele>234</ele>
        <time>2021-01-10T08:23:04Z</time>
      </trkpt>
      <trkpt lat="44.15627" lon="4.99576">
        <ele>234</ele>
        <time>2021-01-10T08:23:06Z</time>
      </trkpt>
      <trkpt lat="44.15626" lon="4.99577">
        <ele>234</ele>
        <time>2021-01-10T08:23:07Z</time>
      </trkpt>
      <trkpt lat="44.15624" lon="4.99578">
        <ele>235</ele>
        <time>2021-01-10T08:23:08Z</time>
      </trkpt>
      <trkpt lat="44.15623" lon="4.99579">
        <ele>235</ele>
        <time>2021-01-10T08:23:09Z</time>
      </trkpt>
      <trkpt lat="44.15621" lon="4.9958">
        <ele>235</ele>
        <time>2021-01-10T08:23:10Z</time>
      </trkpt>
      <trkpt lat="44.1562" lon="4.99581">
        <ele>235</ele>
        <time>2021-01-10T08:23:11Z</time>
      </trkpt>
      <trkpt lat="44.15618" lon="4.99582">
        <ele>235</ele>
        <time>2021-01-10T08:23:12Z</time>
      </trkpt>
      <trkpt lat="44.15617" lon="4.99584">
        <ele>235</ele>
        <time>2021-01-10T08:23:13Z</time>
      </trkpt>
      <trkpt lat="44.15615" lon="4.99585">
        <ele>235</ele>
        <time>2021-01-10T08:23:14Z</time>
      </trkpt>
      <trkpt lat="44.15614" lon="4.99586">
        <ele>235</ele>
        <time>2021-01-10T08:23:15Z</time>
      </trkpt>
      <trkpt lat="44.15613" lon="4.99588">
        <ele>235</ele>
        <time>2021-01-10T08:23:16Z</time>
      </trkpt>
      <trkpt lat="44.15611" lon="4.99589">
        <ele>235</ele>
        <time>2021-01-10T08:23:17Z</time>
      </trkpt>
      <trkpt lat="44.1561" lon="4.9959">
        <ele>235</ele>
        <time>2021-01-10T08:23:18Z</time>
      </trkpt>
      <trkpt lat="44.15609" lon="4.99591">
        <ele>236</ele>
        <time>2021-01-10T08:23:19Z</time>
      </trkpt>
      <trkpt lat="44.15607" lon="4.99592">
        <ele>236</ele>
        <time>2021-01-10T08:23:20Z</time>
      </trkpt>
      <trkpt lat="44.15606" lon="4.99593">
        <ele>236</ele>
        <time>2021-01-10T08:23:21Z</time>
      </trkpt>
      <trkpt lat="44.15605" lon="4.99594">
        <ele>236</ele>
        <time>2021-01-10T08:23:22Z</time>
      </trkpt>
      <trkpt lat="44.15603" lon="4.99596">
        <ele>236</ele>
        <time>2021-01-10T08:23:23Z</time>
      </trkpt>
      <trkpt lat="44.15602" lon="4.99597">
        <ele>236</ele>
        <time>2021-01-10T08:23:24Z</time>
      </trkpt>
      <trkpt lat="44.156" lon="4.99598">
        <ele>236</ele>
        <time>2021-01-10T08:23:25Z</time>
      </trkpt>
      <trkpt lat="44.15599" lon="4.99599">
        <ele>236</ele>
        <time>2021-01-10T08:23:26Z</time>
      </trkpt>
      <trkpt lat="44.15598" lon="4.99601">
        <ele>236</ele>
        <time>2021-01-10T08:23:27Z</time>
      </trkpt>
      <trkpt lat="44.15596" lon="4.99602">
        <ele>236</ele>
        <time>2021-01-10T08:23:28Z</time>
      </trkpt>
      <trkpt lat="44.15595" lon="4.99603">
        <ele>236</ele>
        <time>2021-01-10T08:23:29Z</time>
      </trkpt>
      <trkpt lat="44.15593" lon="4.99605">
        <ele>237</ele>
        <time>2021-01-10T08:23:30Z</time>
      </trkpt>
      <trkpt lat="44.15591" lon="4.99606">
        <ele>237</ele>
        <time>2021-01-10T08:23:31Z</time>
      </trkpt>
      <trkpt lat="44.1559" lon="4.99607">
        <ele>237</ele>
        <time>2021-01-10T08:23:32Z</time>
      </trkpt>
      <trkpt lat="44.15573" lon="4.99622">
        <ele>237</ele>
        <time>2021-01-10T08:23:42Z</time>
      </trkpt>
      <trkpt lat="44.15566" lon="4.99628">
        <ele>237</ele>
        <time>2021-01-10T08:23:46Z</time>
      </trkpt>
      <trkpt lat="44.15564" lon="4.99629">
        <ele>237</ele>
        <time>2021-01-10T08:23:47Z</time>
      </trkpt>
      <trkpt lat="44.15563" lon="4.9963">
        <ele>237</ele>
        <time>2021-01-10T08:23:48Z</time>
      </trkpt>
      <trkpt lat="44.15561" lon="4.99631">
        <ele>237</ele>
        <time>2021-01-10T08:23:49Z</time>
      </trkpt>
      <trkpt lat="44.15559" lon="4.99632">
        <ele>237</ele>
        <time>2021-01-10T08:23:50Z</time>
      </trkpt>
      <trkpt lat="44.15557" lon="4.99633">
        <ele>237</ele>
        <time>2021-01-10T08:23:51Z</time>
      </trkpt>
      <trkpt lat="44.15555" lon="4.99634">
        <ele>237</ele>
        <time>2021-01-10T08:23:52Z</time>
      </trkpt>
      <trkpt lat="44.15553" lon="4.99636">
        <ele>237</ele>
        <time>2021-01-10T08:23:53Z</time>
      </trkpt>
      <trkpt lat="44.15552" lon="4.99636">
        <ele>237</ele>
        <time>2021-01-10T08:23:54Z</time>
      </trkpt>
      <trkpt lat="44.1555" lon="4.99637">
        <ele>237</ele>
        <time>2021-01-10T08:23:55Z</time>
      </trkpt>
      <trkpt lat="44.15548" lon="4.99638">
        <ele>237</ele>
        <time>2021-01-10T08:23:56Z</time>
      </trkpt>
      <trkpt lat="44.15546" lon="4.99639">
        <ele>237</ele>
        <time>2021-01-10T08:23:57Z</time>
      </trkpt>
      <trkpt lat="44.15544" lon="4.99639">
        <ele>237</ele>
        <time>2021-01-10T08:23:58Z</time>
      </trkpt>
      <trkpt lat="44.15543" lon="4.9964">
        <ele>237</ele>
        <time>2021-01-10T08:23:59Z</time>
      </trkpt>
      <trkpt lat="44.15541" lon="4.99641">
        <ele>237</ele>
        <time>2021-01-10T08:24:00Z</time>
      </trkpt>
      <trkpt lat="44.15539" lon="4.99641">
        <ele>237</ele>
        <time>2021-01-10T08:24:01Z</time>
      </trkpt>
      <trkpt lat="44.15537" lon="4.99641">
        <ele>237</ele>
        <time>2021-01-10T08:24:02Z</time>
      </trkpt>
      <trkpt lat="44.15535" lon="4.99642">
        <ele>237</ele>
        <time>2021-01-10T08:24:03Z</time>
      </trkpt>
      <trkpt lat="44.15533" lon="4.99642">
        <ele>237</ele>
        <time>2021-01-10T08:24:04Z</time>
      </trkpt>
      <trkpt lat="44.15531" lon="4.99643">
        <ele>237</ele>
        <time>2021-01-10T08:24:05Z</time>
      </trkpt>
      <trkpt lat="44.15529" lon="4.99643">
        <ele>237</ele>
        <time>2021-01-10T08:24:06Z</time>
      </trkpt>
      <trkpt lat="44.15527" lon="4.99643">
        <ele>237</ele>
        <time>2021-01-10T08:24:07Z</time>
      </trkpt>
      <trkpt lat="44.15526" lon="4.99644">
        <ele>237</ele>
        <time>2021-01-10T08:24:08Z</time>
      </trkpt>
      <trkpt lat="44.15524" lon="4.99644">
        <ele>237</ele>
        <time>2021-01-10T08:24:09Z</time>
      </trkpt>
      <trkpt lat="44.15522" lon="4.99644">
        <ele>237</ele>
        <time>2021-01-10T08:24:10Z</time>
      </trkpt>
      <trkpt lat="44.1552" lon="4.99645">
        <ele>237</ele>
        <time>2021-01-10T08:24:11Z</time>
      </trkpt>
      <trkpt lat="44.15502" lon="4.99648">
        <ele>237</ele>
        <time>2021-01-10T08:24:20Z</time>
      </trkpt>
      <trkpt lat="44.15486" lon="4.9965">
        <ele>235</ele>
        <time>2021-01-10T08:24:28Z</time>
      </trkpt>
      <trkpt lat="44.15484" lon="4.99651">
        <ele>234</ele>
        <time>2021-01-10T08:24:29Z</time>
      </trkpt>
      <trkpt lat="44.15482" lon="4.99651">
        <ele>234</ele>
        <time>2021-01-10T08:24:30Z</time>
      </trkpt>
      <trkpt lat="44.1548" lon="4.99651">
        <ele>234</ele>
        <time>2021-01-10T08:24:31Z</time>
      </trkpt>
      <trkpt lat="44.15477" lon="4.99651">
        <ele>233</ele>
        <time>2021-01-10T08:24:32Z</time>
      </trkpt>
      <trkpt lat="44.15475" lon="4.99652">
        <ele>233</ele>
        <time>2021-01-10T08:24:33Z</time>
      </trkpt>
      <trkpt lat="44.15473" lon="4.99652">
        <ele>233</ele>
        <time>2021-01-10T08:24:34Z</time>
      </trkpt>
      <trkpt lat="44.15471" lon="4.99653">
        <ele>233</ele>
        <time>2021-01-10T08:24:35Z</time>
      </trkpt>
      <trkpt lat="44.15469" lon="4.99654">
        <ele>232</ele>
        <time>2021-01-10T08:24:36Z</time>
      </trkpt>
      <trkpt lat="44.15468" lon="4.99654">
        <ele>232</ele>
        <time>2021-01-10T08:24:37Z</time>
      </trkpt>
      <trkpt lat="44.15466" lon="4.99655">
        <ele>232</ele>
        <time>2021-01-10T08:24:38Z</time>
      </trkpt>
      <trkpt lat="44.15464" lon="4.99656">
        <ele>232</ele>
        <time>2021-01-10T08:24:39Z</time>
      </trkpt>
      <trkpt lat="44.15462" lon="4.99657">
        <ele>232</ele>
        <time>2021-01-10T08:24:40Z</time>
      </trkpt>
      <trkpt lat="44.1546" lon="4.99659">
        <ele>232</ele>
        <time>2021-01-10T08:24:41Z</time>
      </trkpt>
      <trkpt lat="44.15459" lon="4.99661">
        <ele>232</ele>
        <time>2021-01-10T08:24:42Z</time>
      </trkpt>
      <trkpt lat="44.15459" lon="4.99664">
        <ele>232</ele>
        <time>2021-01-10T08:24:43Z</time>
      </trkpt>
      <trkpt lat="44.15458" lon="4.99666">
        <ele>232</ele>
        <time>2021-01-10T08:24:44Z</time>
      </trkpt>
      <trkpt lat="44.15458" lon="4.99669">
        <ele>233</ele>
        <time>2021-01-10T08:24:45Z</time>
      </trkpt>
      <trkpt lat="44.15458" lon="4.99671">
        <ele>233</ele>
        <time>2021-01-10T08:24:46Z</time>
      </trkpt>
      <trkpt lat="44.15458" lon="4.99674">
        <ele>233</ele>
        <time>2021-01-10T08:24:47Z</time>
      </trkpt>
      <trkpt lat="44.15459" lon="4.99676">
        <ele>233</ele>
        <time>2021-01-10T08:24:48Z</time>
      </trkpt>
      <trkpt lat="44.15463" lon="4.99703">
        <ele>234</ele>
        <time>2021-01-10T08:24:57Z</time>
      </trkpt>
      <trkpt lat="44.15471" lon="4.99726">
        <ele>236</ele>
        <time>2021-01-10T08:25:06Z</time>
      </trkpt>
      <trkpt lat="44.15475" lon="4.9975">
        <ele>238</ele>
        <time>2021-01-10T08:25:15Z</time>
      </trkpt>
      <trkpt lat="44.15483" lon="4.99776">
        <ele>239</ele>
        <time>2021-01-10T08:25:24Z</time>
      </trkpt>
      <trkpt lat="44.15491" lon="4.99796">
        <ele>240</ele>
        <time>2021-01-10T08:25:32Z</time>
      </trkpt>
      <trkpt lat="44.15497" lon="4.99821">
        <ele>240</ele>
        <time>2021-01-10T08:25:41Z</time>
      </trkpt>
      <trkpt lat="44.15506" lon="4.99856">
        <ele>241</ele>
        <time>2021-01-10T08:25:52Z</time>
      </trkpt>
      <trkpt lat="44.15522" lon="4.99862">
        <ele>244</ele>
        <time>2021-01-10T08:26:00Z</time>
      </trkpt>
      <trkpt lat="44.15528" lon="4.99864">
        <ele>245</ele>
        <time>2021-01-10T08:26:03Z</time>
      </trkpt>
      <trkpt lat="44.15545" lon="4.99863">
        <ele>248</ele>
        <time>2021-01-10T08:26:11Z</time>
      </trkpt>
      <trkpt lat="44.15561" lon="4.99858">
        <ele>250</ele>
        <time>2021-01-10T08:26:20Z</time>
      </trkpt>
      <trkpt lat="44.15566" lon="4.99856">
        <ele>251</ele>
        <time>2021-01-10T08:26:23Z</time>
      </trkpt>
      <trkpt lat="44.15568" lon="4.99856">
        <ele>251</ele>
        <time>2021-01-10T08:26:24Z</time>
      </trkpt>
      <trkpt lat="44.1557" lon="4.99855">
        <ele>251</ele>
        <time>2021-01-10T08:26:25Z</time>
      </trkpt>
      <trkpt lat="44.15571" lon="4.99855">
        <ele>251</ele>
        <time>2021-01-10T08:26:26Z</time>
      </trkpt>
      <trkpt lat="44.15573" lon="4.99854">
        <ele>251</ele>
        <time>2021-01-10T08:26:27Z</time>
      </trkpt>
      <trkpt lat="44.15575" lon="4.99854">
        <ele>252</ele>
        <time>2021-01-10T08:26:28Z</time>
      </trkpt>
      <trkpt lat="44.15577" lon="4.99853">
        <ele>252</ele>
        <time>2021-01-10T08:26:29Z</time>
      </trkpt>
      <trkpt lat="44.15579" lon="4.99853">
        <ele>252</ele>
        <time>2021-01-10T08:26:30Z</time>
      </trkpt>
      <trkpt lat="44.15581" lon="4.99852">
        <ele>252</ele>
        <time>2021-01-10T08:26:31Z</time>
      </trkpt>
      <trkpt lat="44.15593" lon="4.99851">
        <ele>253</ele>
        <time>2021-01-10T08:26:38Z</time>
      </trkpt>
      <trkpt lat="44.15607" lon="4.99845">
        <ele>254</ele>
        <time>2021-01-10T08:26:47Z</time>
      </trkpt>
      <trkpt lat="44.15623" lon="4.9984">
        <ele>254</ele>
        <time>2021-01-10T08:26:55Z</time>
      </trkpt>
      <trkpt lat="44.15641" lon="4.99837">
        <ele>255</ele>
        <time>2021-01-10T08:27:05Z</time>
      </trkpt>
      <trkpt lat="44.15659" lon="4.99834">
        <ele>256</ele>
        <time>2021-01-10T08:27:14Z</time>
      </trkpt>
      <trkpt lat="44.15677" lon="4.99832">
        <ele>257</ele>
        <time>2021-01-10T08:27:23Z</time>
      </trkpt>
      <trkpt lat="44.15681" lon="4.99831">
        <ele>257</ele>
        <time>2021-01-10T08:27:25Z</time>
      </trkpt>
      <trkpt lat="44.15684" lon="4.99831">
        <ele>257</ele>
        <time>2021-01-10T08:27:26Z</time>
      </trkpt>
      <trkpt lat="44.15686" lon="4.99831">
        <ele>257</ele>
        <time>2021-01-10T08:27:27Z</time>
      </trkpt>
      <trkpt lat="44.15688" lon="4.9983">
        <ele>257</ele>
        <time>2021-01-10T08:27:28Z</time>
      </trkpt>
      <trkpt lat="44.1569" lon="4.9983">
        <ele>257</ele>
        <time>2021-01-10T08:27:29Z</time>
      </trkpt>
      <trkpt lat="44.15692" lon="4.9983">
        <ele>257</ele>
        <time>2021-01-10T08:27:30Z</time>
      </trkpt>
      <trkpt lat="44.15694" lon="4.99829">
        <ele>257</ele>
        <time>2021-01-10T08:27:31Z</time>
      </trkpt>
      <trkpt lat="44.15697" lon="4.99829">
        <ele>257</ele>
        <time>2021-01-10T08:27:32Z</time>
      </trkpt>
      <trkpt lat="44.15699" lon="4.99829">
        <ele>257</ele>
        <time>2021-01-10T08:27:33Z</time>
      </trkpt>
      <trkpt lat="44.15701" lon="4.99828">
        <ele>257</ele>
        <time>2021-01-10T08:27:34Z</time>
      </trkpt>
      <trkpt lat="44.15721" lon="4.99826">
        <ele>258</ele>
        <time>2021-01-10T08:27:43Z</time>
      </trkpt>
      <trkpt lat="44.15735" lon="4.99825">
        <ele>258</ele>
        <time>2021-01-10T08:27:50Z</time>
      </trkpt>
      <trkpt lat="44.15755" lon="4.99824">
        <ele>258</ele>
        <time>2021-01-10T08:27:59Z</time>
      </trkpt>
      <trkpt lat="44.15773" lon="4.99831">
        <ele>257</ele>
        <time>2021-01-10T08:28:08Z</time>
      </trkpt>
      <trkpt lat="44.15783" lon="4.99859">
        <ele>259</ele>
        <time>2021-01-10T08:28:19Z</time>
      </trkpt>
      <trkpt lat="44.15788" lon="4.99882">
        <ele>261</ele>
        <time>2021-01-10T08:28:27Z</time>
      </trkpt>
      <trkpt lat="44.15801" lon="4.99904">
        <ele>263</ele>
        <time>2021-01-10T08:28:38Z</time>
      </trkpt>
      <trkpt lat="44.15824" lon="4.99929">
        <ele>265</ele>
        <time>2021-01-10T08:28:51Z</time>
      </trkpt>
      <trkpt lat="44.15842" lon="4.99943">
        <ele>264</ele>
        <time>2021-01-10T08:29:00Z</time>
      </trkpt>
      <trkpt lat="44.15858" lon="4.99953">
        <ele>263</ele>
        <time>2021-01-10T08:29:08Z</time>
      </trkpt>
      <trkpt lat="44.15882" lon="4.99963">
        <ele>260</ele>
        <time>2021-01-10T08:29:19Z</time>
      </trkpt>
      <trkpt lat="44.15905" lon="4.99974">
        <ele>259</ele>
        <time>2021-01-10T08:29:28Z</time>
      </trkpt>
      <trkpt lat="44.15912" lon="4.99983">
        <ele>260</ele>
        <time>2021-01-10T08:29:32Z</time>
      </trkpt>
      <trkpt lat="44.15913" lon="4.99985">
        <ele>260</ele>
        <time>2021-01-10T08:29:33Z</time>
      </trkpt>
      <trkpt lat="44.15915" lon="4.99987">
        <ele>261</ele>
        <time>2021-01-10T08:29:34Z</time>
      </trkpt>
      <trkpt lat="44.15917" lon="4.99989">
        <ele>261</ele>
        <time>2021-01-10T08:29:35Z</time>
      </trkpt>
      <trkpt lat="44.15919" lon="4.99992">
        <ele>261</ele>
        <time>2021-01-10T08:29:36Z</time>
      </trkpt>
      <trkpt lat="44.1592" lon="4.99994">
        <ele>261</ele>
        <time>2021-01-10T08:29:37Z</time>
      </trkpt>
      <trkpt lat="44.15922" lon="4.99996">
        <ele>262</ele>
        <time>2021-01-10T08:29:38Z</time>
      </trkpt>
      <trkpt lat="44.15924" lon="4.99999">
        <ele>262</ele>
        <time>2021-01-10T08:29:39Z</time>
      </trkpt>
      <trkpt lat="44.15925" lon="5.00001">
        <ele>262</ele>
        <time>2021-01-10T08:29:40Z</time>
      </trkpt>
      <trkpt lat="44.15927" lon="5.00003">
        <ele>262</ele>
        <time>2021-01-10T08:29:41Z</time>
      </trkpt>
      <trkpt lat="44.15928" lon="5.00004">
        <ele>261</ele>
        <time>2021-01-10T08:29:42Z</time>
      </trkpt>
      <trkpt lat="44.15929" lon="5.00007">
        <ele>261</ele>
        <time>2021-01-10T08:29:43Z</time>
      </trkpt>
      <trkpt lat="44.15931" lon="5.00009">
        <ele>261</ele>
        <time>2021-01-10T08:29:44Z</time>
      </trkpt>
      <trkpt lat="44.15932" lon="5.00011">
        <ele>261</ele>
        <time>2021-01-10T08:29:45Z</time>
      </trkpt>
      <trkpt lat="44.15934" lon="5.00013">
        <ele>260</ele>
        <time>2021-01-10T08:29:46Z</time>
      </trkpt>
      <trkpt lat="44.15935" lon="5.00015">
        <ele>260</ele>
        <time>2021-01-10T08:29:47Z</time>
      </trkpt>
      <trkpt lat="44.15937" lon="5.00017">
        <ele>259</ele>
        <time>2021-01-10T08:29:48Z</time>
      </trkpt>
      <trkpt lat="44.15939" lon="5.00019">
        <ele>259</ele>
        <time>2021-01-10T08:29:49Z</time>
      </trkpt>
      <trkpt lat="44.15955" lon="5.0004">
        <ele>260</ele>
        <time>2021-01-10T08:29:59Z</time>
      </trkpt>
      <trkpt lat="44.15973" lon="5.00055">
        <ele>261</ele>
        <time>2021-01-10T08:30:10Z</time>
      </trkpt>
      <trkpt lat="44.15975" lon="5.00055">
        <ele>261</ele>
        <time>2021-01-10T08:30:20Z</time>
      </trkpt>
      <trkpt lat="44.15974" lon="5.00058">
        <ele>262</ele>
        <time>2021-01-10T08:30:39Z</time>
      </trkpt>
      <trkpt lat="44.15981" lon="5.00063">
        <ele>265</ele>
        <time>2021-01-10T08:30:48Z</time>
      </trkpt>
      <trkpt lat="44.15995" lon="5.00069">
        <ele>270</ele>
        <time>2021-01-10T08:30:55Z</time>
      </trkpt>
      <trkpt lat="44.15995" lon="5.00062">
        <ele>268</ele>
        <time>2021-01-10T08:31:03Z</time>
      </trkpt>
      <trkpt lat="44.15995" lon="5.00056">
        <ele>267</ele>
        <time>2021-01-10T08:31:11Z</time>
      </trkpt>
      <trkpt lat="44.15993" lon="5.00055">
        <ele>266</ele>
        <time>2021-01-10T08:31:22Z</time>
      </trkpt>
      <trkpt lat="44.15991" lon="5.00049">
        <ele>264</ele>
        <time>2021-01-10T08:31:30Z</time>
      </trkpt>
      <trkpt lat="44.1599" lon="5.00046">
        <ele>263</ele>
        <time>2021-01-10T08:31:33Z</time>
      </trkpt>
      <trkpt lat="44.15989" lon="5.00042">
        <ele>261</ele>
        <time>2021-01-10T08:31:44Z</time>
      </trkpt>
      <trkpt lat="44.15986" lon="5.00041">
        <ele>260</ele>
        <time>2021-01-10T08:32:08Z</time>
      </trkpt>
      <trkpt lat="44.15982" lon="5.00035">
        <ele>257</ele>
        <time>2021-01-10T08:32:16Z</time>
      </trkpt>
      <trkpt lat="44.15986" lon="5.00027">
        <ele>256</ele>
        <time>2021-01-10T08:32:24Z</time>
      </trkpt>
      <trkpt lat="44.15986" lon="5.00025">
        <ele>255</ele>
        <time>2021-01-10T08:32:33Z</time>
      </trkpt>
      <trkpt lat="44.16002" lon="5.00022">
        <ele>257</ele>
        <time>2021-01-10T08:32:43Z</time>
      </trkpt>
      <trkpt lat="44.16006" lon="5.00023">
        <ele>258</ele>
        <time>2021-01-10T08:32:45Z</time>
      </trkpt>
      <trkpt lat="44.16014" lon="5.00027">
        <ele>261</ele>
        <time>2021-01-10T08:32:49Z</time>
      </trkpt>
      <trkpt lat="44.1602" lon="5.00031">
        <ele>263</ele>
        <time>2021-01-10T08:32:52Z</time>
      </trkpt>
      <trkpt lat="44.16028" lon="5.00031">
        <ele>264</ele>
        <time>2021-01-10T08:33:00Z</time>
      </trkpt>
      <trkpt lat="44.16036" lon="5.00025">
        <ele>261</ele>
        <time>2021-01-10T08:33:05Z</time>
      </trkpt>
      <trkpt lat="44.16042" lon="5.00022">
        <ele>259</ele>
        <time>2021-01-10T08:33:08Z</time>
      </trkpt>
      <trkpt lat="44.16053" lon="5.00016">
        <ele>255</ele>
        <time>2021-01-10T08:33:13Z</time>
      </trkpt>
      <trkpt lat="44.16055" lon="5.00014">
        <ele>253</ele>
        <time>2021-01-10T08:33:15Z</time>
      </trkpt>
      <trkpt lat="44.16056" lon="5.00011">
        <ele>253</ele>
        <time>2021-01-10T08:33:16Z</time>
      </trkpt>
      <trkpt lat="44.16058" lon="5.0001">
        <ele>252</ele>
        <time>2021-01-10T08:33:17Z</time>
      </trkpt>
      <trkpt lat="44.16059" lon="5.00008">
        <ele>251</ele>
        <time>2021-01-10T08:33:18Z</time>
      </trkpt>
      <trkpt lat="44.1606" lon="5.00007">
        <ele>251</ele>
        <time>2021-01-10T08:33:19Z</time>
      </trkpt>
      <trkpt lat="44.16068" lon="4.99997">
        <ele>247</ele>
        <time>2021-01-10T08:33:24Z</time>
      </trkpt>
      <trkpt lat="44.16068" lon="4.99995">
        <ele>247</ele>
        <time>2021-01-10T08:33:26Z</time>
      </trkpt>
      <trkpt lat="44.16068" lon="4.99993">
        <ele>247</ele>
        <time>2021-01-10T08:33:27Z</time>
      </trkpt>
      <trkpt lat="44.16064" lon="4.99987">
        <ele>245</ele>
        <time>2021-01-10T08:33:31Z</time>
      </trkpt>
      <trkpt lat="44.16063" lon="4.99985">
        <ele>245</ele>
        <time>2021-01-10T08:33:32Z</time>
      </trkpt>
      <trkpt lat="44.16061" lon="4.99985">
        <ele>245</ele>
        <time>2021-01-10T08:33:33Z</time>
      </trkpt>
      <trkpt lat="44.16059" lon="4.99981">
        <ele>245</ele>
        <time>2021-01-10T08:33:35Z</time>
      </trkpt>
      <trkpt lat="44.16064" lon="4.99974">
        <ele>243</ele>
        <time>2021-01-10T08:33:42Z</time>
      </trkpt>
      <trkpt lat="44.16066" lon="4.99972">
        <ele>242</ele>
        <time>2021-01-10T08:33:44Z</time>
      </trkpt>
      <trkpt lat="44.16068" lon="4.99971">
        <ele>242</ele>
        <time>2021-01-10T08:33:45Z</time>
      </trkpt>
      <trkpt lat="44.16073" lon="4.99968">
        <ele>241</ele>
        <time>2021-01-10T08:33:48Z</time>
      </trkpt>
      <trkpt lat="44.16075" lon="4.99965">
        <ele>241</ele>
        <time>2021-01-10T08:33:49Z</time>
      </trkpt>
      <trkpt lat="44.16076" lon="4.99962">
        <ele>240</ele>
        <time>2021-01-10T08:33:50Z</time>
      </trkpt>
      <trkpt lat="44.16078" lon="4.99959">
        <ele>239</ele>
        <time>2021-01-10T08:33:51Z</time>
      </trkpt>
      <trkpt lat="44.16079" lon="4.99956">
        <ele>239</ele>
        <time>2021-01-10T08:33:52Z</time>
      </trkpt>
      <trkpt lat="44.16081" lon="4.99953">
        <ele>238</ele>
        <time>2021-01-10T08:33:53Z</time>
      </trkpt>
      <trkpt lat="44.16082" lon="4.9995">
        <ele>237</ele>
        <time>2021-01-10T08:33:54Z</time>
      </trkpt>
      <trkpt lat="44.16084" lon="4.99947">
        <ele>237</ele>
        <time>2021-01-10T08:33:55Z</time>
      </trkpt>
      <trkpt lat="44.16085" lon="4.99944">
        <ele>236</ele>
        <time>2021-01-10T08:33:56Z</time>
      </trkpt>
      <trkpt lat="44.16087" lon="4.99942">
        <ele>236</ele>
        <time>2021-01-10T08:33:57Z</time>
      </trkpt>
      <trkpt lat="44.16088" lon="4.99939">
        <ele>235</ele>
        <time>2021-01-10T08:33:58Z</time>
      </trkpt>
      <trkpt lat="44.1609" lon="4.99936">
        <ele>235</ele>
        <time>2021-01-10T08:33:59Z</time>
      </trkpt>
      <trkpt lat="44.16105" lon="4.99912">
        <ele>231</ele>
        <time>2021-01-10T08:34:09Z</time>
      </trkpt>
      <trkpt lat="44.16108" lon="4.99905">
        <ele>230</ele>
        <time>2021-01-10T08:34:12Z</time>
      </trkpt>
      <trkpt lat="44.16108" lon="4.99904">
        <ele>230</ele>
        <time>2021-01-10T08:34:13Z</time>
      </trkpt>
      <trkpt lat="44.1611" lon="4.99907">
        <ele>230</ele>
        <time>2021-01-10T08:34:27Z</time>
      </trkpt>
      <trkpt lat="44.1611" lon="4.99909">
        <ele>230</ele>
        <time>2021-01-10T08:34:28Z</time>
      </trkpt>
      <trkpt lat="44.16109" lon="4.99912">
        <ele>230</ele>
        <time>2021-01-10T08:34:29Z</time>
      </trkpt>
      <trkpt lat="44.16108" lon="4.99915">
        <ele>231</ele>
        <time>2021-01-10T08:34:30Z</time>
      </trkpt>
      <trkpt lat="44.16108" lon="4.99917">
        <ele>231</ele>
        <time>2021-01-10T08:34:31Z</time>
      </trkpt>
      <trkpt lat="44.16107" lon="4.9992">
        <ele>232</ele>
        <time>2021-01-10T08:34:32Z</time>
      </trkpt>
      <trkpt lat="44.16107" lon="4.99923">
        <ele>232</ele>
        <time>2021-01-10T08:34:33Z</time>
      </trkpt>
      <trkpt lat="44.16107" lon="4.99926">
        <ele>233</ele>
        <time>2021-01-10T08:34:34Z</time>
      </trkpt>
      <trkpt lat="44.16107" lon="4.99929">
        <ele>233</ele>
        <time>2021-01-10T08:34:35Z</time>
      </trkpt>
      <trkpt lat="44.16107" lon="4.99932">
        <ele>234</ele>
        <time>2021-01-10T08:34:36Z</time>
      </trkpt>
      <trkpt lat="44.16108" lon="4.99934">
        <ele>234</ele>
        <time>2021-01-10T08:34:37Z</time>
      </trkpt>
      <trkpt lat="44.16109" lon="4.99937">
        <ele>235</ele>
        <time>2021-01-10T08:34:38Z</time>
      </trkpt>
      <trkpt lat="44.1611" lon="4.99939">
        <ele>235</ele>
        <time>2021-01-10T08:34:39Z</time>
      </trkpt>
      <trkpt lat="44.16111" lon="4.99942">
        <ele>236</ele>
        <time>2021-01-10T08:34:40Z</time>
      </trkpt>
      <trkpt lat="44.16121" lon="4.99963">
        <ele>239</ele>
        <time>2021-01-10T08:34:48Z</time>
      </trkpt>
      <trkpt lat="44.16124" lon="4.99967">
        <ele>240</ele>
        <time>2021-01-10T08:34:50Z</time>
      </trkpt>
      <trkpt lat="44.16125" lon="4.99969">
        <ele>240</ele>
        <time>2021-01-10T08:34:51Z</time>
      </trkpt>
      <trkpt lat="44.16126" lon="4.9997">
        <ele>241</ele>
        <time>2021-01-10T08:34:52Z</time>
      </trkpt>
      <trkpt lat="44.16128" lon="4.99971">
        <ele>241</ele>
        <time>2021-01-10T08:34:53Z</time>
      </trkpt>
      <trkpt lat="44.16129" lon="4.99972">
        <ele>241</ele>
        <time>2021-01-10T08:34:54Z</time>
      </trkpt>
      <trkpt lat="44.16131" lon="4.99972">
        <ele>241</ele>
        <time>2021-01-10T08:34:55Z</time>
      </trkpt>
      <trkpt lat="44.16141" lon="4.99972">
        <ele>241</ele>
        <time>2021-01-10T08:35:00Z</time>
      </trkpt>
      <trkpt lat="44.16143" lon="4.99973">
        <ele>241</ele>
        <time>2021-01-10T08:35:01Z</time>
      </trkpt>
      <trkpt lat="44.16146" lon="4.99973">
        <ele>241</ele>
        <time>2021-01-10T08:35:02Z</time>
      </trkpt>
      <trkpt lat="44.16148" lon="4.99974">
        <ele>241</ele>
        <time>2021-01-10T08:35:03Z</time>
      </trkpt>
      <trkpt lat="44.1615" lon="4.99975">
        <ele>241</ele>
        <time>2021-01-10T08:35:04Z</time>
      </trkpt>
      <trkpt lat="44.16152" lon="4.99975">
        <ele>241</ele>
        <time>2021-01-10T08:35:05Z</time>
      </trkpt>
      <trkpt lat="44.16168" lon="4.99981">
        <ele>242</ele>
        <time>2021-01-10T08:35:14Z</time>
      </trkpt>
      <trkpt lat="44.1619" lon="4.99986">
        <ele>242</ele>
        <time>2021-01-10T08:35:24Z</time>
      </trkpt>
      <trkpt lat="44.16208" lon="4.9999">
        <ele>241</ele>
        <time>2021-01-10T08:35:32Z</time>
      </trkpt>
      <trkpt lat="44.16224" lon="4.99987">
        <ele>240</ele>
        <time>2021-01-10T08:35:41Z</time>
      </trkpt>
      <trkpt lat="44.1624" lon="4.99986">
        <ele>240</ele>
        <time>2021-01-10T08:35:48Z</time>
      </trkpt>
      <trkpt lat="44.16259" lon="4.99993">
        <ele>239</ele>
        <time>2021-01-10T08:35:58Z</time>
      </trkpt>
      <trkpt lat="44.16277" lon="5.00008">
        <ele>242</ele>
        <time>2021-01-10T08:36:07Z</time>
      </trkpt>
      <trkpt lat="44.16294" lon="5.00024">
        <ele>239</ele>
        <time>2021-01-10T08:36:15Z</time>
      </trkpt>
      <trkpt lat="44.16305" lon="5.00032">
        <ele>238</ele>
        <time>2021-01-10T08:36:46Z</time>
      </trkpt>
      <trkpt lat="44.1631" lon="5.00036">
        <ele>237</ele>
        <time>2021-01-10T08:36:56Z</time>
      </trkpt>
      <trkpt lat="44.16312" lon="5.00037">
        <ele>237</ele>
        <time>2021-01-10T08:36:57Z</time>
      </trkpt>
      <trkpt lat="44.16314" lon="5.00039">
        <ele>237</ele>
        <time>2021-01-10T08:36:58Z</time>
      </trkpt>
      <trkpt lat="44.16315" lon="5.0004">
        <ele>237</ele>
        <time>2021-01-10T08:36:59Z</time>
      </trkpt>
      <trkpt lat="44.16317" lon="5.00042">
        <ele>237</ele>
        <time>2021-01-10T08:37:00Z</time>
      </trkpt>
      <trkpt lat="44.16319" lon="5.00044">
        <ele>237</ele>
        <time>2021-01-10T08:37:01Z</time>
      </trkpt>
      <trkpt lat="44.1632" lon="5.00045">
        <ele>237</ele>
        <time>2021-01-10T08:37:02Z</time>
      </trkpt>
      <trkpt lat="44.16334" lon="5.00057">
        <ele>237</ele>
        <time>2021-01-10T08:37:10Z</time>
      </trkpt>
      <trkpt lat="44.16348" lon="5.00068">
        <ele>238</ele>
        <time>2021-01-10T08:37:19Z</time>
      </trkpt>
      <trkpt lat="44.16352" lon="5.00074">
        <ele>239</ele>
        <time>2021-01-10T08:37:22Z</time>
      </trkpt>
      <trkpt lat="44.16353" lon="5.00076">
        <ele>239</ele>
        <time>2021-01-10T08:37:23Z</time>
      </trkpt>
      <trkpt lat="44.16353" lon="5.00078">
        <ele>239</ele>
        <time>2021-01-10T08:37:24Z</time>
      </trkpt>
      <trkpt lat="44.16353" lon="5.00081">
        <ele>239</ele>
        <time>2021-01-10T08:37:25Z</time>
      </trkpt>
      <trkpt lat="44.16353" lon="5.00083">
        <ele>240</ele>
        <time>2021-01-10T08:37:26Z</time>
      </trkpt>
      <trkpt lat="44.16353" lon="5.00086">
        <ele>240</ele>
        <time>2021-01-10T08:37:27Z</time>
      </trkpt>
      <trkpt lat="44.16353" lon="5.00088">
        <ele>240</ele>
        <time>2021-01-10T08:37:28Z</time>
      </trkpt>
      <trkpt lat="44.16353" lon="5.00091">
        <ele>240</ele>
        <time>2021-01-10T08:37:29Z</time>
      </trkpt>
      <trkpt lat="44.16353" lon="5.00093">
        <ele>240</ele>
        <time>2021-01-10T08:37:30Z</time>
      </trkpt>
      <trkpt lat="44.16353" lon="5.00095">
        <ele>241</ele>
        <time>2021-01-10T08:37:31Z</time>
      </trkpt>
      <trkpt lat="44.16353" lon="5.00097">
        <ele>241</ele>
        <time>2021-01-10T08:37:32Z</time>
      </trkpt>
      <trkpt lat="44.16353" lon="5.001">
        <ele>241</ele>
        <time>2021-01-10T08:37:33Z</time>
      </trkpt>
      <trkpt lat="44.16352" lon="5.00102">
        <ele>241</ele>
        <time>2021-01-10T08:37:34Z</time>
      </trkpt>
      <trkpt lat="44.16352" lon="5.00105">
        <ele>241</ele>
        <time>2021-01-10T08:37:35Z</time>
      </trkpt>
      <trkpt lat="44.16352" lon="5.00107">
        <ele>242</ele>
        <time>2021-01-10T08:37:36Z</time>
      </trkpt>
      <trkpt lat="44.16352" lon="5.0011">
        <ele>242</ele>
        <time>2021-01-10T08:37:37Z</time>
      </trkpt>
      <trkpt lat="44.16352" lon="5.00113">
        <ele>242</ele>
        <time>2021-01-10T08:37:38Z</time>
      </trkpt>
      <trkpt lat="44.16351" lon="5.00115">
        <ele>242</ele>
        <time>2021-01-10T08:37:39Z</time>
      </trkpt>
      <trkpt lat="44.16351" lon="5.00117">
        <ele>242</ele>
        <time>2021-01-10T08:37:40Z</time>
      </trkpt>
      <trkpt lat="44.16351" lon="5.0012">
        <ele>242</ele>
        <time>2021-01-10T08:37:41Z</time>
      </trkpt>
      <trkpt lat="44.1635" lon="5.00124">
        <ele>242</ele>
        <time>2021-01-10T08:37:43Z</time>
      </trkpt>
      <trkpt lat="44.1635" lon="5.00127">
        <ele>242</ele>
        <time>2021-01-10T08:37:44Z</time>
      </trkpt>
      <trkpt lat="44.16349" lon="5.00129">
        <ele>242</ele>
        <time>2021-01-10T08:37:45Z</time>
      </trkpt>
      <trkpt lat="44.16349" lon="5.00131">
        <ele>242</ele>
        <time>2021-01-10T08:37:46Z</time>
      </trkpt>
      <trkpt lat="44.16349" lon="5.00134">
        <ele>242</ele>
        <time>2021-01-10T08:37:47Z</time>
      </trkpt>
      <trkpt lat="44.16348" lon="5.00136">
        <ele>242</ele>
        <time>2021-01-10T08:37:48Z</time>
      </trkpt>
      <trkpt lat="44.16347" lon="5.00138">
        <ele>242</ele>
        <time>2021-01-10T08:37:49Z</time>
      </trkpt>
      <trkpt lat="44.16347" lon="5.0014">
        <ele>243</ele>
        <time>2021-01-10T08:37:50Z</time>
      </trkpt>
      <trkpt lat="44.16346" lon="5.00142">
        <ele>243</ele>
        <time>2021-01-10T08:37:51Z</time>
      </trkpt>
      <trkpt lat="44.16345" lon="5.00144">
        <ele>243</ele>
        <time>2021-01-10T08:37:52Z</time>
      </trkpt>
      <trkpt lat="44.16344" lon="5.00146">
        <ele>243</ele>
        <time>2021-01-10T08:37:53Z</time>
      </trkpt>
      <trkpt lat="44.16343" lon="5.00148">
        <ele>243</ele>
        <time>2021-01-10T08:37:54Z</time>
      </trkpt>
      <trkpt lat="44.16341" lon="5.0015">
        <ele>243</ele>
        <time>2021-01-10T08:37:55Z</time>
      </trkpt>
      <trkpt lat="44.1634" lon="5.00151">
        <ele>243</ele>
        <time>2021-01-10T08:37:56Z</time>
      </trkpt>
      <trkpt lat="44.16339" lon="5.00153">
        <ele>243</ele>
        <time>2021-01-10T08:37:57Z</time>
      </trkpt>
      <trkpt lat="44.16338" lon="5.00155">
        <ele>244</ele>
        <time>2021-01-10T08:37:58Z</time>
      </trkpt>
      <trkpt lat="44.16325" lon="5.00171">
        <ele>245</ele>
        <time>2021-01-10T08:38:07Z</time>
      </trkpt>
      <trkpt lat="44.16314" lon="5.00188">
        <ele>246</ele>
        <time>2021-01-10T08:38:15Z</time>
      </trkpt>
      <trkpt lat="44.16298" lon="5.00214">
        <ele>247</ele>
        <time>2021-01-10T08:38:26Z</time>
      </trkpt>
      <trkpt lat="44.1629" lon="5.00236">
        <ele>249</ele>
        <time>2021-01-10T08:38:36Z</time>
      </trkpt>
      <trkpt lat="44.16289" lon="5.00238">
        <ele>249</ele>
        <time>2021-01-10T08:38:37Z</time>
      </trkpt>
      <trkpt lat="44.16288" lon="5.00241">
        <ele>249</ele>
        <time>2021-01-10T08:38:38Z</time>
      </trkpt>
      <trkpt lat="44.16288" lon="5.00243">
        <ele>249</ele>
        <time>2021-01-10T08:38:39Z</time>
      </trkpt>
      <trkpt lat="44.16287" lon="5.00245">
        <ele>250</ele>
        <time>2021-01-10T08:38:40Z</time>
      </trkpt>
      <trkpt lat="44.16284" lon="5.00262">
        <ele>250</ele>
        <time>2021-01-10T08:38:46Z</time>
      </trkpt>
      <trkpt lat="44.16284" lon="5.00265">
        <ele>249</ele>
        <time>2021-01-10T08:38:47Z</time>
      </trkpt>
      <trkpt lat="44.16284" lon="5.00273">
        <ele>249</ele>
        <time>2021-01-10T08:38:50Z</time>
      </trkpt>
      <trkpt lat="44.16283" lon="5.00276">
        <ele>249</ele>
        <time>2021-01-10T08:38:51Z</time>
      </trkpt>
      <trkpt lat="44.16283" lon="5.0028">
        <ele>249</ele>
        <time>2021-01-10T08:38:52Z</time>
      </trkpt>
      <trkpt lat="44.16282" lon="5.00283">
        <ele>249</ele>
        <time>2021-01-10T08:38:53Z</time>
      </trkpt>
      <trkpt lat="44.16282" lon="5.00286">
        <ele>249</ele>
        <time>2021-01-10T08:38:54Z</time>
      </trkpt>
      <trkpt lat="44.16282" lon="5.0029">
        <ele>249</ele>
        <time>2021-01-10T08:38:55Z</time>
      </trkpt>
      <trkpt lat="44.16282" lon="5.00293">
        <ele>248</ele>
        <time>2021-01-10T08:38:56Z</time>
      </trkpt>
      <trkpt lat="44.16282" lon="5.00297">
        <ele>248</ele>
        <time>2021-01-10T08:38:57Z</time>
      </trkpt>
      <trkpt lat="44.16283" lon="5.003">
        <ele>248</ele>
        <time>2021-01-10T08:38:58Z</time>
      </trkpt>
      <trkpt lat="44.16283" lon="5.00303">
        <ele>247</ele>
        <time>2021-01-10T08:38:59Z</time>
      </trkpt>
      <trkpt lat="44.16286" lon="5.00328">
        <ele>246</ele>
        <time>2021-01-10T08:39:08Z</time>
      </trkpt>
      <trkpt lat="44.16294" lon="5.00363">
        <ele>244</ele>
        <time>2021-01-10T08:39:18Z</time>
      </trkpt>
      <trkpt lat="44.16303" lon="5.0039">
        <ele>245</ele>
        <time>2021-01-10T08:39:28Z</time>
      </trkpt>
      <trkpt lat="44.16317" lon="5.0041">
        <ele>248</ele>
        <time>2021-01-10T08:39:37Z</time>
      </trkpt>
      <trkpt lat="44.16328" lon="5.00416">
        <ele>249</ele>
        <time>2021-01-10T08:39:41Z</time>
      </trkpt>
      <trkpt lat="44.1633" lon="5.00417">
        <ele>249</ele>
        <time>2021-01-10T08:39:42Z</time>
      </trkpt>
      <trkpt lat="44.16332" lon="5.00418">
        <ele>249</ele>
        <time>2021-01-10T08:39:43Z</time>
      </trkpt>
      <trkpt lat="44.16334" lon="5.00419">
        <ele>249</ele>
        <time>2021-01-10T08:39:44Z</time>
      </trkpt>
      <trkpt lat="44.16336" lon="5.0042">
        <ele>249</ele>
        <time>2021-01-10T08:39:45Z</time>
      </trkpt>
      <trkpt lat="44.16338" lon="5.0042">
        <ele>249</ele>
        <time>2021-01-10T08:39:46Z</time>
      </trkpt>
      <trkpt lat="44.1634" lon="5.00421">
        <ele>249</ele>
        <time>2021-01-10T08:39:47Z</time>
      </trkpt>
      <trkpt lat="44.16342" lon="5.00421">
        <ele>249</ele>
        <time>2021-01-10T08:39:48Z</time>
      </trkpt>
      <trkpt lat="44.16345" lon="5.00421">
        <ele>249</ele>
        <time>2021-01-10T08:39:49Z</time>
      </trkpt>
      <trkpt lat="44.16347" lon="5.00422">
        <ele>249</ele>
        <time>2021-01-10T08:39:50Z</time>
      </trkpt>
      <trkpt lat="44.16349" lon="5.00423">
        <ele>249</ele>
        <time>2021-01-10T08:39:51Z</time>
      </trkpt>
      <trkpt lat="44.16351" lon="5.00424">
        <ele>249</ele>
        <time>2021-01-10T08:39:52Z</time>
      </trkpt>
      <trkpt lat="44.16365" lon="5.00434">
        <ele>250</ele>
        <time>2021-01-10T08:40:01Z</time>
      </trkpt>
      <trkpt lat="44.16378" lon="5.00449">
        <ele>251</ele>
        <time>2021-01-10T08:40:09Z</time>
      </trkpt>
      <trkpt lat="44.16379" lon="5.0045">
        <ele>251</ele>
        <time>2021-01-10T08:40:10Z</time>
      </trkpt>
      <trkpt lat="44.1638" lon="5.00452">
        <ele>251</ele>
        <time>2021-01-10T08:40:11Z</time>
      </trkpt>
      <trkpt lat="44.16396" lon="5.00474">
        <ele>252</ele>
        <time>2021-01-10T08:40:21Z</time>
      </trkpt>
      <trkpt lat="44.16407" lon="5.005">
        <ele>253</ele>
        <time>2021-01-10T08:40:30Z</time>
      </trkpt>
      <trkpt lat="44.1641" lon="5.00523">
        <ele>254</ele>
        <time>2021-01-10T08:40:39Z</time>
      </trkpt>
      <trkpt lat="44.16409" lon="5.0054">
        <ele>254</ele>
        <time>2021-01-10T08:40:45Z</time>
      </trkpt>
      <trkpt lat="44.1641" lon="5.00542">
        <ele>254</ele>
        <time>2021-01-10T08:40:46Z</time>
      </trkpt>
      <trkpt lat="44.16412" lon="5.00546">
        <ele>254</ele>
        <time>2021-01-10T08:40:48Z</time>
      </trkpt>
      <trkpt lat="44.16428" lon="5.00574">
        <ele>254</ele>
        <time>2021-01-10T08:41:00Z</time>
      </trkpt>
      <trkpt lat="44.16437" lon="5.00601">
        <ele>254</ele>
        <time>2021-01-10T08:41:10Z</time>
      </trkpt>
      <trkpt lat="44.16448" lon="5.0063">
        <ele>255</ele>
        <time>2021-01-10T08:41:21Z</time>
      </trkpt>
      <trkpt lat="44.16461" lon="5.00656">
        <ele>254</ele>
        <time>2021-01-10T08:41:31Z</time>
      </trkpt>
      <trkpt lat="44.16463" lon="5.00667">
        <ele>255</ele>
        <time>2021-01-10T08:41:35Z</time>
      </trkpt>
      <trkpt lat="44.16463" lon="5.00671">
        <ele>256</ele>
        <time>2021-01-10T08:41:36Z</time>
      </trkpt>
      <trkpt lat="44.16463" lon="5.00674">
        <ele>256</ele>
        <time>2021-01-10T08:41:37Z</time>
      </trkpt>
      <trkpt lat="44.16463" lon="5.00677">
        <ele>257</ele>
        <time>2021-01-10T08:41:38Z</time>
      </trkpt>
      <trkpt lat="44.16463" lon="5.00681">
        <ele>257</ele>
        <time>2021-01-10T08:41:39Z</time>
      </trkpt>
      <trkpt lat="44.16464" lon="5.00683">
        <ele>258</ele>
        <time>2021-01-10T08:41:40Z</time>
      </trkpt>
      <trkpt lat="44.16465" lon="5.00686">
        <ele>258</ele>
        <time>2021-01-10T08:41:41Z</time>
      </trkpt>
      <trkpt lat="44.16465" lon="5.00688">
        <ele>258</ele>
        <time>2021-01-10T08:41:42Z</time>
      </trkpt>
      <trkpt lat="44.16475" lon="5.00709">
        <ele>260</ele>
        <time>2021-01-10T08:41:52Z</time>
      </trkpt>
      <trkpt lat="44.16488" lon="5.00727">
        <ele>261</ele>
        <time>2021-01-10T08:42:01Z</time>
      </trkpt>
      <trkpt lat="44.16501" lon="5.00746">
        <ele>262</ele>
        <time>2021-01-10T08:42:11Z</time>
      </trkpt>
      <trkpt lat="44.16514" lon="5.00768">
        <ele>263</ele>
        <time>2021-01-10T08:42:21Z</time>
      </trkpt>
      <trkpt lat="44.16525" lon="5.00791">
        <ele>266</ele>
        <time>2021-01-10T08:42:30Z</time>
      </trkpt>
      <trkpt lat="44.16533" lon="5.00812">
        <ele>268</ele>
        <time>2021-01-10T08:42:38Z</time>
      </trkpt>
      <trkpt lat="44.16544" lon="5.00832">
        <ele>268</ele>
        <time>2021-01-10T08:42:47Z</time>
      </trkpt>
      <trkpt lat="44.16545" lon="5.00834">
        <ele>268</ele>
        <time>2021-01-10T08:42:48Z</time>
      </trkpt>
      <trkpt lat="44.16546" lon="5.00836">
        <ele>268</ele>
        <time>2021-01-10T08:42:49Z</time>
      </trkpt>
      <trkpt lat="44.16546" lon="5.00839">
        <ele>268</ele>
        <time>2021-01-10T08:42:50Z</time>
      </trkpt>
      <trkpt lat="44.16547" lon="5.00841">
        <ele>268</ele>
        <time>2021-01-10T08:42:51Z</time>
      </trkpt>
      <trkpt lat="44.1655" lon="5.00846">
        <ele>268</ele>
        <time>2021-01-10T08:42:53Z</time>
      </trkpt>
      <trkpt lat="44.16551" lon="5.00849">
        <ele>268</ele>
        <time>2021-01-10T08:42:54Z</time>
      </trkpt>
      <trkpt lat="44.16553" lon="5.00852">
        <ele>267</ele>
        <time>2021-01-10T08:42:55Z</time>
      </trkpt>
      <trkpt lat="44.16555" lon="5.00855">
        <ele>267</ele>
        <time>2021-01-10T08:42:56Z</time>
      </trkpt>
      <trkpt lat="44.16556" lon="5.00857">
        <ele>266</ele>
        <time>2021-01-10T08:42:57Z</time>
      </trkpt>
      <trkpt lat="44.16558" lon="5.0086">
        <ele>266</ele>
        <time>2021-01-10T08:42:58Z</time>
      </trkpt>
      <trkpt lat="44.16559" lon="5.00863">
        <ele>266</ele>
        <time>2021-01-10T08:42:59Z</time>
      </trkpt>
      <trkpt lat="44.16561" lon="5.00865">
        <ele>266</ele>
        <time>2021-01-10T08:43:00Z</time>
      </trkpt>
      <trkpt lat="44.16562" lon="5.00868">
        <ele>266</ele>
        <time>2021-01-10T08:43:01Z</time>
      </trkpt>
      <trkpt lat="44.16563" lon="5.00871">
        <ele>265</ele>
        <time>2021-01-10T08:43:02Z</time>
      </trkpt>
      <trkpt lat="44.16564" lon="5.00873">
        <ele>265</ele>
        <time>2021-01-10T08:43:03Z</time>
      </trkpt>
      <trkpt lat="44.16566" lon="5.00876">
        <ele>265</ele>
        <time>2021-01-10T08:43:04Z</time>
      </trkpt>
      <trkpt lat="44.16567" lon="5.00879">
        <ele>265</ele>
        <time>2021-01-10T08:43:05Z</time>
      </trkpt>
      <trkpt lat="44.16568" lon="5.00881">
        <ele>265</ele>
        <time>2021-01-10T08:43:06Z</time>
      </trkpt>
      <trkpt lat="44.1657" lon="5.00884">
        <ele>265</ele>
        <time>2021-01-10T08:43:07Z</time>
      </trkpt>
      <trkpt lat="44.16571" lon="5.00887">
        <ele>264</ele>
        <time>2021-01-10T08:43:08Z</time>
      </trkpt>
      <trkpt lat="44.16573" lon="5.0089">
        <ele>264</ele>
        <time>2021-01-10T08:43:09Z</time>
      </trkpt>
      <trkpt lat="44.16575" lon="5.00894">
        <ele>263</ele>
        <time>2021-01-10T08:43:10Z</time>
      </trkpt>
      <trkpt lat="44.16577" lon="5.00897">
        <ele>262</ele>
        <time>2021-01-10T08:43:11Z</time>
      </trkpt>
      <trkpt lat="44.16578" lon="5.009">
        <ele>261</ele>
        <time>2021-01-10T08:43:12Z</time>
      </trkpt>
      <trkpt lat="44.16579" lon="5.00903">
        <ele>261</ele>
        <time>2021-01-10T08:43:13Z</time>
      </trkpt>
      <trkpt lat="44.16591" lon="5.00937">
        <ele>259</ele>
        <time>2021-01-10T08:43:24Z</time>
      </trkpt>
      <trkpt lat="44.16594" lon="5.00946">
        <ele>259</ele>
        <time>2021-01-10T08:43:28Z</time>
      </trkpt>
      <trkpt lat="44.16596" lon="5.00948">
        <ele>259</ele>
        <time>2021-01-10T08:43:29Z</time>
      </trkpt>
      <trkpt lat="44.16597" lon="5.00951">
        <ele>259</ele>
        <time>2021-01-10T08:43:30Z</time>
      </trkpt>
      <trkpt lat="44.16599" lon="5.00953">
        <ele>259</ele>
        <time>2021-01-10T08:43:31Z</time>
      </trkpt>
      <trkpt lat="44.166" lon="5.00955">
        <ele>259</ele>
        <time>2021-01-10T08:43:32Z</time>
      </trkpt>
      <trkpt lat="44.16602" lon="5.00957">
        <ele>259</ele>
        <time>2021-01-10T08:43:33Z</time>
      </trkpt>
      <trkpt lat="44.16603" lon="5.00959">
        <ele>259</ele>
        <time>2021-01-10T08:43:34Z</time>
      </trkpt>
      <trkpt lat="44.1662" lon="5.00985">
        <ele>259</ele>
        <time>2021-01-10T08:43:45Z</time>
      </trkpt>
      <trkpt lat="44.16633" lon="5.01006">
        <ele>259</ele>
        <time>2021-01-10T08:43:53Z</time>
      </trkpt>
      <trkpt lat="44.16645" lon="5.01029">
        <ele>258</ele>
        <time>2021-01-10T08:44:02Z</time>
      </trkpt>
      <trkpt lat="44.16646" lon="5.01032">
        <ele>258</ele>
        <time>2021-01-10T08:44:03Z</time>
      </trkpt>
      <trkpt lat="44.16647" lon="5.01035">
        <ele>258</ele>
        <time>2021-01-10T08:44:04Z</time>
      </trkpt>
      <trkpt lat="44.16653" lon="5.01063">
        <ele>258</ele>
        <time>2021-01-10T08:44:14Z</time>
      </trkpt>
      <trkpt lat="44.16653" lon="5.01066">
        <ele>259</ele>
        <time>2021-01-10T08:44:15Z</time>
      </trkpt>
      <trkpt lat="44.16659" lon="5.01094">
        <ele>258</ele>
        <time>2021-01-10T08:44:25Z</time>
      </trkpt>
      <trkpt lat="44.16659" lon="5.01097">
        <ele>258</ele>
        <time>2021-01-10T08:44:26Z</time>
      </trkpt>
      <trkpt lat="44.16659" lon="5.01099">
        <ele>258</ele>
        <time>2021-01-10T08:44:27Z</time>
      </trkpt>
      <trkpt lat="44.16659" lon="5.01102">
        <ele>259</ele>
        <time>2021-01-10T08:44:28Z</time>
      </trkpt>
      <trkpt lat="44.16659" lon="5.01105">
        <ele>259</ele>
        <time>2021-01-10T08:44:29Z</time>
      </trkpt>
      <trkpt lat="44.16659" lon="5.01109">
        <ele>259</ele>
        <time>2021-01-10T08:44:30Z</time>
      </trkpt>
      <trkpt lat="44.1666" lon="5.01112">
        <ele>259</ele>
        <time>2021-01-10T08:44:31Z</time>
      </trkpt>
      <trkpt lat="44.16661" lon="5.01117">
        <ele>258</ele>
        <time>2021-01-10T08:44:32Z</time>
      </trkpt>
      <trkpt lat="44.16661" lon="5.01121">
        <ele>259</ele>
        <time>2021-01-10T08:44:33Z</time>
      </trkpt>
      <trkpt lat="44.16656" lon="5.01153">
        <ele>259</ele>
        <time>2021-01-10T08:44:43Z</time>
      </trkpt>
      <trkpt lat="44.16644" lon="5.01177">
        <ele>261</ele>
        <time>2021-01-10T08:44:51Z</time>
      </trkpt>
      <trkpt lat="44.16642" lon="5.0118">
        <ele>261</ele>
        <time>2021-01-10T08:44:52Z</time>
      </trkpt>
      <trkpt lat="44.16641" lon="5.01183">
        <ele>262</ele>
        <time>2021-01-10T08:44:53Z</time>
      </trkpt>
      <trkpt lat="44.1663" lon="5.01208">
        <ele>265</ele>
        <time>2021-01-10T08:45:01Z</time>
      </trkpt>
      <trkpt lat="44.16621" lon="5.01233">
        <ele>268</ele>
        <time>2021-01-10T08:45:09Z</time>
      </trkpt>
      <trkpt lat="44.1662" lon="5.01236">
        <ele>268</ele>
        <time>2021-01-10T08:45:10Z</time>
      </trkpt>
      <trkpt lat="44.16619" lon="5.01239">
        <ele>268</ele>
        <time>2021-01-10T08:45:11Z</time>
      </trkpt>
      <trkpt lat="44.16618" lon="5.01241">
        <ele>268</ele>
        <time>2021-01-10T08:45:12Z</time>
      </trkpt>
      <trkpt lat="44.16617" lon="5.01244">
        <ele>269</ele>
        <time>2021-01-10T08:45:13Z</time>
      </trkpt>
      <trkpt lat="44.16616" lon="5.01247">
        <ele>269</ele>
        <time>2021-01-10T08:45:14Z</time>
      </trkpt>
      <trkpt lat="44.16613" lon="5.01257">
        <ele>269</ele>
        <time>2021-01-10T08:45:18Z</time>
      </trkpt>
      <trkpt lat="44.16613" lon="5.01259">
        <ele>269</ele>
        <time>2021-01-10T08:45:19Z</time>
      </trkpt>
      <trkpt lat="44.16612" lon="5.01261">
        <ele>269</ele>
        <time>2021-01-10T08:45:20Z</time>
      </trkpt>
      <trkpt lat="44.16612" lon="5.01264">
        <ele>269</ele>
        <time>2021-01-10T08:45:21Z</time>
      </trkpt>
      <trkpt lat="44.16611" lon="5.01266">
        <ele>269</ele>
        <time>2021-01-10T08:45:22Z</time>
      </trkpt>
      <trkpt lat="44.1661" lon="5.01269">
        <ele>269</ele>
        <time>2021-01-10T08:45:23Z</time>
      </trkpt>
      <trkpt lat="44.1661" lon="5.01272">
        <ele>269</ele>
        <time>2021-01-10T08:45:24Z</time>
      </trkpt>
      <trkpt lat="44.16604" lon="5.013">
        <ele>269</ele>
        <time>2021-01-10T08:45:33Z</time>
      </trkpt>
      <trkpt lat="44.16598" lon="5.01341">
        <ele>267</ele>
        <time>2021-01-10T08:45:45Z</time>
      </trkpt>
      <trkpt lat="44.16596" lon="5.01347">
        <ele>267</ele>
        <time>2021-01-10T08:45:47Z</time>
      </trkpt>
      <trkpt lat="44.16595" lon="5.0135">
        <ele>267</ele>
        <time>2021-01-10T08:45:48Z</time>
      </trkpt>
      <trkpt lat="44.16594" lon="5.01354">
        <ele>267</ele>
        <time>2021-01-10T08:45:50Z</time>
      </trkpt>
      <trkpt lat="44.16593" lon="5.01356">
        <ele>267</ele>
        <time>2021-01-10T08:45:51Z</time>
      </trkpt>
      <trkpt lat="44.16591" lon="5.01371">
        <ele>267</ele>
        <time>2021-01-10T08:45:57Z</time>
      </trkpt>
      <trkpt lat="44.16589" lon="5.01373">
        <ele>268</ele>
        <time>2021-01-10T08:45:58Z</time>
      </trkpt>
      <trkpt lat="44.16586" lon="5.01377">
        <ele>268</ele>
        <time>2021-01-10T08:46:01Z</time>
      </trkpt>
      <trkpt lat="44.16583" lon="5.01384">
        <ele>268</ele>
        <time>2021-01-10T08:46:06Z</time>
      </trkpt>
      <trkpt lat="44.1658" lon="5.01384">
        <ele>269</ele>
        <time>2021-01-10T08:46:20Z</time>
      </trkpt>
      <trkpt lat="44.16578" lon="5.01385">
        <ele>269</ele>
        <time>2021-01-10T08:46:21Z</time>
      </trkpt>
      <trkpt lat="44.16572" lon="5.01391">
        <ele>270</ele>
        <time>2021-01-10T08:46:25Z</time>
      </trkpt>
      <trkpt lat="44.1657" lon="5.01393">
        <ele>270</ele>
        <time>2021-01-10T08:46:26Z</time>
      </trkpt>
      <trkpt lat="44.16569" lon="5.01395">
        <ele>270</ele>
        <time>2021-01-10T08:46:27Z</time>
      </trkpt>
      <trkpt lat="44.16567" lon="5.01396">
        <ele>270</ele>
        <time>2021-01-10T08:46:28Z</time>
      </trkpt>
      <trkpt lat="44.16565" lon="5.01398">
        <ele>270</ele>
        <time>2021-01-10T08:46:29Z</time>
      </trkpt>
      <trkpt lat="44.16564" lon="5.014">
        <ele>270</ele>
        <time>2021-01-10T08:46:30Z</time>
      </trkpt>
      <trkpt lat="44.16562" lon="5.01401">
        <ele>270</ele>
        <time>2021-01-10T08:46:31Z</time>
      </trkpt>
      <trkpt lat="44.1656" lon="5.01404">
        <ele>270</ele>
        <time>2021-01-10T08:46:32Z</time>
      </trkpt>
      <trkpt lat="44.16558" lon="5.01406">
        <ele>270</ele>
        <time>2021-01-10T08:46:33Z</time>
      </trkpt>
      <trkpt lat="44.16556" lon="5.01408">
        <ele>270</ele>
        <time>2021-01-10T08:46:34Z</time>
      </trkpt>
      <trkpt lat="44.16554" lon="5.0141">
        <ele>270</ele>
        <time>2021-01-10T08:46:35Z</time>
      </trkpt>
      <trkpt lat="44.16553" lon="5.01412">
        <ele>270</ele>
        <time>2021-01-10T08:46:36Z</time>
      </trkpt>
      <trkpt lat="44.16551" lon="5.01413">
        <ele>270</ele>
        <time>2021-01-10T08:46:37Z</time>
      </trkpt>
      <trkpt lat="44.16548" lon="5.01416">
        <ele>270</ele>
        <time>2021-01-10T08:46:39Z</time>
      </trkpt>
      <trkpt lat="44.16541" lon="5.01422">
        <ele>271</ele>
        <time>2021-01-10T08:46:44Z</time>
      </trkpt>
      <trkpt lat="44.1654" lon="5.01423">
        <ele>271</ele>
        <time>2021-01-10T08:46:45Z</time>
      </trkpt>
      <trkpt lat="44.16531" lon="5.01434">
        <ele>271</ele>
        <time>2021-01-10T08:46:53Z</time>
      </trkpt>
      <trkpt lat="44.1653" lon="5.01438">
        <ele>271</ele>
        <time>2021-01-10T08:46:54Z</time>
      </trkpt>
      <trkpt lat="44.16529" lon="5.01441">
        <ele>270</ele>
        <time>2021-01-10T08:46:55Z</time>
      </trkpt>
      <trkpt lat="44.16528" lon="5.01444">
        <ele>270</ele>
        <time>2021-01-10T08:46:56Z</time>
      </trkpt>
      <trkpt lat="44.16522" lon="5.01459">
        <ele>271</ele>
        <time>2021-01-10T08:47:02Z</time>
      </trkpt>
      <trkpt lat="44.16521" lon="5.0146">
        <ele>272</ele>
        <time>2021-01-10T08:47:03Z</time>
      </trkpt>
      <trkpt lat="44.16519" lon="5.01462">
        <ele>272</ele>
        <time>2021-01-10T08:47:04Z</time>
      </trkpt>
      <trkpt lat="44.16509" lon="5.01469">
        <ele>274</ele>
        <time>2021-01-10T08:47:11Z</time>
      </trkpt>
      <trkpt lat="44.16508" lon="5.0147">
        <ele>274</ele>
        <time>2021-01-10T08:47:12Z</time>
      </trkpt>
      <trkpt lat="44.16507" lon="5.01472">
        <ele>274</ele>
        <time>2021-01-10T08:47:13Z</time>
      </trkpt>
      <trkpt lat="44.16507" lon="5.01474">
        <ele>274</ele>
        <time>2021-01-10T08:47:14Z</time>
      </trkpt>
      <trkpt lat="44.16504" lon="5.0148">
        <ele>275</ele>
        <time>2021-01-10T08:47:18Z</time>
      </trkpt>
      <trkpt lat="44.16502" lon="5.01481">
        <ele>275</ele>
        <time>2021-01-10T08:47:19Z</time>
      </trkpt>
      <trkpt lat="44.165" lon="5.01482">
        <ele>276</ele>
        <time>2021-01-10T08:47:20Z</time>
      </trkpt>
      <trkpt lat="44.16498" lon="5.01483">
        <ele>276</ele>
        <time>2021-01-10T08:47:21Z</time>
      </trkpt>
      <trkpt lat="44.16496" lon="5.01484">
        <ele>276</ele>
        <time>2021-01-10T08:47:22Z</time>
      </trkpt>
      <trkpt lat="44.16495" lon="5.01485">
        <ele>277</ele>
        <time>2021-01-10T08:47:23Z</time>
      </trkpt>
      <trkpt lat="44.16493" lon="5.01486">
        <ele>277</ele>
        <time>2021-01-10T08:47:24Z</time>
      </trkpt>
      <trkpt lat="44.16491" lon="5.01487">
        <ele>277</ele>
        <time>2021-01-10T08:47:25Z</time>
      </trkpt>
      <trkpt lat="44.1649" lon="5.01488">
        <ele>278</ele>
        <time>2021-01-10T08:47:26Z</time>
      </trkpt>
      <trkpt lat="44.16488" lon="5.0149">
        <ele>278</ele>
        <time>2021-01-10T08:47:27Z</time>
      </trkpt>
      <trkpt lat="44.16487" lon="5.01491">
        <ele>278</ele>
        <time>2021-01-10T08:47:28Z</time>
      </trkpt>
      <trkpt lat="44.16486" lon="5.01493">
        <ele>278</ele>
        <time>2021-01-10T08:47:29Z</time>
      </trkpt>
      <trkpt lat="44.16481" lon="5.01495">
        <ele>278</ele>
        <time>2021-01-10T08:47:33Z</time>
      </trkpt>
      <trkpt lat="44.16479" lon="5.01496">
        <ele>279</ele>
        <time>2021-01-10T08:47:34Z</time>
      </trkpt>
      <trkpt lat="44.16478" lon="5.01497">
        <ele>279</ele>
        <time>2021-01-10T08:47:35Z</time>
      </trkpt>
      <trkpt lat="44.16462" lon="5.01506">
        <ele>280</ele>
        <time>2021-01-10T08:47:43Z</time>
      </trkpt>
      <trkpt lat="44.16459" lon="5.01507">
        <ele>280</ele>
        <time>2021-01-10T08:47:44Z</time>
      </trkpt>
      <trkpt lat="44.16457" lon="5.01508">
        <ele>280</ele>
        <time>2021-01-10T08:47:45Z</time>
      </trkpt>
      <trkpt lat="44.16454" lon="5.01509">
        <ele>280</ele>
        <time>2021-01-10T08:47:46Z</time>
      </trkpt>
      <trkpt lat="44.16451" lon="5.0151">
        <ele>280</ele>
        <time>2021-01-10T08:47:47Z</time>
      </trkpt>
      <trkpt lat="44.16448" lon="5.01512">
        <ele>281</ele>
        <time>2021-01-10T08:47:48Z</time>
      </trkpt>
      <trkpt lat="44.16446" lon="5.01513">
        <ele>281</ele>
        <time>2021-01-10T08:47:49Z</time>
      </trkpt>
      <trkpt lat="44.16444" lon="5.01514">
        <ele>281</ele>
        <time>2021-01-10T08:47:50Z</time>
      </trkpt>
      <trkpt lat="44.16442" lon="5.01515">
        <ele>281</ele>
        <time>2021-01-10T08:47:51Z</time>
      </trkpt>
      <trkpt lat="44.16439" lon="5.01516">
        <ele>281</ele>
        <time>2021-01-10T08:47:52Z</time>
      </trkpt>
      <trkpt lat="44.16437" lon="5.01517">
        <ele>281</ele>
        <time>2021-01-10T08:47:53Z</time>
      </trkpt>
      <trkpt lat="44.16435" lon="5.01518">
        <ele>281</ele>
        <time>2021-01-10T08:47:54Z</time>
      </trkpt>
      <trkpt lat="44.16433" lon="5.01519">
        <ele>281</ele>
        <time>2021-01-10T08:47:55Z</time>
      </trkpt>
      <trkpt lat="44.16431" lon="5.0152">
        <ele>281</ele>
        <time>2021-01-10T08:47:56Z</time>
      </trkpt>
      <trkpt lat="44.16428" lon="5.01521">
        <ele>281</ele>
        <time>2021-01-10T08:47:57Z</time>
      </trkpt>
      <trkpt lat="44.16426" lon="5.01522">
        <ele>281</ele>
        <time>2021-01-10T08:47:58Z</time>
      </trkpt>
      <trkpt lat="44.16423" lon="5.01522">
        <ele>281</ele>
        <time>2021-01-10T08:47:59Z</time>
      </trkpt>
      <trkpt lat="44.16422" lon="5.01522">
        <ele>281</ele>
        <time>2021-01-10T08:48:00Z</time>
      </trkpt>
      <trkpt lat="44.1642" lon="5.01522">
        <ele>281</ele>
        <time>2021-01-10T08:48:01Z</time>
      </trkpt>
      <trkpt lat="44.16417" lon="5.01522">
        <ele>281</ele>
        <time>2021-01-10T08:48:02Z</time>
      </trkpt>
      <trkpt lat="44.16415" lon="5.01523">
        <ele>282</ele>
        <time>2021-01-10T08:48:03Z</time>
      </trkpt>
      <trkpt lat="44.16413" lon="5.01523">
        <ele>282</ele>
        <time>2021-01-10T08:48:04Z</time>
      </trkpt>
      <trkpt lat="44.1641" lon="5.01524">
        <ele>282</ele>
        <time>2021-01-10T08:48:06Z</time>
      </trkpt>
      <trkpt lat="44.16407" lon="5.01527">
        <ele>282</ele>
        <time>2021-01-10T08:48:08Z</time>
      </trkpt>
      <trkpt lat="44.16404" lon="5.01526">
        <ele>282</ele>
        <time>2021-01-10T08:48:11Z</time>
      </trkpt>
      <trkpt lat="44.16403" lon="5.01525">
        <ele>283</ele>
        <time>2021-01-10T08:48:12Z</time>
      </trkpt>
      <trkpt lat="44.16399" lon="5.01517">
        <ele>286</ele>
        <time>2021-01-10T08:48:21Z</time>
      </trkpt>
      <trkpt lat="44.16387" lon="5.01501">
        <ele>292</ele>
        <time>2021-01-10T08:48:31Z</time>
      </trkpt>
      <trkpt lat="44.16387" lon="5.01498">
        <ele>293</ele>
        <time>2021-01-10T08:48:32Z</time>
      </trkpt>
      <trkpt lat="44.16385" lon="5.01496">
        <ele>293</ele>
        <time>2021-01-10T08:48:33Z</time>
      </trkpt>
      <trkpt lat="44.1638" lon="5.01493">
        <ele>295</ele>
        <time>2021-01-10T08:48:37Z</time>
      </trkpt>
      <trkpt lat="44.16378" lon="5.01492">
        <ele>295</ele>
        <time>2021-01-10T08:48:38Z</time>
      </trkpt>
      <trkpt lat="44.16377" lon="5.01491">
        <ele>296</ele>
        <time>2021-01-10T08:48:39Z</time>
      </trkpt>
      <trkpt lat="44.16374" lon="5.0148">
        <ele>299</ele>
        <time>2021-01-10T08:48:49Z</time>
      </trkpt>
      <trkpt lat="44.16387" lon="5.01468">
        <ele>299</ele>
        <time>2021-01-10T08:48:59Z</time>
      </trkpt>
      <trkpt lat="44.16394" lon="5.01466">
        <ele>299</ele>
        <time>2021-01-10T08:49:02Z</time>
      </trkpt>
      <trkpt lat="44.16412" lon="5.01471">
        <ele>296</ele>
        <time>2021-01-10T08:49:12Z</time>
      </trkpt>
      <trkpt lat="44.16414" lon="5.0147">
        <ele>296</ele>
        <time>2021-01-10T08:49:13Z</time>
      </trkpt>
      <trkpt lat="44.16416" lon="5.0147">
        <ele>296</ele>
        <time>2021-01-10T08:49:14Z</time>
      </trkpt>
      <trkpt lat="44.16418" lon="5.0147">
        <ele>295</ele>
        <time>2021-01-10T08:49:15Z</time>
      </trkpt>
      <trkpt lat="44.1642" lon="5.01471">
        <ele>295</ele>
        <time>2021-01-10T08:49:16Z</time>
      </trkpt>
      <trkpt lat="44.16421" lon="5.01471">
        <ele>295</ele>
        <time>2021-01-10T08:49:17Z</time>
      </trkpt>
      <trkpt lat="44.16423" lon="5.01472">
        <ele>295</ele>
        <time>2021-01-10T08:49:18Z</time>
      </trkpt>
      <trkpt lat="44.16424" lon="5.01472">
        <ele>294</ele>
        <time>2021-01-10T08:49:19Z</time>
      </trkpt>
      <trkpt lat="44.16428" lon="5.01472">
        <ele>294</ele>
        <time>2021-01-10T08:49:20Z</time>
      </trkpt>
      <trkpt lat="44.1643" lon="5.01472">
        <ele>294</ele>
        <time>2021-01-10T08:49:21Z</time>
      </trkpt>
      <trkpt lat="44.16437" lon="5.01467">
        <ele>295</ele>
        <time>2021-01-10T08:49:25Z</time>
      </trkpt>
      <trkpt lat="44.16444" lon="5.01447">
        <ele>299</ele>
        <time>2021-01-10T08:49:34Z</time>
      </trkpt>
      <trkpt lat="44.16447" lon="5.01444">
        <ele>298</ele>
        <time>2021-01-10T08:49:37Z</time>
      </trkpt>
      <trkpt lat="44.16449" lon="5.01442">
        <ele>298</ele>
        <time>2021-01-10T08:49:38Z</time>
      </trkpt>
      <trkpt lat="44.1645" lon="5.0144">
        <ele>298</ele>
        <time>2021-01-10T08:49:39Z</time>
      </trkpt>
      <trkpt lat="44.1645" lon="5.01438">
        <ele>299</ele>
        <time>2021-01-10T08:49:40Z</time>
      </trkpt>
      <trkpt lat="44.1645" lon="5.01436">
        <ele>299</ele>
        <time>2021-01-10T08:49:41Z</time>
      </trkpt>
      <trkpt lat="44.16454" lon="5.01423">
        <ele>301</ele>
        <time>2021-01-10T08:49:48Z</time>
      </trkpt>
      <trkpt lat="44.16465" lon="5.01402">
        <ele>301</ele>
        <time>2021-01-10T08:49:55Z</time>
      </trkpt>
      <trkpt lat="44.16467" lon="5.014">
        <ele>301</ele>
        <time>2021-01-10T08:49:56Z</time>
      </trkpt>
      <trkpt lat="44.16472" lon="5.01398">
        <ele>300</ele>
        <time>2021-01-10T08:49:59Z</time>
      </trkpt>
      <trkpt lat="44.16474" lon="5.01397">
        <ele>299</ele>
        <time>2021-01-10T08:50:00Z</time>
      </trkpt>
      <trkpt lat="44.16476" lon="5.01395">
        <ele>299</ele>
        <time>2021-01-10T08:50:01Z</time>
      </trkpt>
      <trkpt lat="44.16486" lon="5.01377">
        <ele>296</ele>
        <time>2021-01-10T08:50:10Z</time>
      </trkpt>
      <trkpt lat="44.16487" lon="5.01375">
        <ele>296</ele>
        <time>2021-01-10T08:50:11Z</time>
      </trkpt>
      <trkpt lat="44.16488" lon="5.01373">
        <ele>296</ele>
        <time>2021-01-10T08:50:12Z</time>
      </trkpt>
      <trkpt lat="44.16492" lon="5.0136">
        <ele>296</ele>
        <time>2021-01-10T08:50:17Z</time>
      </trkpt>
      <trkpt lat="44.16491" lon="5.01349">
        <ele>298</ele>
        <time>2021-01-10T08:50:21Z</time>
      </trkpt>
      <trkpt lat="44.16491" lon="5.01346">
        <ele>298</ele>
        <time>2021-01-10T08:50:22Z</time>
      </trkpt>
      <trkpt lat="44.16492" lon="5.01344">
        <ele>298</ele>
        <time>2021-01-10T08:50:23Z</time>
      </trkpt>
      <trkpt lat="44.16495" lon="5.0134">
        <ele>298</ele>
        <time>2021-01-10T08:50:25Z</time>
      </trkpt>
      <trkpt lat="44.16496" lon="5.01338">
        <ele>298</ele>
        <time>2021-01-10T08:50:26Z</time>
      </trkpt>
      <trkpt lat="44.16498" lon="5.01337">
        <ele>297</ele>
        <time>2021-01-10T08:50:27Z</time>
      </trkpt>
      <trkpt lat="44.165" lon="5.01335">
        <ele>297</ele>
        <time>2021-01-10T08:50:28Z</time>
      </trkpt>
      <trkpt lat="44.16502" lon="5.01334">
        <ele>296</ele>
        <time>2021-01-10T08:50:29Z</time>
      </trkpt>
      <trkpt lat="44.16503" lon="5.01332">
        <ele>296</ele>
        <time>2021-01-10T08:50:30Z</time>
      </trkpt>
      <trkpt lat="44.16505" lon="5.01329">
        <ele>296</ele>
        <time>2021-01-10T08:50:31Z</time>
      </trkpt>
      <trkpt lat="44.16524" lon="5.01311">
        <ele>292</ele>
        <time>2021-01-10T08:50:41Z</time>
      </trkpt>
      <trkpt lat="44.16541" lon="5.01297">
        <ele>290</ele>
        <time>2021-01-10T08:50:50Z</time>
      </trkpt>
      <trkpt lat="44.16544" lon="5.01293">
        <ele>289</ele>
        <time>2021-01-10T08:50:52Z</time>
      </trkpt>
      <trkpt lat="44.16548" lon="5.01272">
        <ele>291</ele>
        <time>2021-01-10T08:51:02Z</time>
      </trkpt>
      <trkpt lat="44.1655" lon="5.0127">
        <ele>290</ele>
        <time>2021-01-10T08:51:04Z</time>
      </trkpt>
      <trkpt lat="44.16549" lon="5.01253">
        <ele>292</ele>
        <time>2021-01-10T08:51:12Z</time>
      </trkpt>
      <trkpt lat="44.1655" lon="5.01251">
        <ele>292</ele>
        <time>2021-01-10T08:51:13Z</time>
      </trkpt>
      <trkpt lat="44.16551" lon="5.01249">
        <ele>292</ele>
        <time>2021-01-10T08:51:14Z</time>
      </trkpt>
      <trkpt lat="44.16552" lon="5.01246">
        <ele>292</ele>
        <time>2021-01-10T08:51:15Z</time>
      </trkpt>
      <trkpt lat="44.16552" lon="5.01243">
        <ele>292</ele>
        <time>2021-01-10T08:51:16Z</time>
      </trkpt>
      <trkpt lat="44.16553" lon="5.01241">
        <ele>292</ele>
        <time>2021-01-10T08:51:17Z</time>
      </trkpt>
      <trkpt lat="44.16554" lon="5.01238">
        <ele>292</ele>
        <time>2021-01-10T08:51:18Z</time>
      </trkpt>
      <trkpt lat="44.16555" lon="5.01235">
        <ele>292</ele>
        <time>2021-01-10T08:51:19Z</time>
      </trkpt>
      <trkpt lat="44.16556" lon="5.01232">
        <ele>292</ele>
        <time>2021-01-10T08:51:20Z</time>
      </trkpt>
      <trkpt lat="44.16558" lon="5.01226">
        <ele>292</ele>
        <time>2021-01-10T08:51:23Z</time>
      </trkpt>
      <trkpt lat="44.16559" lon="5.01224">
        <ele>292</ele>
        <time>2021-01-10T08:51:24Z</time>
      </trkpt>
      <trkpt lat="44.1656" lon="5.01222">
        <ele>292</ele>
        <time>2021-01-10T08:51:25Z</time>
      </trkpt>
      <trkpt lat="44.16569" lon="5.012">
        <ele>290</ele>
        <time>2021-01-10T08:51:34Z</time>
      </trkpt>
      <trkpt lat="44.16582" lon="5.01187">
        <ele>286</ele>
        <time>2021-01-10T08:51:42Z</time>
      </trkpt>
      <trkpt lat="44.16585" lon="5.01183">
        <ele>285</ele>
        <time>2021-01-10T08:51:44Z</time>
      </trkpt>
      <trkpt lat="44.16598" lon="5.01154">
        <ele>281</ele>
        <time>2021-01-10T08:51:56Z</time>
      </trkpt>
      <trkpt lat="44.16604" lon="5.01141">
        <ele>280</ele>
        <time>2021-01-10T08:52:01Z</time>
      </trkpt>
      <trkpt lat="44.16612" lon="5.01121">
        <ele>277</ele>
        <time>2021-01-10T08:52:10Z</time>
      </trkpt>
      <trkpt lat="44.16619" lon="5.01094">
        <ele>273</ele>
        <time>2021-01-10T08:52:20Z</time>
      </trkpt>
      <trkpt lat="44.16614" lon="5.01085">
        <ele>273</ele>
        <time>2021-01-10T08:52:27Z</time>
      </trkpt>
      <trkpt lat="44.16612" lon="5.01084">
        <ele>274</ele>
        <time>2021-01-10T08:52:28Z</time>
      </trkpt>
      <trkpt lat="44.16611" lon="5.01083">
        <ele>274</ele>
        <time>2021-01-10T08:52:29Z</time>
      </trkpt>
      <trkpt lat="44.16605" lon="5.01073">
        <ele>275</ele>
        <time>2021-01-10T08:52:35Z</time>
      </trkpt>
      <trkpt lat="44.16603" lon="5.01072">
        <ele>275</ele>
        <time>2021-01-10T08:52:36Z</time>
      </trkpt>
      <trkpt lat="44.16601" lon="5.01072">
        <ele>276</ele>
        <time>2021-01-10T08:52:37Z</time>
      </trkpt>
      <trkpt lat="44.16595" lon="5.01071">
        <ele>278</ele>
        <time>2021-01-10T08:52:45Z</time>
      </trkpt>
      <trkpt lat="44.16592" lon="5.01068">
        <ele>279</ele>
        <time>2021-01-10T08:52:56Z</time>
      </trkpt>
      <trkpt lat="44.16591" lon="5.01069">
        <ele>279</ele>
        <time>2021-01-10T08:52:57Z</time>
      </trkpt>
      <trkpt lat="44.1659" lon="5.0107">
        <ele>280</ele>
        <time>2021-01-10T08:52:58Z</time>
      </trkpt>
      <trkpt lat="44.16589" lon="5.0107">
        <ele>280</ele>
        <time>2021-01-10T08:52:59Z</time>
      </trkpt>
      <trkpt lat="44.16587" lon="5.01073">
        <ele>281</ele>
        <time>2021-01-10T08:53:01Z</time>
      </trkpt>
      <trkpt lat="44.16586" lon="5.01082">
        <ele>283</ele>
        <time>2021-01-10T08:53:10Z</time>
      </trkpt>
      <trkpt lat="44.16585" lon="5.01089">
        <ele>284</ele>
        <time>2021-01-10T08:53:17Z</time>
      </trkpt>
      <trkpt lat="44.16585" lon="5.01091">
        <ele>284</ele>
        <time>2021-01-10T08:53:18Z</time>
      </trkpt>
      <trkpt lat="44.16585" lon="5.01092">
        <ele>285</ele>
        <time>2021-01-10T08:53:19Z</time>
      </trkpt>
      <trkpt lat="44.16584" lon="5.01095">
        <ele>285</ele>
        <time>2021-01-10T08:53:21Z</time>
      </trkpt>
      <trkpt lat="44.1658" lon="5.01103">
        <ele>288</ele>
        <time>2021-01-10T08:53:29Z</time>
      </trkpt>
      <trkpt lat="44.16578" lon="5.01107">
        <ele>290</ele>
        <time>2021-01-10T08:53:32Z</time>
      </trkpt>
      <trkpt lat="44.16571" lon="5.01109">
        <ele>293</ele>
        <time>2021-01-10T08:53:41Z</time>
      </trkpt>
      <trkpt lat="44.16571" lon="5.01111">
        <ele>293</ele>
        <time>2021-01-10T08:53:55Z</time>
      </trkpt>
      <trkpt lat="44.16565" lon="5.01111">
        <ele>296</ele>
        <time>2021-01-10T08:54:04Z</time>
      </trkpt>
      <trkpt lat="44.16561" lon="5.01113">
        <ele>298</ele>
        <time>2021-01-10T08:54:09Z</time>
      </trkpt>
      <trkpt lat="44.16553" lon="5.01119">
        <ele>301</ele>
        <time>2021-01-10T08:54:16Z</time>
      </trkpt>
      <trkpt lat="44.16547" lon="5.01127">
        <ele>303</ele>
        <time>2021-01-10T08:54:24Z</time>
      </trkpt>
      <trkpt lat="44.16545" lon="5.01131">
        <ele>304</ele>
        <time>2021-01-10T08:54:27Z</time>
      </trkpt>
      <trkpt lat="44.16539" lon="5.01136">
        <ele>306</ele>
        <time>2021-01-10T08:54:33Z</time>
      </trkpt>
      <trkpt lat="44.16529" lon="5.01142">
        <ele>310</ele>
        <time>2021-01-10T08:54:43Z</time>
      </trkpt>
      <trkpt lat="44.16525" lon="5.01144">
        <ele>310</ele>
        <time>2021-01-10T08:54:49Z</time>
      </trkpt>
      <trkpt lat="44.16516" lon="5.01155">
        <ele>312</ele>
        <time>2021-01-10T08:54:59Z</time>
      </trkpt>
      <trkpt lat="44.16504" lon="5.01159">
        <ele>314</ele>
        <time>2021-01-10T08:55:08Z</time>
      </trkpt>
      <trkpt lat="44.165" lon="5.01162">
        <ele>315</ele>
        <time>2021-01-10T08:55:12Z</time>
      </trkpt>
      <trkpt lat="44.16493" lon="5.01165">
        <ele>317</ele>
        <time>2021-01-10T08:55:17Z</time>
      </trkpt>
      <trkpt lat="44.16484" lon="5.01174">
        <ele>319</ele>
        <time>2021-01-10T08:55:27Z</time>
      </trkpt>
      <trkpt lat="44.16479" lon="5.0118">
        <ele>321</ele>
        <time>2021-01-10T08:55:33Z</time>
      </trkpt>
      <trkpt lat="44.16471" lon="5.0119">
        <ele>324</ele>
        <time>2021-01-10T08:55:43Z</time>
      </trkpt>
      <trkpt lat="44.16463" lon="5.01198">
        <ele>326</ele>
        <time>2021-01-10T08:55:52Z</time>
      </trkpt>
      <trkpt lat="44.16458" lon="5.01202">
        <ele>328</ele>
        <time>2021-01-10T08:55:55Z</time>
      </trkpt>
      <trkpt lat="44.16445" lon="5.01211">
        <ele>332</ele>
        <time>2021-01-10T08:56:02Z</time>
      </trkpt>
      <trkpt lat="44.16435" lon="5.01215">
        <ele>334</ele>
        <time>2021-01-10T08:56:11Z</time>
      </trkpt>
      <trkpt lat="44.16427" lon="5.0122">
        <ele>336</ele>
        <time>2021-01-10T08:56:21Z</time>
      </trkpt>
      <trkpt lat="44.16425" lon="5.01222">
        <ele>337</ele>
        <time>2021-01-10T08:56:23Z</time>
      </trkpt>
      <trkpt lat="44.16422" lon="5.01225">
        <ele>338</ele>
        <time>2021-01-10T08:56:33Z</time>
      </trkpt>
      <trkpt lat="44.16423" lon="5.01224">
        <ele>338</ele>
        <time>2021-01-10T08:56:45Z</time>
      </trkpt>
      <trkpt lat="44.16422" lon="5.01226">
        <ele>338</ele>
        <time>2021-01-10T08:56:58Z</time>
      </trkpt>
      <trkpt lat="44.16416" lon="5.01234">
        <ele>339</ele>
        <time>2021-01-10T08:57:09Z</time>
      </trkpt>
      <trkpt lat="44.16416" lon="5.01235">
        <ele>339</ele>
        <time>2021-01-10T08:57:10Z</time>
      </trkpt>
      <trkpt lat="44.16408" lon="5.01244">
        <ele>339</ele>
        <time>2021-01-10T08:57:21Z</time>
      </trkpt>
      <trkpt lat="44.16408" lon="5.01246">
        <ele>339</ele>
        <time>2021-01-10T08:57:22Z</time>
      </trkpt>
      <trkpt lat="44.164" lon="5.01255">
        <ele>340</ele>
        <time>2021-01-10T08:57:32Z</time>
      </trkpt>
      <trkpt lat="44.16397" lon="5.01258">
        <ele>341</ele>
        <time>2021-01-10T08:57:35Z</time>
      </trkpt>
      <trkpt lat="44.16395" lon="5.0126">
        <ele>341</ele>
        <time>2021-01-10T08:57:36Z</time>
      </trkpt>
      <trkpt lat="44.16394" lon="5.01261">
        <ele>341</ele>
        <time>2021-01-10T08:57:37Z</time>
      </trkpt>
      <trkpt lat="44.16381" lon="5.01267">
        <ele>343</ele>
        <time>2021-01-10T08:57:46Z</time>
      </trkpt>
      <trkpt lat="44.16371" lon="5.01268">
        <ele>344</ele>
        <time>2021-01-10T08:57:52Z</time>
      </trkpt>
      <trkpt lat="44.16359" lon="5.01269">
        <ele>346</ele>
        <time>2021-01-10T08:58:01Z</time>
      </trkpt>
      <trkpt lat="44.16349" lon="5.0127">
        <ele>348</ele>
        <time>2021-01-10T08:58:09Z</time>
      </trkpt>
      <trkpt lat="44.16343" lon="5.01272">
        <ele>350</ele>
        <time>2021-01-10T08:58:14Z</time>
      </trkpt>
      <trkpt lat="44.16333" lon="5.01274">
        <ele>352</ele>
        <time>2021-01-10T08:58:21Z</time>
      </trkpt>
      <trkpt lat="44.16332" lon="5.01275">
        <ele>352</ele>
        <time>2021-01-10T08:58:22Z</time>
      </trkpt>
      <trkpt lat="44.16332" lon="5.01276">
        <ele>353</ele>
        <time>2021-01-10T08:58:23Z</time>
      </trkpt>
      <trkpt lat="44.16327" lon="5.01282">
        <ele>354</ele>
        <time>2021-01-10T08:58:33Z</time>
      </trkpt>
      <trkpt lat="44.16326" lon="5.01281">
        <ele>354</ele>
        <time>2021-01-10T08:58:34Z</time>
      </trkpt>
      <trkpt lat="44.16324" lon="5.01279">
        <ele>355</ele>
        <time>2021-01-10T08:58:36Z</time>
      </trkpt>
      <trkpt lat="44.16323" lon="5.01278">
        <ele>356</ele>
        <time>2021-01-10T08:58:37Z</time>
      </trkpt>
      <trkpt lat="44.16321" lon="5.01276">
        <ele>356</ele>
        <time>2021-01-10T08:58:38Z</time>
      </trkpt>
      <trkpt lat="44.16316" lon="5.01272">
        <ele>358</ele>
        <time>2021-01-10T08:58:48Z</time>
      </trkpt>
      <trkpt lat="44.16313" lon="5.01272">
        <ele>359</ele>
        <time>2021-01-10T08:59:03Z</time>
      </trkpt>
      <trkpt lat="44.16309" lon="5.01275">
        <ele>361</ele>
        <time>2021-01-10T08:59:08Z</time>
      </trkpt>
      <trkpt lat="44.16299" lon="5.01284">
        <ele>364</ele>
        <time>2021-01-10T08:59:26Z</time>
      </trkpt>
      <trkpt lat="44.16295" lon="5.01287">
        <ele>366</ele>
        <time>2021-01-10T08:59:34Z</time>
      </trkpt>
      <trkpt lat="44.16294" lon="5.01288">
        <ele>366</ele>
        <time>2021-01-10T08:59:35Z</time>
      </trkpt>
      <trkpt lat="44.16292" lon="5.01302">
        <ele>365</ele>
        <time>2021-01-10T08:59:43Z</time>
      </trkpt>
      <trkpt lat="44.16287" lon="5.0132">
        <ele>364</ele>
        <time>2021-01-10T08:59:56Z</time>
      </trkpt>
      <trkpt lat="44.16279" lon="5.01336">
        <ele>364</ele>
        <time>2021-01-10T09:00:07Z</time>
      </trkpt>
      <trkpt lat="44.16279" lon="5.01341">
        <ele>363</ele>
        <time>2021-01-10T09:00:11Z</time>
      </trkpt>
      <trkpt lat="44.16279" lon="5.01344">
        <ele>363</ele>
        <time>2021-01-10T09:00:13Z</time>
      </trkpt>
      <trkpt lat="44.16275" lon="5.01355">
        <ele>361</ele>
        <time>2021-01-10T09:00:21Z</time>
      </trkpt>
      <trkpt lat="44.16274" lon="5.01356">
        <ele>361</ele>
        <time>2021-01-10T09:00:22Z</time>
      </trkpt>
      <trkpt lat="44.16273" lon="5.01358">
        <ele>361</ele>
        <time>2021-01-10T09:00:23Z</time>
      </trkpt>
      <trkpt lat="44.16264" lon="5.01375">
        <ele>360</ele>
        <time>2021-01-10T09:00:34Z</time>
      </trkpt>
      <trkpt lat="44.16251" lon="5.01379">
        <ele>363</ele>
        <time>2021-01-10T09:00:41Z</time>
      </trkpt>
      <trkpt lat="44.16249" lon="5.01379">
        <ele>363</ele>
        <time>2021-01-10T09:00:42Z</time>
      </trkpt>
      <trkpt lat="44.16243" lon="5.01381">
        <ele>363</ele>
        <time>2021-01-10T09:00:45Z</time>
      </trkpt>
      <trkpt lat="44.16241" lon="5.01381">
        <ele>363</ele>
        <time>2021-01-10T09:00:46Z</time>
      </trkpt>
      <trkpt lat="44.1624" lon="5.01382">
        <ele>363</ele>
        <time>2021-01-10T09:00:47Z</time>
      </trkpt>
      <trkpt lat="44.16238" lon="5.01383">
        <ele>363</ele>
        <time>2021-01-10T09:00:48Z</time>
      </trkpt>
      <trkpt lat="44.16237" lon="5.01384">
        <ele>363</ele>
        <time>2021-01-10T09:00:49Z</time>
      </trkpt>
      <trkpt lat="44.16235" lon="5.01384">
        <ele>363</ele>
        <time>2021-01-10T09:00:50Z</time>
      </trkpt>
      <trkpt lat="44.16233" lon="5.01385">
        <ele>363</ele>
        <time>2021-01-10T09:00:51Z</time>
      </trkpt>
      <trkpt lat="44.16231" lon="5.01385">
        <ele>363</ele>
        <time>2021-01-10T09:00:52Z</time>
      </trkpt>
      <trkpt lat="44.16213" lon="5.01387">
        <ele>362</ele>
        <time>2021-01-10T09:01:01Z</time>
      </trkpt>
      <trkpt lat="44.1619" lon="5.01386">
        <ele>363</ele>
        <time>2021-01-10T09:01:13Z</time>
      </trkpt>
      <trkpt lat="44.16181" lon="5.01389">
        <ele>363</ele>
        <time>2021-01-10T09:01:23Z</time>
      </trkpt>
      <trkpt lat="44.1618" lon="5.01389">
        <ele>363</ele>
        <time>2021-01-10T09:01:25Z</time>
      </trkpt>
      <trkpt lat="44.16175" lon="5.01392">
        <ele>363</ele>
        <time>2021-01-10T09:01:37Z</time>
      </trkpt>
      <trkpt lat="44.16167" lon="5.01396">
        <ele>363</ele>
        <time>2021-01-10T09:01:50Z</time>
      </trkpt>
      <trkpt lat="44.16164" lon="5.01392">
        <ele>365</ele>
        <time>2021-01-10T09:01:59Z</time>
      </trkpt>
      <trkpt lat="44.16163" lon="5.01389">
        <ele>366</ele>
        <time>2021-01-10T09:02:01Z</time>
      </trkpt>
      <trkpt lat="44.1616" lon="5.0139">
        <ele>366</ele>
        <time>2021-01-10T09:02:08Z</time>
      </trkpt>
      <trkpt lat="44.16158" lon="5.01393">
        <ele>365</ele>
        <time>2021-01-10T09:02:10Z</time>
      </trkpt>
      <trkpt lat="44.16156" lon="5.01398">
        <ele>365</ele>
        <time>2021-01-10T09:02:21Z</time>
      </trkpt>
      <trkpt lat="44.16153" lon="5.01397">
        <ele>365</ele>
        <time>2021-01-10T09:02:38Z</time>
      </trkpt>
      <trkpt lat="44.16152" lon="5.01396">
        <ele>366</ele>
        <time>2021-01-10T09:02:39Z</time>
      </trkpt>
      <trkpt lat="44.16148" lon="5.01393">
        <ele>367</ele>
        <time>2021-01-10T09:02:49Z</time>
      </trkpt>
      <trkpt lat="44.16147" lon="5.01392">
        <ele>368</ele>
        <time>2021-01-10T09:02:50Z</time>
      </trkpt>
      <trkpt lat="44.16145" lon="5.01391">
        <ele>368</ele>
        <time>2021-01-10T09:02:51Z</time>
      </trkpt>
      <trkpt lat="44.16125" lon="5.01374">
        <ele>372</ele>
        <time>2021-01-10T09:03:02Z</time>
      </trkpt>
      <trkpt lat="44.1611" lon="5.01361">
        <ele>373</ele>
        <time>2021-01-10T09:03:10Z</time>
      </trkpt>
      <trkpt lat="44.1609" lon="5.0134">
        <ele>380</ele>
        <time>2021-01-10T09:03:21Z</time>
      </trkpt>
      <trkpt lat="44.16088" lon="5.01339">
        <ele>380</ele>
        <time>2021-01-10T09:03:22Z</time>
      </trkpt>
      <trkpt lat="44.16083" lon="5.01338">
        <ele>380</ele>
        <time>2021-01-10T09:03:26Z</time>
      </trkpt>
      <trkpt lat="44.16082" lon="5.01339">
        <ele>380</ele>
        <time>2021-01-10T09:03:27Z</time>
      </trkpt>
      <trkpt lat="44.16081" lon="5.01341">
        <ele>380</ele>
        <time>2021-01-10T09:03:29Z</time>
      </trkpt>
      <trkpt lat="44.16076" lon="5.01347">
        <ele>379</ele>
        <time>2021-01-10T09:03:35Z</time>
      </trkpt>
      <trkpt lat="44.16075" lon="5.0135">
        <ele>379</ele>
        <time>2021-01-10T09:03:36Z</time>
      </trkpt>
      <trkpt lat="44.16074" lon="5.01353">
        <ele>379</ele>
        <time>2021-01-10T09:03:37Z</time>
      </trkpt>
      <trkpt lat="44.16073" lon="5.01355">
        <ele>378</ele>
        <time>2021-01-10T09:03:38Z</time>
      </trkpt>
      <trkpt lat="44.16072" lon="5.01358">
        <ele>378</ele>
        <time>2021-01-10T09:03:39Z</time>
      </trkpt>
      <trkpt lat="44.16069" lon="5.0136">
        <ele>378</ele>
        <time>2021-01-10T09:03:45Z</time>
      </trkpt>
      <trkpt lat="44.16068" lon="5.01356">
        <ele>380</ele>
        <time>2021-01-10T09:03:49Z</time>
      </trkpt>
      <trkpt lat="44.16068" lon="5.0135">
        <ele>381</ele>
        <time>2021-01-10T09:03:53Z</time>
      </trkpt>
      <trkpt lat="44.16071" lon="5.01329">
        <ele>385</ele>
        <time>2021-01-10T09:04:03Z</time>
      </trkpt>
      <trkpt lat="44.16073" lon="5.01304">
        <ele>387</ele>
        <time>2021-01-10T09:04:14Z</time>
      </trkpt>
      <trkpt lat="44.16072" lon="5.01293">
        <ele>387</ele>
        <time>2021-01-10T09:04:18Z</time>
      </trkpt>
      <trkpt lat="44.1607" lon="5.01292">
        <ele>387</ele>
        <time>2021-01-10T09:04:19Z</time>
      </trkpt>
      <trkpt lat="44.16069" lon="5.01292">
        <ele>387</ele>
        <time>2021-01-10T09:04:22Z</time>
      </trkpt>
      <trkpt lat="44.16068" lon="5.01302">
        <ele>388</ele>
        <time>2021-01-10T09:04:29Z</time>
      </trkpt>
      <trkpt lat="44.16065" lon="5.01309">
        <ele>388</ele>
        <time>2021-01-10T09:04:37Z</time>
      </trkpt>
      <trkpt lat="44.16061" lon="5.01316">
        <ele>388</ele>
        <time>2021-01-10T09:04:41Z</time>
      </trkpt>
      <trkpt lat="44.1606" lon="5.01317">
        <ele>388</ele>
        <time>2021-01-10T09:04:42Z</time>
      </trkpt>
      <trkpt lat="44.16059" lon="5.01319">
        <ele>388</ele>
        <time>2021-01-10T09:04:43Z</time>
      </trkpt>
      <trkpt lat="44.16046" lon="5.01332">
        <ele>390</ele>
        <time>2021-01-10T09:04:52Z</time>
      </trkpt>
      <trkpt lat="44.16044" lon="5.01332">
        <ele>390</ele>
        <time>2021-01-10T09:04:53Z</time>
      </trkpt>
      <trkpt lat="44.16042" lon="5.01331">
        <ele>390</ele>
        <time>2021-01-10T09:04:55Z</time>
      </trkpt>
      <trkpt lat="44.16039" lon="5.0133">
        <ele>391</ele>
        <time>2021-01-10T09:05:15Z</time>
      </trkpt>
      <trkpt lat="44.16034" lon="5.01329">
        <ele>392</ele>
        <time>2021-01-10T09:06:30Z</time>
      </trkpt>
      <trkpt lat="44.16033" lon="5.01327">
        <ele>393</ele>
        <time>2021-01-10T09:06:31Z</time>
      </trkpt>
      <trkpt lat="44.16032" lon="5.01325">
        <ele>393</ele>
        <time>2021-01-10T09:06:32Z</time>
      </trkpt>
      <trkpt lat="44.16031" lon="5.01324">
        <ele>394</ele>
        <time>2021-01-10T09:06:33Z</time>
      </trkpt>
      <trkpt lat="44.1603" lon="5.01322">
        <ele>394</ele>
        <time>2021-01-10T09:06:34Z</time>
      </trkpt>
      <trkpt lat="44.16029" lon="5.0132">
        <ele>395</ele>
        <time>2021-01-10T09:06:35Z</time>
      </trkpt>
      <trkpt lat="44.16028" lon="5.01319">
        <ele>396</ele>
        <time>2021-01-10T09:06:36Z</time>
      </trkpt>
      <trkpt lat="44.16027" lon="5.01317">
        <ele>396</ele>
        <time>2021-01-10T09:06:37Z</time>
      </trkpt>
      <trkpt lat="44.16026" lon="5.01315">
        <ele>396</ele>
        <time>2021-01-10T09:06:38Z</time>
      </trkpt>
      <trkpt lat="44.16019" lon="5.013">
        <ele>398</ele>
        <time>2021-01-10T09:06:45Z</time>
      </trkpt>
      <trkpt lat="44.16006" lon="5.01283">
        <ele>399</ele>
        <time>2021-01-10T09:06:54Z</time>
      </trkpt>
      <trkpt lat="44.15995" lon="5.01271">
        <ele>400</ele>
        <time>2021-01-10T09:07:04Z</time>
      </trkpt>
      <trkpt lat="44.15995" lon="5.01264">
        <ele>401</ele>
        <time>2021-01-10T09:07:09Z</time>
      </trkpt>
      <trkpt lat="44.15994" lon="5.01262">
        <ele>401</ele>
        <time>2021-01-10T09:07:10Z</time>
      </trkpt>
      <trkpt lat="44.15993" lon="5.0126">
        <ele>401</ele>
        <time>2021-01-10T09:07:11Z</time>
      </trkpt>
      <trkpt lat="44.15992" lon="5.01258">
        <ele>402</ele>
        <time>2021-01-10T09:07:12Z</time>
      </trkpt>
      <trkpt lat="44.15991" lon="5.01256">
        <ele>402</ele>
        <time>2021-01-10T09:07:13Z</time>
      </trkpt>
      <trkpt lat="44.15988" lon="5.0124">
        <ele>403</ele>
        <time>2021-01-10T09:07:22Z</time>
      </trkpt>
      <trkpt lat="44.15987" lon="5.01239">
        <ele>404</ele>
        <time>2021-01-10T09:07:23Z</time>
      </trkpt>
      <trkpt lat="44.15982" lon="5.01232">
        <ele>405</ele>
        <time>2021-01-10T09:07:29Z</time>
      </trkpt>
      <trkpt lat="44.15981" lon="5.0123">
        <ele>406</ele>
        <time>2021-01-10T09:07:30Z</time>
      </trkpt>
      <trkpt lat="44.15979" lon="5.01228">
        <ele>406</ele>
        <time>2021-01-10T09:07:32Z</time>
      </trkpt>
      <trkpt lat="44.15978" lon="5.01227">
        <ele>407</ele>
        <time>2021-01-10T09:07:33Z</time>
      </trkpt>
      <trkpt lat="44.15969" lon="5.01212">
        <ele>409</ele>
        <time>2021-01-10T09:07:44Z</time>
      </trkpt>
      <trkpt lat="44.15957" lon="5.01196">
        <ele>412</ele>
        <time>2021-01-10T09:07:53Z</time>
      </trkpt>
      <trkpt lat="44.15945" lon="5.01177">
        <ele>415</ele>
        <time>2021-01-10T09:08:04Z</time>
      </trkpt>
      <trkpt lat="44.1593" lon="5.01156">
        <ele>420</ele>
        <time>2021-01-10T09:08:16Z</time>
      </trkpt>
      <trkpt lat="44.15918" lon="5.01146">
        <ele>424</ele>
        <time>2021-01-10T09:08:25Z</time>
      </trkpt>
      <trkpt lat="44.15907" lon="5.01134">
        <ele>428</ele>
        <time>2021-01-10T09:08:33Z</time>
      </trkpt>
      <trkpt lat="44.15907" lon="5.01133">
        <ele>428</ele>
        <time>2021-01-10T09:08:34Z</time>
      </trkpt>
      <trkpt lat="44.15897" lon="5.01114">
        <ele>429</ele>
        <time>2021-01-10T09:08:45Z</time>
      </trkpt>
      <trkpt lat="44.15888" lon="5.01092">
        <ele>428</ele>
        <time>2021-01-10T09:08:54Z</time>
      </trkpt>
      <trkpt lat="44.15886" lon="5.01091">
        <ele>428</ele>
        <time>2021-01-10T09:08:55Z</time>
      </trkpt>
      <trkpt lat="44.15885" lon="5.0109">
        <ele>428</ele>
        <time>2021-01-10T09:08:56Z</time>
      </trkpt>
      <trkpt lat="44.15873" lon="5.01063">
        <ele>426</ele>
        <time>2021-01-10T09:09:08Z</time>
      </trkpt>
      <trkpt lat="44.15863" lon="5.01038">
        <ele>423</ele>
        <time>2021-01-10T09:09:15Z</time>
      </trkpt>
      <trkpt lat="44.15861" lon="5.01035">
        <ele>424</ele>
        <time>2021-01-10T09:09:16Z</time>
      </trkpt>
      <trkpt lat="44.15859" lon="5.01033">
        <ele>424</ele>
        <time>2021-01-10T09:09:17Z</time>
      </trkpt>
      <trkpt lat="44.15851" lon="5.01012">
        <ele>421</ele>
        <time>2021-01-10T09:09:25Z</time>
      </trkpt>
      <trkpt lat="44.15845" lon="5.01002">
        <ele>420</ele>
        <time>2021-01-10T09:09:29Z</time>
      </trkpt>
      <trkpt lat="44.15839" lon="5.00997">
        <ele>419</ele>
        <time>2021-01-10T09:09:33Z</time>
      </trkpt>
      <trkpt lat="44.15837" lon="5.00995">
        <ele>419</ele>
        <time>2021-01-10T09:09:34Z</time>
      </trkpt>
      <trkpt lat="44.15825" lon="5.0098">
        <ele>416</ele>
        <time>2021-01-10T09:09:42Z</time>
      </trkpt>
      <trkpt lat="44.15818" lon="5.00972">
        <ele>414</ele>
        <time>2021-01-10T09:09:48Z</time>
      </trkpt>
      <trkpt lat="44.15817" lon="5.0097">
        <ele>414</ele>
        <time>2021-01-10T09:09:49Z</time>
      </trkpt>
      <trkpt lat="44.15815" lon="5.00969">
        <ele>413</ele>
        <time>2021-01-10T09:09:50Z</time>
      </trkpt>
      <trkpt lat="44.15811" lon="5.00967">
        <ele>413</ele>
        <time>2021-01-10T09:09:52Z</time>
      </trkpt>
      <trkpt lat="44.15799" lon="5.00959">
        <ele>410</ele>
        <time>2021-01-10T09:09:58Z</time>
      </trkpt>
      <trkpt lat="44.15797" lon="5.00957">
        <ele>410</ele>
        <time>2021-01-10T09:09:59Z</time>
      </trkpt>
      <trkpt lat="44.15772" lon="5.00953">
        <ele>405</ele>
        <time>2021-01-10T09:10:10Z</time>
      </trkpt>
      <trkpt lat="44.1577" lon="5.00955">
        <ele>405</ele>
        <time>2021-01-10T09:10:11Z</time>
      </trkpt>
      <trkpt lat="44.15768" lon="5.00959">
        <ele>406</ele>
        <time>2021-01-10T09:10:13Z</time>
      </trkpt>
      <trkpt lat="44.15757" lon="5.00969">
        <ele>405</ele>
        <time>2021-01-10T09:10:20Z</time>
      </trkpt>
      <trkpt lat="44.15746" lon="5.00979">
        <ele>405</ele>
        <time>2021-01-10T09:10:27Z</time>
      </trkpt>
      <trkpt lat="44.15736" lon="5.0099">
        <ele>405</ele>
        <time>2021-01-10T09:10:35Z</time>
      </trkpt>
      <trkpt lat="44.15731" lon="5.01001">
        <ele>406</ele>
        <time>2021-01-10T09:10:42Z</time>
      </trkpt>
      <trkpt lat="44.15728" lon="5.0102">
        <ele>413</ele>
        <time>2021-01-10T09:10:52Z</time>
      </trkpt>
      <trkpt lat="44.15728" lon="5.01038">
        <ele>420</ele>
        <time>2021-01-10T09:11:05Z</time>
      </trkpt>
      <trkpt lat="44.15728" lon="5.0104">
        <ele>421</ele>
        <time>2021-01-10T09:11:06Z</time>
      </trkpt>
      <trkpt lat="44.15728" lon="5.01043">
        <ele>422</ele>
        <time>2021-01-10T09:11:07Z</time>
      </trkpt>
      <trkpt lat="44.15728" lon="5.0106">
        <ele>427</ele>
        <time>2021-01-10T09:11:17Z</time>
      </trkpt>
      <trkpt lat="44.15727" lon="5.01064">
        <ele>427</ele>
        <time>2021-01-10T09:11:19Z</time>
      </trkpt>
      <trkpt lat="44.15727" lon="5.01066">
        <ele>427</ele>
        <time>2021-01-10T09:11:20Z</time>
      </trkpt>
      <trkpt lat="44.15724" lon="5.01076">
        <ele>428</ele>
        <time>2021-01-10T09:11:27Z</time>
      </trkpt>
      <trkpt lat="44.1572" lon="5.01101">
        <ele>431</ele>
        <time>2021-01-10T09:11:39Z</time>
      </trkpt>
      <trkpt lat="44.15718" lon="5.01122">
        <ele>433</ele>
        <time>2021-01-10T09:11:49Z</time>
      </trkpt>
      <trkpt lat="44.15716" lon="5.01117">
        <ele>433</ele>
        <time>2021-01-10T09:12:03Z</time>
      </trkpt>
      <trkpt lat="44.15715" lon="5.01115">
        <ele>433</ele>
        <time>2021-01-10T09:12:19Z</time>
      </trkpt>
      <trkpt lat="44.15714" lon="5.01114">
        <ele>433</ele>
        <time>2021-01-10T09:12:38Z</time>
      </trkpt>
      <trkpt lat="44.15712" lon="5.01113">
        <ele>434</ele>
        <time>2021-01-10T09:12:39Z</time>
      </trkpt>
      <trkpt lat="44.15708" lon="5.01107">
        <ele>433</ele>
        <time>2021-01-10T09:12:45Z</time>
      </trkpt>
      <trkpt lat="44.15707" lon="5.01106">
        <ele>433</ele>
        <time>2021-01-10T09:12:46Z</time>
      </trkpt>
      <trkpt lat="44.15693" lon="5.01093">
        <ele>431</ele>
        <time>2021-01-10T09:12:56Z</time>
      </trkpt>
      <trkpt lat="44.15668" lon="5.01074">
        <ele>429</ele>
        <time>2021-01-10T09:13:08Z</time>
      </trkpt>
      <trkpt lat="44.15646" lon="5.01055">
        <ele>426</ele>
        <time>2021-01-10T09:13:18Z</time>
      </trkpt>
      <trkpt lat="44.15625" lon="5.01035">
        <ele>421</ele>
        <time>2021-01-10T09:13:29Z</time>
      </trkpt>
      <trkpt lat="44.15601" lon="5.01025">
        <ele>419</ele>
        <time>2021-01-10T09:13:40Z</time>
      </trkpt>
      <trkpt lat="44.15595" lon="5.01022">
        <ele>419</ele>
        <time>2021-01-10T09:13:43Z</time>
      </trkpt>
      <trkpt lat="44.15594" lon="5.0102">
        <ele>419</ele>
        <time>2021-01-10T09:13:44Z</time>
      </trkpt>
      <trkpt lat="44.15594" lon="5.01018">
        <ele>419</ele>
        <time>2021-01-10T09:13:45Z</time>
      </trkpt>
      <trkpt lat="44.15594" lon="5.01015">
        <ele>418</ele>
        <time>2021-01-10T09:13:46Z</time>
      </trkpt>
      <trkpt lat="44.15594" lon="5.01012">
        <ele>418</ele>
        <time>2021-01-10T09:13:47Z</time>
      </trkpt>
      <trkpt lat="44.15595" lon="5.01008">
        <ele>418</ele>
        <time>2021-01-10T09:13:49Z</time>
      </trkpt>
      <trkpt lat="44.15596" lon="5.01007">
        <ele>417</ele>
        <time>2021-01-10T09:13:50Z</time>
      </trkpt>
      <trkpt lat="44.15597" lon="5.01005">
        <ele>417</ele>
        <time>2021-01-10T09:13:51Z</time>
      </trkpt>
      <trkpt lat="44.15598" lon="5.01002">
        <ele>417</ele>
        <time>2021-01-10T09:13:52Z</time>
      </trkpt>
      <trkpt lat="44.15599" lon="5.01">
        <ele>416</ele>
        <time>2021-01-10T09:13:53Z</time>
      </trkpt>
      <trkpt lat="44.156" lon="5.00997">
        <ele>416</ele>
        <time>2021-01-10T09:13:54Z</time>
      </trkpt>
      <trkpt lat="44.156" lon="5.00995">
        <ele>417</ele>
        <time>2021-01-10T09:13:55Z</time>
      </trkpt>
      <trkpt lat="44.15613" lon="5.00978">
        <ele>415</ele>
        <time>2021-01-10T09:14:04Z</time>
      </trkpt>
      <trkpt lat="44.15619" lon="5.00973">
        <ele>413</ele>
        <time>2021-01-10T09:14:08Z</time>
      </trkpt>
      <trkpt lat="44.15626" lon="5.00968">
        <ele>411</ele>
        <time>2021-01-10T09:14:12Z</time>
      </trkpt>
      <trkpt lat="44.1563" lon="5.00962">
        <ele>410</ele>
        <time>2021-01-10T09:14:15Z</time>
      </trkpt>
      <trkpt lat="44.15636" lon="5.00957">
        <ele>408</ele>
        <time>2021-01-10T09:14:19Z</time>
      </trkpt>
      <trkpt lat="44.1564" lon="5.00952">
        <ele>407</ele>
        <time>2021-01-10T09:14:22Z</time>
      </trkpt>
      <trkpt lat="44.15645" lon="5.00944">
        <ele>405</ele>
        <time>2021-01-10T09:14:26Z</time>
      </trkpt>
      <trkpt lat="44.15646" lon="5.00942">
        <ele>404</ele>
        <time>2021-01-10T09:14:27Z</time>
      </trkpt>
      <trkpt lat="44.15654" lon="5.00924">
        <ele>401</ele>
        <time>2021-01-10T09:14:34Z</time>
      </trkpt>
      <trkpt lat="44.1566" lon="5.00912">
        <ele>399</ele>
        <time>2021-01-10T09:14:39Z</time>
      </trkpt>
      <trkpt lat="44.15661" lon="5.00909">
        <ele>398</ele>
        <time>2021-01-10T09:14:40Z</time>
      </trkpt>
      <trkpt lat="44.15667" lon="5.00898">
        <ele>394</ele>
        <time>2021-01-10T09:14:45Z</time>
      </trkpt>
      <trkpt lat="44.15669" lon="5.00893">
        <ele>393</ele>
        <time>2021-01-10T09:14:47Z</time>
      </trkpt>
      <trkpt lat="44.15671" lon="5.00889">
        <ele>392</ele>
        <time>2021-01-10T09:14:49Z</time>
      </trkpt>
      <trkpt lat="44.15671" lon="5.00886">
        <ele>391</ele>
        <time>2021-01-10T09:14:50Z</time>
      </trkpt>
      <trkpt lat="44.15677" lon="5.00866">
        <ele>388</ele>
        <time>2021-01-10T09:14:56Z</time>
      </trkpt>
      <trkpt lat="44.15686" lon="5.0085">
        <ele>382</ele>
        <time>2021-01-10T09:15:01Z</time>
      </trkpt>
      <trkpt lat="44.15689" lon="5.00844">
        <ele>380</ele>
        <time>2021-01-10T09:15:03Z</time>
      </trkpt>
      <trkpt lat="44.1569" lon="5.00841">
        <ele>380</ele>
        <time>2021-01-10T09:15:04Z</time>
      </trkpt>
      <trkpt lat="44.15692" lon="5.00835">
        <ele>379</ele>
        <time>2021-01-10T09:15:06Z</time>
      </trkpt>
      <trkpt lat="44.15693" lon="5.00833">
        <ele>378</ele>
        <time>2021-01-10T09:15:07Z</time>
      </trkpt>
      <trkpt lat="44.15695" lon="5.00831">
        <ele>377</ele>
        <time>2021-01-10T09:15:08Z</time>
      </trkpt>
      <trkpt lat="44.15695" lon="5.00828">
        <ele>377</ele>
        <time>2021-01-10T09:15:09Z</time>
      </trkpt>
      <trkpt lat="44.15696" lon="5.00826">
        <ele>377</ele>
        <time>2021-01-10T09:15:10Z</time>
      </trkpt>
      <trkpt lat="44.15697" lon="5.00824">
        <ele>376</ele>
        <time>2021-01-10T09:15:11Z</time>
      </trkpt>
      <trkpt lat="44.15701" lon="5.0082">
        <ele>374</ele>
        <time>2021-01-10T09:15:16Z</time>
      </trkpt>
      <trkpt lat="44.15702" lon="5.00817">
        <ele>374</ele>
        <time>2021-01-10T09:15:17Z</time>
      </trkpt>
      <trkpt lat="44.15702" lon="5.00815">
        <ele>374</ele>
        <time>2021-01-10T09:15:18Z</time>
      </trkpt>
      <trkpt lat="44.15707" lon="5.00798">
        <ele>371</ele>
        <time>2021-01-10T09:15:24Z</time>
      </trkpt>
      <trkpt lat="44.15711" lon="5.00786">
        <ele>368</ele>
        <time>2021-01-10T09:15:29Z</time>
      </trkpt>
      <trkpt lat="44.15713" lon="5.00785">
        <ele>367</ele>
        <time>2021-01-10T09:15:30Z</time>
      </trkpt>
      <trkpt lat="44.15714" lon="5.00783">
        <ele>366</ele>
        <time>2021-01-10T09:15:31Z</time>
      </trkpt>
      <trkpt lat="44.15716" lon="5.00782">
        <ele>365</ele>
        <time>2021-01-10T09:15:32Z</time>
      </trkpt>
      <trkpt lat="44.15722" lon="5.00777">
        <ele>361</ele>
        <time>2021-01-10T09:15:36Z</time>
      </trkpt>
      <trkpt lat="44.15728" lon="5.00766">
        <ele>359</ele>
        <time>2021-01-10T09:15:42Z</time>
      </trkpt>
      <trkpt lat="44.1573" lon="5.00764">
        <ele>358</ele>
        <time>2021-01-10T09:15:43Z</time>
      </trkpt>
      <trkpt lat="44.15735" lon="5.00753">
        <ele>355</ele>
        <time>2021-01-10T09:15:49Z</time>
      </trkpt>
      <trkpt lat="44.15738" lon="5.00741">
        <ele>354</ele>
        <time>2021-01-10T09:15:55Z</time>
      </trkpt>
      <trkpt lat="44.1574" lon="5.00736">
        <ele>353</ele>
        <time>2021-01-10T09:15:57Z</time>
      </trkpt>
      <trkpt lat="44.15741" lon="5.00733">
        <ele>352</ele>
        <time>2021-01-10T09:15:58Z</time>
      </trkpt>
      <trkpt lat="44.15746" lon="5.00697">
        <ele>350</ele>
        <time>2021-01-10T09:16:09Z</time>
      </trkpt>
      <trkpt lat="44.15741" lon="5.00664">
        <ele>349</ele>
        <time>2021-01-10T09:16:21Z</time>
      </trkpt>
      <trkpt lat="44.1574" lon="5.00653">
        <ele>349</ele>
        <time>2021-01-10T09:16:30Z</time>
      </trkpt>
      <trkpt lat="44.15739" lon="5.00643">
        <ele>349</ele>
        <time>2021-01-10T09:16:45Z</time>
      </trkpt>
      <trkpt lat="44.15738" lon="5.00634">
        <ele>349</ele>
        <time>2021-01-10T09:16:50Z</time>
      </trkpt>
      <trkpt lat="44.15736" lon="5.00631">
        <ele>349</ele>
        <time>2021-01-10T09:16:51Z</time>
      </trkpt>
      <trkpt lat="44.15735" lon="5.00629">
        <ele>349</ele>
        <time>2021-01-10T09:16:52Z</time>
      </trkpt>
      <trkpt lat="44.15734" lon="5.00628">
        <ele>350</ele>
        <time>2021-01-10T09:16:53Z</time>
      </trkpt>
      <trkpt lat="44.15732" lon="5.00626">
        <ele>350</ele>
        <time>2021-01-10T09:16:54Z</time>
      </trkpt>
      <trkpt lat="44.15731" lon="5.00624">
        <ele>351</ele>
        <time>2021-01-10T09:16:55Z</time>
      </trkpt>
      <trkpt lat="44.15727" lon="5.00621">
        <ele>352</ele>
        <time>2021-01-10T09:16:58Z</time>
      </trkpt>
      <trkpt lat="44.15723" lon="5.00614">
        <ele>353</ele>
        <time>2021-01-10T09:17:03Z</time>
      </trkpt>
      <trkpt lat="44.15721" lon="5.00611">
        <ele>353</ele>
        <time>2021-01-10T09:17:05Z</time>
      </trkpt>
      <trkpt lat="44.15719" lon="5.00605">
        <ele>353</ele>
        <time>2021-01-10T09:17:08Z</time>
      </trkpt>
      <trkpt lat="44.15714" lon="5.00596">
        <ele>353</ele>
        <time>2021-01-10T09:17:13Z</time>
      </trkpt>
      <trkpt lat="44.15711" lon="5.00587">
        <ele>352</ele>
        <time>2021-01-10T09:17:17Z</time>
      </trkpt>
      <trkpt lat="44.15711" lon="5.00584">
        <ele>351</ele>
        <time>2021-01-10T09:17:18Z</time>
      </trkpt>
      <trkpt lat="44.15711" lon="5.0058">
        <ele>351</ele>
        <time>2021-01-10T09:17:19Z</time>
      </trkpt>
      <trkpt lat="44.15708" lon="5.00569">
        <ele>350</ele>
        <time>2021-01-10T09:17:23Z</time>
      </trkpt>
      <trkpt lat="44.15707" lon="5.00567">
        <ele>349</ele>
        <time>2021-01-10T09:17:24Z</time>
      </trkpt>
      <trkpt lat="44.15706" lon="5.00564">
        <ele>349</ele>
        <time>2021-01-10T09:17:25Z</time>
      </trkpt>
      <trkpt lat="44.15705" lon="5.00562">
        <ele>349</ele>
        <time>2021-01-10T09:17:26Z</time>
      </trkpt>
      <trkpt lat="44.15704" lon="5.0056">
        <ele>348</ele>
        <time>2021-01-10T09:17:27Z</time>
      </trkpt>
      <trkpt lat="44.15703" lon="5.00558">
        <ele>348</ele>
        <time>2021-01-10T09:17:28Z</time>
      </trkpt>
      <trkpt lat="44.15701" lon="5.00556">
        <ele>348</ele>
        <time>2021-01-10T09:17:29Z</time>
      </trkpt>
      <trkpt lat="44.15695" lon="5.00545">
        <ele>348</ele>
        <time>2021-01-10T09:17:39Z</time>
      </trkpt>
      <trkpt lat="44.15696" lon="5.00542">
        <ele>348</ele>
        <time>2021-01-10T09:17:43Z</time>
      </trkpt>
      <trkpt lat="44.15697" lon="5.0054">
        <ele>347</ele>
        <time>2021-01-10T09:17:44Z</time>
      </trkpt>
      <trkpt lat="44.15697" lon="5.00537">
        <ele>347</ele>
        <time>2021-01-10T09:17:45Z</time>
      </trkpt>
      <trkpt lat="44.15698" lon="5.00535">
        <ele>347</ele>
        <time>2021-01-10T09:17:46Z</time>
      </trkpt>
      <trkpt lat="44.15697" lon="5.00532">
        <ele>347</ele>
        <time>2021-01-10T09:17:47Z</time>
      </trkpt>
      <trkpt lat="44.15696" lon="5.0053">
        <ele>347</ele>
        <time>2021-01-10T09:17:48Z</time>
      </trkpt>
      <trkpt lat="44.15696" lon="5.00527">
        <ele>347</ele>
        <time>2021-01-10T09:17:49Z</time>
      </trkpt>
      <trkpt lat="44.15697" lon="5.00525">
        <ele>346</ele>
        <time>2021-01-10T09:17:50Z</time>
      </trkpt>
      <trkpt lat="44.15698" lon="5.00522">
        <ele>346</ele>
        <time>2021-01-10T09:17:51Z</time>
      </trkpt>
      <trkpt lat="44.15702" lon="5.00514">
        <ele>345</ele>
        <time>2021-01-10T09:17:55Z</time>
      </trkpt>
      <trkpt lat="44.15703" lon="5.00513">
        <ele>344</ele>
        <time>2021-01-10T09:17:56Z</time>
      </trkpt>
      <trkpt lat="44.15705" lon="5.00512">
        <ele>344</ele>
        <time>2021-01-10T09:17:57Z</time>
      </trkpt>
      <trkpt lat="44.15707" lon="5.00509">
        <ele>343</ele>
        <time>2021-01-10T09:17:58Z</time>
      </trkpt>
      <trkpt lat="44.15708" lon="5.00507">
        <ele>343</ele>
        <time>2021-01-10T09:17:59Z</time>
      </trkpt>
      <trkpt lat="44.15709" lon="5.00504">
        <ele>342</ele>
        <time>2021-01-10T09:18:00Z</time>
      </trkpt>
      <trkpt lat="44.1571" lon="5.00502">
        <ele>342</ele>
        <time>2021-01-10T09:18:01Z</time>
      </trkpt>
      <trkpt lat="44.15711" lon="5.005">
        <ele>341</ele>
        <time>2021-01-10T09:18:02Z</time>
      </trkpt>
      <trkpt lat="44.15712" lon="5.00498">
        <ele>341</ele>
        <time>2021-01-10T09:18:03Z</time>
      </trkpt>
      <trkpt lat="44.15715" lon="5.00489">
        <ele>339</ele>
        <time>2021-01-10T09:18:07Z</time>
      </trkpt>
      <trkpt lat="44.15716" lon="5.00487">
        <ele>339</ele>
        <time>2021-01-10T09:18:08Z</time>
      </trkpt>
      <trkpt lat="44.15717" lon="5.00485">
        <ele>338</ele>
        <time>2021-01-10T09:18:09Z</time>
      </trkpt>
      <trkpt lat="44.15719" lon="5.00484">
        <ele>338</ele>
        <time>2021-01-10T09:18:10Z</time>
      </trkpt>
      <trkpt lat="44.15719" lon="5.00481">
        <ele>337</ele>
        <time>2021-01-10T09:18:11Z</time>
      </trkpt>
      <trkpt lat="44.1572" lon="5.00479">
        <ele>337</ele>
        <time>2021-01-10T09:18:12Z</time>
      </trkpt>
      <trkpt lat="44.1572" lon="5.00476">
        <ele>336</ele>
        <time>2021-01-10T09:18:13Z</time>
      </trkpt>
      <trkpt lat="44.1572" lon="5.00473">
        <ele>336</ele>
        <time>2021-01-10T09:18:14Z</time>
      </trkpt>
      <trkpt lat="44.15722" lon="5.00468">
        <ele>334</ele>
        <time>2021-01-10T09:18:16Z</time>
      </trkpt>
      <trkpt lat="44.15724" lon="5.00467">
        <ele>334</ele>
        <time>2021-01-10T09:18:17Z</time>
      </trkpt>
      <trkpt lat="44.15729" lon="5.00461">
        <ele>332</ele>
        <time>2021-01-10T09:18:22Z</time>
      </trkpt>
      <trkpt lat="44.15728" lon="5.00456">
        <ele>331</ele>
        <time>2021-01-10T09:18:25Z</time>
      </trkpt>
      <trkpt lat="44.15727" lon="5.00454">
        <ele>331</ele>
        <time>2021-01-10T09:18:26Z</time>
      </trkpt>
      <trkpt lat="44.15727" lon="5.00443">
        <ele>329</ele>
        <time>2021-01-10T09:18:30Z</time>
      </trkpt>
      <trkpt lat="44.15726" lon="5.0044">
        <ele>329</ele>
        <time>2021-01-10T09:18:31Z</time>
      </trkpt>
      <trkpt lat="44.15726" lon="5.00437">
        <ele>328</ele>
        <time>2021-01-10T09:18:32Z</time>
      </trkpt>
      <trkpt lat="44.15726" lon="5.00433">
        <ele>328</ele>
        <time>2021-01-10T09:18:33Z</time>
      </trkpt>
      <trkpt lat="44.15726" lon="5.0043">
        <ele>327</ele>
        <time>2021-01-10T09:18:34Z</time>
      </trkpt>
      <trkpt lat="44.15726" lon="5.00427">
        <ele>327</ele>
        <time>2021-01-10T09:18:35Z</time>
      </trkpt>
      <trkpt lat="44.15726" lon="5.0042">
        <ele>325</ele>
        <time>2021-01-10T09:18:37Z</time>
      </trkpt>
      <trkpt lat="44.15723" lon="5.00413">
        <ele>325</ele>
        <time>2021-01-10T09:18:41Z</time>
      </trkpt>
      <trkpt lat="44.15722" lon="5.00411">
        <ele>325</ele>
        <time>2021-01-10T09:18:42Z</time>
      </trkpt>
      <trkpt lat="44.15718" lon="5.00393">
        <ele>323</ele>
        <time>2021-01-10T09:18:51Z</time>
      </trkpt>
      <trkpt lat="44.15715" lon="5.00378">
        <ele>322</ele>
        <time>2021-01-10T09:18:57Z</time>
      </trkpt>
      <trkpt lat="44.15711" lon="5.00344">
        <ele>319</ele>
        <time>2021-01-10T09:19:08Z</time>
      </trkpt>
      <trkpt lat="44.15704" lon="5.00321">
        <ele>319</ele>
        <time>2021-01-10T09:19:16Z</time>
      </trkpt>
      <trkpt lat="44.15693" lon="5.0031">
        <ele>321</ele>
        <time>2021-01-10T09:19:22Z</time>
      </trkpt>
      <trkpt lat="44.15687" lon="5.00308">
        <ele>322</ele>
        <time>2021-01-10T09:19:25Z</time>
      </trkpt>
      <trkpt lat="44.15684" lon="5.00306">
        <ele>322</ele>
        <time>2021-01-10T09:19:26Z</time>
      </trkpt>
      <trkpt lat="44.15683" lon="5.00305">
        <ele>322</ele>
        <time>2021-01-10T09:19:27Z</time>
      </trkpt>
      <trkpt lat="44.15681" lon="5.00305">
        <ele>322</ele>
        <time>2021-01-10T09:19:28Z</time>
      </trkpt>
      <trkpt lat="44.15679" lon="5.00304">
        <ele>322</ele>
        <time>2021-01-10T09:19:29Z</time>
      </trkpt>
      <trkpt lat="44.15671" lon="5.00302">
        <ele>322</ele>
        <time>2021-01-10T09:19:33Z</time>
      </trkpt>
      <trkpt lat="44.15669" lon="5.00303">
        <ele>323</ele>
        <time>2021-01-10T09:19:34Z</time>
      </trkpt>
      <trkpt lat="44.15664" lon="5.00305">
        <ele>323</ele>
        <time>2021-01-10T09:19:37Z</time>
      </trkpt>
      <trkpt lat="44.15663" lon="5.00305">
        <ele>322</ele>
        <time>2021-01-10T09:19:38Z</time>
      </trkpt>
      <trkpt lat="44.15657" lon="5.00308">
        <ele>320</ele>
        <time>2021-01-10T09:19:43Z</time>
      </trkpt>
      <trkpt lat="44.15651" lon="5.00306">
        <ele>317</ele>
        <time>2021-01-10T09:19:47Z</time>
      </trkpt>
      <trkpt lat="44.1565" lon="5.00303">
        <ele>315</ele>
        <time>2021-01-10T09:19:49Z</time>
      </trkpt>
      <trkpt lat="44.15649" lon="5.00301">
        <ele>314</ele>
        <time>2021-01-10T09:19:50Z</time>
      </trkpt>
      <trkpt lat="44.15643" lon="5.00294">
        <ele>310</ele>
        <time>2021-01-10T09:19:54Z</time>
      </trkpt>
      <trkpt lat="44.1564" lon="5.00289">
        <ele>308</ele>
        <time>2021-01-10T09:19:57Z</time>
      </trkpt>
      <trkpt lat="44.15638" lon="5.00285">
        <ele>307</ele>
        <time>2021-01-10T09:19:59Z</time>
      </trkpt>
      <trkpt lat="44.15637" lon="5.00283">
        <ele>306</ele>
        <time>2021-01-10T09:20:00Z</time>
      </trkpt>
      <trkpt lat="44.15636" lon="5.00281">
        <ele>305</ele>
        <time>2021-01-10T09:20:01Z</time>
      </trkpt>
      <trkpt lat="44.15635" lon="5.00279">
        <ele>305</ele>
        <time>2021-01-10T09:20:02Z</time>
      </trkpt>
      <trkpt lat="44.15633" lon="5.00277">
        <ele>304</ele>
        <time>2021-01-10T09:20:03Z</time>
      </trkpt>
      <trkpt lat="44.15633" lon="5.00274">
        <ele>303</ele>
        <time>2021-01-10T09:20:04Z</time>
      </trkpt>
      <trkpt lat="44.15632" lon="5.00272">
        <ele>302</ele>
        <time>2021-01-10T09:20:05Z</time>
      </trkpt>
      <trkpt lat="44.15631" lon="5.0026">
        <ele>299</ele>
        <time>2021-01-10T09:20:09Z</time>
      </trkpt>
      <trkpt lat="44.15632" lon="5.00258">
        <ele>298</ele>
        <time>2021-01-10T09:20:10Z</time>
      </trkpt>
      <trkpt lat="44.15631" lon="5.0025">
        <ele>296</ele>
        <time>2021-01-10T09:20:15Z</time>
      </trkpt>
      <trkpt lat="44.15629" lon="5.00248">
        <ele>295</ele>
        <time>2021-01-10T09:20:16Z</time>
      </trkpt>
      <trkpt lat="44.15627" lon="5.00245">
        <ele>294</ele>
        <time>2021-01-10T09:20:17Z</time>
      </trkpt>
      <trkpt lat="44.15619" lon="5.00239">
        <ele>291</ele>
        <time>2021-01-10T09:20:22Z</time>
      </trkpt>
      <trkpt lat="44.15615" lon="5.0023">
        <ele>288</ele>
        <time>2021-01-10T09:20:25Z</time>
      </trkpt>
      <trkpt lat="44.15614" lon="5.00227">
        <ele>287</ele>
        <time>2021-01-10T09:20:26Z</time>
      </trkpt>
      <trkpt lat="44.15613" lon="5.00221">
        <ele>286</ele>
        <time>2021-01-10T09:20:41Z</time>
      </trkpt>
      <trkpt lat="44.1561" lon="5.00227">
        <ele>287</ele>
        <time>2021-01-10T09:20:51Z</time>
      </trkpt>
      <trkpt lat="44.15606" lon="5.00233">
        <ele>287</ele>
        <time>2021-01-10T09:20:55Z</time>
      </trkpt>
      <trkpt lat="44.15599" lon="5.0026">
        <ele>289</ele>
        <time>2021-01-10T09:21:07Z</time>
      </trkpt>
      <trkpt lat="44.15598" lon="5.00266">
        <ele>289</ele>
        <time>2021-01-10T09:21:09Z</time>
      </trkpt>
      <trkpt lat="44.15595" lon="5.0028">
        <ele>289</ele>
        <time>2021-01-10T09:21:13Z</time>
      </trkpt>
      <trkpt lat="44.15595" lon="5.00283">
        <ele>289</ele>
        <time>2021-01-10T09:21:14Z</time>
      </trkpt>
      <trkpt lat="44.15594" lon="5.00286">
        <ele>289</ele>
        <time>2021-01-10T09:21:15Z</time>
      </trkpt>
      <trkpt lat="44.15586" lon="5.0032">
        <ele>288</ele>
        <time>2021-01-10T09:21:26Z</time>
      </trkpt>
      <trkpt lat="44.15579" lon="5.00347">
        <ele>288</ele>
        <time>2021-01-10T09:21:34Z</time>
      </trkpt>
      <trkpt lat="44.15577" lon="5.00349">
        <ele>287</ele>
        <time>2021-01-10T09:21:35Z</time>
      </trkpt>
      <trkpt lat="44.15575" lon="5.0035">
        <ele>287</ele>
        <time>2021-01-10T09:21:36Z</time>
      </trkpt>
      <trkpt lat="44.15573" lon="5.00351">
        <ele>286</ele>
        <time>2021-01-10T09:21:37Z</time>
      </trkpt>
      <trkpt lat="44.15571" lon="5.00353">
        <ele>286</ele>
        <time>2021-01-10T09:21:38Z</time>
      </trkpt>
      <trkpt lat="44.1557" lon="5.00353">
        <ele>286</ele>
        <time>2021-01-10T09:21:39Z</time>
      </trkpt>
      <trkpt lat="44.15568" lon="5.00355">
        <ele>285</ele>
        <time>2021-01-10T09:21:40Z</time>
      </trkpt>
      <trkpt lat="44.15537" lon="5.00372">
        <ele>286</ele>
        <time>2021-01-10T09:21:54Z</time>
      </trkpt>
      <trkpt lat="44.1552" lon="5.00374">
        <ele>285</ele>
        <time>2021-01-10T09:22:03Z</time>
      </trkpt>
      <trkpt lat="44.15503" lon="5.0039">
        <ele>287</ele>
        <time>2021-01-10T09:22:12Z</time>
      </trkpt>
      <trkpt lat="44.15481" lon="5.00421">
        <ele>288</ele>
        <time>2021-01-10T09:22:24Z</time>
      </trkpt>
      <trkpt lat="44.15461" lon="5.00454">
        <ele>289</ele>
        <time>2021-01-10T09:22:36Z</time>
      </trkpt>
      <trkpt lat="44.15446" lon="5.00476">
        <ele>288</ele>
        <time>2021-01-10T09:22:44Z</time>
      </trkpt>
      <trkpt lat="44.15427" lon="5.00503">
        <ele>286</ele>
        <time>2021-01-10T09:22:55Z</time>
      </trkpt>
      <trkpt lat="44.15406" lon="5.00536">
        <ele>285</ele>
        <time>2021-01-10T09:23:08Z</time>
      </trkpt>
      <trkpt lat="44.15393" lon="5.00558">
        <ele>285</ele>
        <time>2021-01-10T09:23:18Z</time>
      </trkpt>
      <trkpt lat="44.15384" lon="5.00588">
        <ele>285</ele>
        <time>2021-01-10T09:23:30Z</time>
      </trkpt>
      <trkpt lat="44.15382" lon="5.00591">
        <ele>286</ele>
        <time>2021-01-10T09:23:31Z</time>
      </trkpt>
      <trkpt lat="44.15381" lon="5.00593">
        <ele>285</ele>
        <time>2021-01-10T09:23:32Z</time>
      </trkpt>
      <trkpt lat="44.15379" lon="5.00593">
        <ele>285</ele>
        <time>2021-01-10T09:23:33Z</time>
      </trkpt>
      <trkpt lat="44.15367" lon="5.00597">
        <ele>283</ele>
        <time>2021-01-10T09:23:38Z</time>
      </trkpt>
      <trkpt lat="44.15366" lon="5.00599">
        <ele>283</ele>
        <time>2021-01-10T09:23:39Z</time>
      </trkpt>
      <trkpt lat="44.15345" lon="5.0062">
        <ele>288</ele>
        <time>2021-01-10T09:23:50Z</time>
      </trkpt>
      <trkpt lat="44.15334" lon="5.00607">
        <ele>286</ele>
        <time>2021-01-10T09:23:57Z</time>
      </trkpt>
      <trkpt lat="44.15314" lon="5.0059">
        <ele>288</ele>
        <time>2021-01-10T09:24:09Z</time>
      </trkpt>
      <trkpt lat="44.15312" lon="5.00592">
        <ele>289</ele>
        <time>2021-01-10T09:24:11Z</time>
      </trkpt>
      <trkpt lat="44.1531" lon="5.00593">
        <ele>289</ele>
        <time>2021-01-10T09:24:12Z</time>
      </trkpt>
      <trkpt lat="44.15309" lon="5.00594">
        <ele>289</ele>
        <time>2021-01-10T09:24:13Z</time>
      </trkpt>
      <trkpt lat="44.15308" lon="5.00595">
        <ele>290</ele>
        <time>2021-01-10T09:24:14Z</time>
      </trkpt>
      <trkpt lat="44.15306" lon="5.00596">
        <ele>290</ele>
        <time>2021-01-10T09:24:15Z</time>
      </trkpt>
      <trkpt lat="44.15305" lon="5.00597">
        <ele>291</ele>
        <time>2021-01-10T09:24:16Z</time>
      </trkpt>
      <trkpt lat="44.15303" lon="5.00598">
        <ele>291</ele>
        <time>2021-01-10T09:24:17Z</time>
      </trkpt>
      <trkpt lat="44.15302" lon="5.00599">
        <ele>291</ele>
        <time>2021-01-10T09:24:18Z</time>
      </trkpt>
      <trkpt lat="44.15287" lon="5.00606">
        <ele>295</ele>
        <time>2021-01-10T09:24:28Z</time>
      </trkpt>
      <trkpt lat="44.15277" lon="5.00614">
        <ele>298</ele>
        <time>2021-01-10T09:24:37Z</time>
      </trkpt>
      <trkpt lat="44.15264" lon="5.00625">
        <ele>300</ele>
        <time>2021-01-10T09:24:48Z</time>
      </trkpt>
      <trkpt lat="44.15251" lon="5.00638">
        <ele>303</ele>
        <time>2021-01-10T09:25:01Z</time>
      </trkpt>
      <trkpt lat="44.15248" lon="5.00641">
        <ele>303</ele>
        <time>2021-01-10T09:25:03Z</time>
      </trkpt>
      <trkpt lat="44.15246" lon="5.00643">
        <ele>304</ele>
        <time>2021-01-10T09:25:04Z</time>
      </trkpt>
      <trkpt lat="44.15244" lon="5.00647">
        <ele>304</ele>
        <time>2021-01-10T09:25:07Z</time>
      </trkpt>
      <trkpt lat="44.15243" lon="5.00648">
        <ele>305</ele>
        <time>2021-01-10T09:25:08Z</time>
      </trkpt>
      <trkpt lat="44.15242" lon="5.00649">
        <ele>305</ele>
        <time>2021-01-10T09:25:09Z</time>
      </trkpt>
      <trkpt lat="44.15241" lon="5.00651">
        <ele>305</ele>
        <time>2021-01-10T09:25:10Z</time>
      </trkpt>
      <trkpt lat="44.1524" lon="5.00652">
        <ele>305</ele>
        <time>2021-01-10T09:25:11Z</time>
      </trkpt>
      <trkpt lat="44.15234" lon="5.00663">
        <ele>307</ele>
        <time>2021-01-10T09:25:22Z</time>
      </trkpt>
      <trkpt lat="44.15224" lon="5.0068">
        <ele>309</ele>
        <time>2021-01-10T09:25:33Z</time>
      </trkpt>
      <trkpt lat="44.15216" lon="5.00692">
        <ele>311</ele>
        <time>2021-01-10T09:25:40Z</time>
      </trkpt>
      <trkpt lat="44.15208" lon="5.00706">
        <ele>313</ele>
        <time>2021-01-10T09:25:52Z</time>
      </trkpt>
      <trkpt lat="44.15201" lon="5.00725">
        <ele>315</ele>
        <time>2021-01-10T09:26:03Z</time>
      </trkpt>
      <trkpt lat="44.15199" lon="5.00728">
        <ele>316</ele>
        <time>2021-01-10T09:26:05Z</time>
      </trkpt>
      <trkpt lat="44.15194" lon="5.00739">
        <ele>317</ele>
        <time>2021-01-10T09:26:16Z</time>
      </trkpt>
      <trkpt lat="44.15191" lon="5.00745">
        <ele>318</ele>
        <time>2021-01-10T09:26:20Z</time>
      </trkpt>
      <trkpt lat="44.1519" lon="5.00747">
        <ele>319</ele>
        <time>2021-01-10T09:26:21Z</time>
      </trkpt>
      <trkpt lat="44.15175" lon="5.00767">
        <ele>321</ele>
        <time>2021-01-10T09:26:33Z</time>
      </trkpt>
      <trkpt lat="44.15161" lon="5.00786">
        <ele>324</ele>
        <time>2021-01-10T09:26:43Z</time>
      </trkpt>
      <trkpt lat="44.15159" lon="5.00788">
        <ele>324</ele>
        <time>2021-01-10T09:26:44Z</time>
      </trkpt>
      <trkpt lat="44.15158" lon="5.00791">
        <ele>325</ele>
        <time>2021-01-10T09:26:45Z</time>
      </trkpt>
      <trkpt lat="44.15157" lon="5.00794">
        <ele>325</ele>
        <time>2021-01-10T09:26:46Z</time>
      </trkpt>
      <trkpt lat="44.15156" lon="5.00797">
        <ele>325</ele>
        <time>2021-01-10T09:26:47Z</time>
      </trkpt>
      <trkpt lat="44.15154" lon="5.008">
        <ele>326</ele>
        <time>2021-01-10T09:26:48Z</time>
      </trkpt>
      <trkpt lat="44.15152" lon="5.00803">
        <ele>326</ele>
        <time>2021-01-10T09:26:49Z</time>
      </trkpt>
      <trkpt lat="44.1515" lon="5.00805">
        <ele>327</ele>
        <time>2021-01-10T09:26:50Z</time>
      </trkpt>
      <trkpt lat="44.15149" lon="5.00806">
        <ele>327</ele>
        <time>2021-01-10T09:26:51Z</time>
      </trkpt>
      <trkpt lat="44.15147" lon="5.00806">
        <ele>327</ele>
        <time>2021-01-10T09:26:52Z</time>
      </trkpt>
      <trkpt lat="44.15141" lon="5.00798">
        <ele>326</ele>
        <time>2021-01-10T09:26:56Z</time>
      </trkpt>
      <trkpt lat="44.15141" lon="5.00795">
        <ele>326</ele>
        <time>2021-01-10T09:26:57Z</time>
      </trkpt>
      <trkpt lat="44.1514" lon="5.00793">
        <ele>326</ele>
        <time>2021-01-10T09:26:58Z</time>
      </trkpt>
      <trkpt lat="44.1514" lon="5.0079">
        <ele>326</ele>
        <time>2021-01-10T09:26:59Z</time>
      </trkpt>
      <trkpt lat="44.15141" lon="5.00786">
        <ele>325</ele>
        <time>2021-01-10T09:27:00Z</time>
      </trkpt>
      <trkpt lat="44.15141" lon="5.00783">
        <ele>325</ele>
        <time>2021-01-10T09:27:01Z</time>
      </trkpt>
      <trkpt lat="44.15142" lon="5.0078">
        <ele>325</ele>
        <time>2021-01-10T09:27:02Z</time>
      </trkpt>
      <trkpt lat="44.15143" lon="5.00776">
        <ele>325</ele>
        <time>2021-01-10T09:27:03Z</time>
      </trkpt>
      <trkpt lat="44.15144" lon="5.00773">
        <ele>325</ele>
        <time>2021-01-10T09:27:04Z</time>
      </trkpt>
      <trkpt lat="44.15145" lon="5.00769">
        <ele>325</ele>
        <time>2021-01-10T09:27:05Z</time>
      </trkpt>
      <trkpt lat="44.15147" lon="5.0075">
        <ele>325</ele>
        <time>2021-01-10T09:27:13Z</time>
      </trkpt>
      <trkpt lat="44.15145" lon="5.0075">
        <ele>325</ele>
        <time>2021-01-10T09:27:14Z</time>
      </trkpt>
      <trkpt lat="44.15143" lon="5.0075">
        <ele>326</ele>
        <time>2021-01-10T09:27:15Z</time>
      </trkpt>
      <trkpt lat="44.1514" lon="5.0075">
        <ele>327</ele>
        <time>2021-01-10T09:27:16Z</time>
      </trkpt>
      <trkpt lat="44.15137" lon="5.00752">
        <ele>327</ele>
        <time>2021-01-10T09:27:17Z</time>
      </trkpt>
      <trkpt lat="44.15134" lon="5.00755">
        <ele>328</ele>
        <time>2021-01-10T09:27:19Z</time>
      </trkpt>
      <trkpt lat="44.15132" lon="5.00758">
        <ele>328</ele>
        <time>2021-01-10T09:27:20Z</time>
      </trkpt>
      <trkpt lat="44.1513" lon="5.0076">
        <ele>328</ele>
        <time>2021-01-10T09:27:21Z</time>
      </trkpt>
      <trkpt lat="44.15128" lon="5.00762">
        <ele>329</ele>
        <time>2021-01-10T09:27:22Z</time>
      </trkpt>
      <trkpt lat="44.15126" lon="5.00764">
        <ele>329</ele>
        <time>2021-01-10T09:27:23Z</time>
      </trkpt>
      <trkpt lat="44.15124" lon="5.00766">
        <ele>329</ele>
        <time>2021-01-10T09:27:24Z</time>
      </trkpt>
      <trkpt lat="44.15105" lon="5.00773">
        <ele>333</ele>
        <time>2021-01-10T09:27:34Z</time>
      </trkpt>
      <trkpt lat="44.15083" lon="5.0077">
        <ele>339</ele>
        <time>2021-01-10T09:27:45Z</time>
      </trkpt>
      <trkpt lat="44.15066" lon="5.00771">
        <ele>340</ele>
        <time>2021-01-10T09:27:57Z</time>
      </trkpt>
      <trkpt lat="44.15063" lon="5.00769">
        <ele>340</ele>
        <time>2021-01-10T09:28:18Z</time>
      </trkpt>
      <trkpt lat="44.15062" lon="5.00768">
        <ele>340</ele>
        <time>2021-01-10T09:28:19Z</time>
      </trkpt>
      <trkpt lat="44.15061" lon="5.00766">
        <ele>340</ele>
        <time>2021-01-10T09:28:20Z</time>
      </trkpt>
      <trkpt lat="44.1506" lon="5.00764">
        <ele>341</ele>
        <time>2021-01-10T09:28:21Z</time>
      </trkpt>
      <trkpt lat="44.15059" lon="5.00762">
        <ele>341</ele>
        <time>2021-01-10T09:28:22Z</time>
      </trkpt>
      <trkpt lat="44.15059" lon="5.0076">
        <ele>341</ele>
        <time>2021-01-10T09:28:23Z</time>
      </trkpt>
      <trkpt lat="44.15058" lon="5.00758">
        <ele>342</ele>
        <time>2021-01-10T09:28:24Z</time>
      </trkpt>
      <trkpt lat="44.15047" lon="5.00735">
        <ele>345</ele>
        <time>2021-01-10T09:28:34Z</time>
      </trkpt>
      <trkpt lat="44.15043" lon="5.0073">
        <ele>345</ele>
        <time>2021-01-10T09:28:37Z</time>
      </trkpt>
      <trkpt lat="44.15042" lon="5.00728">
        <ele>345</ele>
        <time>2021-01-10T09:28:38Z</time>
      </trkpt>
      <trkpt lat="44.15041" lon="5.00726">
        <ele>345</ele>
        <time>2021-01-10T09:28:39Z</time>
      </trkpt>
      <trkpt lat="44.15034" lon="5.00702">
        <ele>347</ele>
        <time>2021-01-10T09:28:50Z</time>
      </trkpt>
      <trkpt lat="44.15032" lon="5.00695">
        <ele>347</ele>
        <time>2021-01-10T09:28:52Z</time>
      </trkpt>
      <trkpt lat="44.1502" lon="5.00662">
        <ele>347</ele>
        <time>2021-01-10T09:29:03Z</time>
      </trkpt>
      <trkpt lat="44.15019" lon="5.0066">
        <ele>347</ele>
        <time>2021-01-10T09:29:04Z</time>
      </trkpt>
      <trkpt lat="44.15008" lon="5.00624">
        <ele>348</ele>
        <time>2021-01-10T09:29:17Z</time>
      </trkpt>
      <trkpt lat="44.14993" lon="5.00583">
        <ele>347</ele>
        <time>2021-01-10T09:29:30Z</time>
      </trkpt>
      <trkpt lat="44.1499" lon="5.0057">
        <ele>346</ele>
        <time>2021-01-10T09:29:34Z</time>
      </trkpt>
      <trkpt lat="44.14991" lon="5.00547">
        <ele>347</ele>
        <time>2021-01-10T09:29:43Z</time>
      </trkpt>
      <trkpt lat="44.14996" lon="5.00527">
        <ele>348</ele>
        <time>2021-01-10T09:29:50Z</time>
      </trkpt>
      <trkpt lat="44.15004" lon="5.00493">
        <ele>345</ele>
        <time>2021-01-10T09:30:00Z</time>
      </trkpt>
      <trkpt lat="44.15002" lon="5.00478">
        <ele>341</ele>
        <time>2021-01-10T09:30:05Z</time>
      </trkpt>
      <trkpt lat="44.14999" lon="5.00477">
        <ele>340</ele>
        <time>2021-01-10T09:30:07Z</time>
      </trkpt>
      <trkpt lat="44.14998" lon="5.00479">
        <ele>339</ele>
        <time>2021-01-10T09:30:08Z</time>
      </trkpt>
      <trkpt lat="44.14997" lon="5.00481">
        <ele>340</ele>
        <time>2021-01-10T09:30:09Z</time>
      </trkpt>
      <trkpt lat="44.14996" lon="5.00484">
        <ele>340</ele>
        <time>2021-01-10T09:30:10Z</time>
      </trkpt>
      <trkpt lat="44.14995" lon="5.00485">
        <ele>339</ele>
        <time>2021-01-10T09:30:11Z</time>
      </trkpt>
      <trkpt lat="44.14993" lon="5.00487">
        <ele>339</ele>
        <time>2021-01-10T09:30:12Z</time>
      </trkpt>
      <trkpt lat="44.14988" lon="5.005">
        <ele>340</ele>
        <time>2021-01-10T09:30:17Z</time>
      </trkpt>
      <trkpt lat="44.14987" lon="5.00502">
        <ele>340</ele>
        <time>2021-01-10T09:30:18Z</time>
      </trkpt>
      <trkpt lat="44.14985" lon="5.00503">
        <ele>339</ele>
        <time>2021-01-10T09:30:19Z</time>
      </trkpt>
      <trkpt lat="44.14984" lon="5.00504">
        <ele>339</ele>
        <time>2021-01-10T09:30:20Z</time>
      </trkpt>
      <trkpt lat="44.14982" lon="5.00505">
        <ele>338</ele>
        <time>2021-01-10T09:30:21Z</time>
      </trkpt>
      <trkpt lat="44.1498" lon="5.00506">
        <ele>338</ele>
        <time>2021-01-10T09:30:22Z</time>
      </trkpt>
      <trkpt lat="44.14972" lon="5.00507">
        <ele>335</ele>
        <time>2021-01-10T09:30:26Z</time>
      </trkpt>
      <trkpt lat="44.14968" lon="5.00509">
        <ele>334</ele>
        <time>2021-01-10T09:30:29Z</time>
      </trkpt>
      <trkpt lat="44.1496" lon="5.00512">
        <ele>333</ele>
        <time>2021-01-10T09:30:33Z</time>
      </trkpt>
      <trkpt lat="44.14958" lon="5.00513">
        <ele>333</ele>
        <time>2021-01-10T09:30:34Z</time>
      </trkpt>
      <trkpt lat="44.14956" lon="5.00515">
        <ele>333</ele>
        <time>2021-01-10T09:30:35Z</time>
      </trkpt>
      <trkpt lat="44.14954" lon="5.00517">
        <ele>332</ele>
        <time>2021-01-10T09:30:36Z</time>
      </trkpt>
      <trkpt lat="44.14948" lon="5.00523">
        <ele>332</ele>
        <time>2021-01-10T09:30:40Z</time>
      </trkpt>
      <trkpt lat="44.14947" lon="5.00523">
        <ele>332</ele>
        <time>2021-01-10T09:30:41Z</time>
      </trkpt>
      <trkpt lat="44.1494" lon="5.00521">
        <ele>330</ele>
        <time>2021-01-10T09:30:47Z</time>
      </trkpt>
      <trkpt lat="44.14938" lon="5.00522">
        <ele>329</ele>
        <time>2021-01-10T09:30:48Z</time>
      </trkpt>
      <trkpt lat="44.14936" lon="5.00521">
        <ele>329</ele>
        <time>2021-01-10T09:30:49Z</time>
      </trkpt>
      <trkpt lat="44.14934" lon="5.0052">
        <ele>328</ele>
        <time>2021-01-10T09:30:50Z</time>
      </trkpt>
      <trkpt lat="44.14928" lon="5.00521">
        <ele>326</ele>
        <time>2021-01-10T09:30:54Z</time>
      </trkpt>
      <trkpt lat="44.14919" lon="5.0052">
        <ele>324</ele>
        <time>2021-01-10T09:30:59Z</time>
      </trkpt>
      <trkpt lat="44.14908" lon="5.00521">
        <ele>319</ele>
        <time>2021-01-10T09:31:05Z</time>
      </trkpt>
      <trkpt lat="44.14905" lon="5.00521">
        <ele>319</ele>
        <time>2021-01-10T09:31:06Z</time>
      </trkpt>
      <trkpt lat="44.14902" lon="5.00522">
        <ele>317</ele>
        <time>2021-01-10T09:31:07Z</time>
      </trkpt>
      <trkpt lat="44.149" lon="5.00521">
        <ele>316</ele>
        <time>2021-01-10T09:31:08Z</time>
      </trkpt>
      <trkpt lat="44.14888" lon="5.00519">
        <ele>311</ele>
        <time>2021-01-10T09:31:13Z</time>
      </trkpt>
      <trkpt lat="44.14881" lon="5.00516">
        <ele>308</ele>
        <time>2021-01-10T09:31:16Z</time>
      </trkpt>
      <trkpt lat="44.14877" lon="5.00516">
        <ele>306</ele>
        <time>2021-01-10T09:31:19Z</time>
      </trkpt>
      <trkpt lat="44.14875" lon="5.00516">
        <ele>305</ele>
        <time>2021-01-10T09:31:20Z</time>
      </trkpt>
      <trkpt lat="44.14873" lon="5.00517">
        <ele>305</ele>
        <time>2021-01-10T09:31:21Z</time>
      </trkpt>
      <trkpt lat="44.14864" lon="5.00521">
        <ele>301</ele>
        <time>2021-01-10T09:31:26Z</time>
      </trkpt>
      <trkpt lat="44.14862" lon="5.0052">
        <ele>300</ele>
        <time>2021-01-10T09:31:27Z</time>
      </trkpt>
      <trkpt lat="44.14857" lon="5.00507">
        <ele>298</ele>
        <time>2021-01-10T09:31:36Z</time>
      </trkpt>
      <trkpt lat="44.14844" lon="5.00493">
        <ele>293</ele>
        <time>2021-01-10T09:31:44Z</time>
      </trkpt>
      <trkpt lat="44.14825" lon="5.00469">
        <ele>287</ele>
        <time>2021-01-10T09:31:53Z</time>
      </trkpt>
      <trkpt lat="44.14814" lon="5.00454">
        <ele>285</ele>
        <time>2021-01-10T09:32:00Z</time>
      </trkpt>
      <trkpt lat="44.14806" lon="5.00453">
        <ele>284</ele>
        <time>2021-01-10T09:32:04Z</time>
      </trkpt>
      <trkpt lat="44.14799" lon="5.00462">
        <ele>284</ele>
        <time>2021-01-10T09:32:10Z</time>
      </trkpt>
      <trkpt lat="44.14798" lon="5.0047">
        <ele>284</ele>
        <time>2021-01-10T09:32:13Z</time>
      </trkpt>
      <trkpt lat="44.14799" lon="5.00474">
        <ele>284</ele>
        <time>2021-01-10T09:32:15Z</time>
      </trkpt>
      <trkpt lat="44.14802" lon="5.00486">
        <ele>285</ele>
        <time>2021-01-10T09:32:20Z</time>
      </trkpt>
      <trkpt lat="44.14802" lon="5.00488">
        <ele>285</ele>
        <time>2021-01-10T09:32:21Z</time>
      </trkpt>
      <trkpt lat="44.14803" lon="5.00495">
        <ele>285</ele>
        <time>2021-01-10T09:32:24Z</time>
      </trkpt>
      <trkpt lat="44.14804" lon="5.00497">
        <ele>286</ele>
        <time>2021-01-10T09:32:25Z</time>
      </trkpt>
      <trkpt lat="44.14814" lon="5.00525">
        <ele>290</ele>
        <time>2021-01-10T09:32:36Z</time>
      </trkpt>
      <trkpt lat="44.14814" lon="5.00528">
        <ele>290</ele>
        <time>2021-01-10T09:32:37Z</time>
      </trkpt>
      <trkpt lat="44.14819" lon="5.00555">
        <ele>293</ele>
        <time>2021-01-10T09:32:47Z</time>
      </trkpt>
      <trkpt lat="44.14826" lon="5.00585">
        <ele>298</ele>
        <time>2021-01-10T09:32:59Z</time>
      </trkpt>
      <trkpt lat="44.14825" lon="5.00594">
        <ele>299</ele>
        <time>2021-01-10T09:33:02Z</time>
      </trkpt>
      <trkpt lat="44.14811" lon="5.00619">
        <ele>298</ele>
        <time>2021-01-10T09:33:11Z</time>
      </trkpt>
      <trkpt lat="44.14801" lon="5.00635">
        <ele>301</ele>
        <time>2021-01-10T09:33:18Z</time>
      </trkpt>
      <trkpt lat="44.14796" lon="5.00644">
        <ele>304</ele>
        <time>2021-01-10T09:34:57Z</time>
      </trkpt>
      <trkpt lat="44.14793" lon="5.00645">
        <ele>305</ele>
        <time>2021-01-10T09:36:21Z</time>
      </trkpt>
      <trkpt lat="44.14791" lon="5.00644">
        <ele>305</ele>
        <time>2021-01-10T09:36:39Z</time>
      </trkpt>
      <trkpt lat="44.14788" lon="5.00644">
        <ele>306</ele>
        <time>2021-01-10T09:36:41Z</time>
      </trkpt>
      <trkpt lat="44.14786" lon="5.00643">
        <ele>306</ele>
        <time>2021-01-10T09:36:43Z</time>
      </trkpt>
      <trkpt lat="44.14768" lon="5.00637">
        <ele>310</ele>
        <time>2021-01-10T09:36:54Z</time>
      </trkpt>
      <trkpt lat="44.14761" lon="5.00635">
        <ele>311</ele>
        <time>2021-01-10T09:36:59Z</time>
      </trkpt>
      <trkpt lat="44.14759" lon="5.00636">
        <ele>311</ele>
        <time>2021-01-10T09:37:00Z</time>
      </trkpt>
      <trkpt lat="44.14757" lon="5.00636">
        <ele>312</ele>
        <time>2021-01-10T09:37:01Z</time>
      </trkpt>
      <trkpt lat="44.14755" lon="5.00636">
        <ele>312</ele>
        <time>2021-01-10T09:37:02Z</time>
      </trkpt>
      <trkpt lat="44.14753" lon="5.00637">
        <ele>313</ele>
        <time>2021-01-10T09:37:03Z</time>
      </trkpt>
      <trkpt lat="44.14732" lon="5.00643">
        <ele>316</ele>
        <time>2021-01-10T09:37:15Z</time>
      </trkpt>
      <trkpt lat="44.14721" lon="5.00646">
        <ele>317</ele>
        <time>2021-01-10T09:37:20Z</time>
      </trkpt>
      <trkpt lat="44.14701" lon="5.00657">
        <ele>318</ele>
        <time>2021-01-10T09:37:30Z</time>
      </trkpt>
      <trkpt lat="44.14686" lon="5.00661">
        <ele>316</ele>
        <time>2021-01-10T09:37:37Z</time>
      </trkpt>
      <trkpt lat="44.14685" lon="5.00663">
        <ele>316</ele>
        <time>2021-01-10T09:37:38Z</time>
      </trkpt>
      <trkpt lat="44.14683" lon="5.00665">
        <ele>316</ele>
        <time>2021-01-10T09:37:39Z</time>
      </trkpt>
      <trkpt lat="44.14682" lon="5.00667">
        <ele>316</ele>
        <time>2021-01-10T09:37:40Z</time>
      </trkpt>
      <trkpt lat="44.1468" lon="5.0067">
        <ele>316</ele>
        <time>2021-01-10T09:37:41Z</time>
      </trkpt>
      <trkpt lat="44.14669" lon="5.00696">
        <ele>315</ele>
        <time>2021-01-10T09:37:50Z</time>
      </trkpt>
      <trkpt lat="44.14668" lon="5.00699">
        <ele>315</ele>
        <time>2021-01-10T09:37:51Z</time>
      </trkpt>
      <trkpt lat="44.14667" lon="5.00701">
        <ele>315</ele>
        <time>2021-01-10T09:37:52Z</time>
      </trkpt>
      <trkpt lat="44.14666" lon="5.00704">
        <ele>315</ele>
        <time>2021-01-10T09:37:53Z</time>
      </trkpt>
      <trkpt lat="44.14665" lon="5.00707">
        <ele>315</ele>
        <time>2021-01-10T09:37:54Z</time>
      </trkpt>
      <trkpt lat="44.14665" lon="5.0071">
        <ele>315</ele>
        <time>2021-01-10T09:37:55Z</time>
      </trkpt>
      <trkpt lat="44.14664" lon="5.00714">
        <ele>315</ele>
        <time>2021-01-10T09:37:56Z</time>
      </trkpt>
      <trkpt lat="44.14664" lon="5.00717">
        <ele>316</ele>
        <time>2021-01-10T09:37:57Z</time>
      </trkpt>
      <trkpt lat="44.14663" lon="5.0072">
        <ele>316</ele>
        <time>2021-01-10T09:37:58Z</time>
      </trkpt>
      <trkpt lat="44.14663" lon="5.00723">
        <ele>316</ele>
        <time>2021-01-10T09:37:59Z</time>
      </trkpt>
      <trkpt lat="44.14663" lon="5.00726">
        <ele>316</ele>
        <time>2021-01-10T09:38:00Z</time>
      </trkpt>
      <trkpt lat="44.14663" lon="5.00729">
        <ele>317</ele>
        <time>2021-01-10T09:38:01Z</time>
      </trkpt>
      <trkpt lat="44.14663" lon="5.00733">
        <ele>317</ele>
        <time>2021-01-10T09:38:02Z</time>
      </trkpt>
      <trkpt lat="44.14659" lon="5.00754">
        <ele>320</ele>
        <time>2021-01-10T09:38:11Z</time>
      </trkpt>
      <trkpt lat="44.14647" lon="5.0078">
        <ele>322</ele>
        <time>2021-01-10T09:38:22Z</time>
      </trkpt>
      <trkpt lat="44.14645" lon="5.00782">
        <ele>322</ele>
        <time>2021-01-10T09:38:23Z</time>
      </trkpt>
      <trkpt lat="44.14643" lon="5.00783">
        <ele>322</ele>
        <time>2021-01-10T09:38:24Z</time>
      </trkpt>
      <trkpt lat="44.14642" lon="5.00784">
        <ele>322</ele>
        <time>2021-01-10T09:38:25Z</time>
      </trkpt>
      <trkpt lat="44.1464" lon="5.00785">
        <ele>321</ele>
        <time>2021-01-10T09:38:26Z</time>
      </trkpt>
      <trkpt lat="44.14639" lon="5.00786">
        <ele>321</ele>
        <time>2021-01-10T09:38:27Z</time>
      </trkpt>
      <trkpt lat="44.14637" lon="5.00788">
        <ele>321</ele>
        <time>2021-01-10T09:38:28Z</time>
      </trkpt>
      <trkpt lat="44.14635" lon="5.00789">
        <ele>321</ele>
        <time>2021-01-10T09:38:29Z</time>
      </trkpt>
      <trkpt lat="44.14634" lon="5.0079">
        <ele>321</ele>
        <time>2021-01-10T09:38:30Z</time>
      </trkpt>
      <trkpt lat="44.14633" lon="5.00792">
        <ele>321</ele>
        <time>2021-01-10T09:38:31Z</time>
      </trkpt>
      <trkpt lat="44.14632" lon="5.00795">
        <ele>321</ele>
        <time>2021-01-10T09:38:32Z</time>
      </trkpt>
      <trkpt lat="44.14631" lon="5.00797">
        <ele>322</ele>
        <time>2021-01-10T09:38:33Z</time>
      </trkpt>
      <trkpt lat="44.1463" lon="5.00799">
        <ele>322</ele>
        <time>2021-01-10T09:38:34Z</time>
      </trkpt>
      <trkpt lat="44.14629" lon="5.00803">
        <ele>322</ele>
        <time>2021-01-10T09:38:36Z</time>
      </trkpt>
      <trkpt lat="44.14628" lon="5.00805">
        <ele>322</ele>
        <time>2021-01-10T09:38:37Z</time>
      </trkpt>
      <trkpt lat="44.14627" lon="5.00807">
        <ele>322</ele>
        <time>2021-01-10T09:38:38Z</time>
      </trkpt>
      <trkpt lat="44.14625" lon="5.00808">
        <ele>322</ele>
        <time>2021-01-10T09:38:39Z</time>
      </trkpt>
      <trkpt lat="44.14624" lon="5.0081">
        <ele>322</ele>
        <time>2021-01-10T09:38:40Z</time>
      </trkpt>
      <trkpt lat="44.14623" lon="5.00812">
        <ele>321</ele>
        <time>2021-01-10T09:38:41Z</time>
      </trkpt>
      <trkpt lat="44.14622" lon="5.00814">
        <ele>321</ele>
        <time>2021-01-10T09:38:42Z</time>
      </trkpt>
      <trkpt lat="44.1462" lon="5.00816">
        <ele>321</ele>
        <time>2021-01-10T09:38:43Z</time>
      </trkpt>
      <trkpt lat="44.14615" lon="5.00831">
        <ele>320</ele>
        <time>2021-01-10T09:38:49Z</time>
      </trkpt>
      <trkpt lat="44.14623" lon="5.00863">
        <ele>322</ele>
        <time>2021-01-10T09:39:00Z</time>
      </trkpt>
      <trkpt lat="44.14625" lon="5.00872">
        <ele>323</ele>
        <time>2021-01-10T09:39:03Z</time>
      </trkpt>
      <trkpt lat="44.1463" lon="5.00904">
        <ele>325</ele>
        <time>2021-01-10T09:39:13Z</time>
      </trkpt>
      <trkpt lat="44.14631" lon="5.00918">
        <ele>326</ele>
        <time>2021-01-10T09:39:18Z</time>
      </trkpt>
      <trkpt lat="44.14631" lon="5.00921">
        <ele>326</ele>
        <time>2021-01-10T09:39:19Z</time>
      </trkpt>
      <trkpt lat="44.14631" lon="5.00923">
        <ele>326</ele>
        <time>2021-01-10T09:39:20Z</time>
      </trkpt>
      <trkpt lat="44.1463" lon="5.00925">
        <ele>326</ele>
        <time>2021-01-10T09:39:21Z</time>
      </trkpt>
      <trkpt lat="44.1463" lon="5.00928">
        <ele>326</ele>
        <time>2021-01-10T09:39:22Z</time>
      </trkpt>
      <trkpt lat="44.14629" lon="5.0093">
        <ele>326</ele>
        <time>2021-01-10T09:39:23Z</time>
      </trkpt>
      <trkpt lat="44.14628" lon="5.00932">
        <ele>326</ele>
        <time>2021-01-10T09:39:24Z</time>
      </trkpt>
      <trkpt lat="44.14626" lon="5.00935">
        <ele>326</ele>
        <time>2021-01-10T09:39:26Z</time>
      </trkpt>
      <trkpt lat="44.14624" lon="5.00937">
        <ele>325</ele>
        <time>2021-01-10T09:39:27Z</time>
      </trkpt>
      <trkpt lat="44.14623" lon="5.00939">
        <ele>325</ele>
        <time>2021-01-10T09:39:28Z</time>
      </trkpt>
      <trkpt lat="44.14622" lon="5.00941">
        <ele>325</ele>
        <time>2021-01-10T09:39:29Z</time>
      </trkpt>
      <trkpt lat="44.14621" lon="5.00943">
        <ele>325</ele>
        <time>2021-01-10T09:39:30Z</time>
      </trkpt>
      <trkpt lat="44.14619" lon="5.00945">
        <ele>325</ele>
        <time>2021-01-10T09:39:31Z</time>
      </trkpt>
      <trkpt lat="44.14618" lon="5.00948">
        <ele>325</ele>
        <time>2021-01-10T09:39:32Z</time>
      </trkpt>
      <trkpt lat="44.14617" lon="5.00951">
        <ele>325</ele>
        <time>2021-01-10T09:39:33Z</time>
      </trkpt>
      <trkpt lat="44.14615" lon="5.00954">
        <ele>325</ele>
        <time>2021-01-10T09:39:34Z</time>
      </trkpt>
      <trkpt lat="44.14614" lon="5.00956">
        <ele>325</ele>
        <time>2021-01-10T09:39:35Z</time>
      </trkpt>
      <trkpt lat="44.14612" lon="5.00959">
        <ele>324</ele>
        <time>2021-01-10T09:39:36Z</time>
      </trkpt>
      <trkpt lat="44.14611" lon="5.00961">
        <ele>324</ele>
        <time>2021-01-10T09:39:37Z</time>
      </trkpt>
      <trkpt lat="44.1461" lon="5.00964">
        <ele>324</ele>
        <time>2021-01-10T09:39:38Z</time>
      </trkpt>
      <trkpt lat="44.14609" lon="5.00967">
        <ele>324</ele>
        <time>2021-01-10T09:39:39Z</time>
      </trkpt>
      <trkpt lat="44.14608" lon="5.0097">
        <ele>325</ele>
        <time>2021-01-10T09:39:40Z</time>
      </trkpt>
      <trkpt lat="44.14597" lon="5.00994">
        <ele>325</ele>
        <time>2021-01-10T09:39:49Z</time>
      </trkpt>
      <trkpt lat="44.14584" lon="5.01017">
        <ele>324</ele>
        <time>2021-01-10T09:40:00Z</time>
      </trkpt>
      <trkpt lat="44.14568" lon="5.01044">
        <ele>323</ele>
        <time>2021-01-10T09:40:09Z</time>
      </trkpt>
      <trkpt lat="44.14566" lon="5.01049">
        <ele>323</ele>
        <time>2021-01-10T09:40:11Z</time>
      </trkpt>
      <trkpt lat="44.14565" lon="5.01051">
        <ele>322</ele>
        <time>2021-01-10T09:40:12Z</time>
      </trkpt>
      <trkpt lat="44.14559" lon="5.0106">
        <ele>321</ele>
        <time>2021-01-10T09:40:18Z</time>
      </trkpt>
      <trkpt lat="44.1455" lon="5.01066">
        <ele>319</ele>
        <time>2021-01-10T09:40:23Z</time>
      </trkpt>
      <trkpt lat="44.14532" lon="5.01083">
        <ele>317</ele>
        <time>2021-01-10T09:40:32Z</time>
      </trkpt>
      <trkpt lat="44.14513" lon="5.01099">
        <ele>314</ele>
        <time>2021-01-10T09:40:42Z</time>
      </trkpt>
      <trkpt lat="44.14501" lon="5.01114">
        <ele>311</ele>
        <time>2021-01-10T09:40:49Z</time>
      </trkpt>
      <trkpt lat="44.14499" lon="5.01116">
        <ele>311</ele>
        <time>2021-01-10T09:40:50Z</time>
      </trkpt>
      <trkpt lat="44.14476" lon="5.01131">
        <ele>309</ele>
        <time>2021-01-10T09:41:00Z</time>
      </trkpt>
      <trkpt lat="44.1446" lon="5.01136">
        <ele>311</ele>
        <time>2021-01-10T09:41:08Z</time>
      </trkpt>
      <trkpt lat="44.1443" lon="5.01138">
        <ele>316</ele>
        <time>2021-01-10T09:41:19Z</time>
      </trkpt>
      <trkpt lat="44.14408" lon="5.01145">
        <ele>316</ele>
        <time>2021-01-10T09:41:29Z</time>
      </trkpt>
      <trkpt lat="44.1438" lon="5.01149">
        <ele>310</ele>
        <time>2021-01-10T09:41:41Z</time>
      </trkpt>
      <trkpt lat="44.14358" lon="5.01155">
        <ele>302</ele>
        <time>2021-01-10T09:42:36Z</time>
      </trkpt>
      <trkpt lat="44.14357" lon="5.01157">
        <ele>302</ele>
        <time>2021-01-10T09:42:37Z</time>
      </trkpt>
      <trkpt lat="44.14355" lon="5.01158">
        <ele>301</ele>
        <time>2021-01-10T09:42:38Z</time>
      </trkpt>
      <trkpt lat="44.14354" lon="5.01159">
        <ele>301</ele>
        <time>2021-01-10T09:42:39Z</time>
      </trkpt>
      <trkpt lat="44.14353" lon="5.01161">
        <ele>301</ele>
        <time>2021-01-10T09:42:40Z</time>
      </trkpt>
      <trkpt lat="44.14352" lon="5.01163">
        <ele>301</ele>
        <time>2021-01-10T09:42:41Z</time>
      </trkpt>
      <trkpt lat="44.1435" lon="5.01165">
        <ele>300</ele>
        <time>2021-01-10T09:42:42Z</time>
      </trkpt>
      <trkpt lat="44.14349" lon="5.01167">
        <ele>300</ele>
        <time>2021-01-10T09:42:43Z</time>
      </trkpt>
      <trkpt lat="44.14348" lon="5.01169">
        <ele>300</ele>
        <time>2021-01-10T09:42:44Z</time>
      </trkpt>
      <trkpt lat="44.14347" lon="5.01171">
        <ele>299</ele>
        <time>2021-01-10T09:42:45Z</time>
      </trkpt>
      <trkpt lat="44.14346" lon="5.01173">
        <ele>299</ele>
        <time>2021-01-10T09:42:46Z</time>
      </trkpt>
      <trkpt lat="44.14344" lon="5.01175">
        <ele>299</ele>
        <time>2021-01-10T09:42:47Z</time>
      </trkpt>
      <trkpt lat="44.14343" lon="5.01176">
        <ele>298</ele>
        <time>2021-01-10T09:42:48Z</time>
      </trkpt>
      <trkpt lat="44.14334" lon="5.01183">
        <ele>297</ele>
        <time>2021-01-10T09:42:54Z</time>
      </trkpt>
      <trkpt lat="44.14332" lon="5.01184">
        <ele>297</ele>
        <time>2021-01-10T09:42:55Z</time>
      </trkpt>
      <trkpt lat="44.14315" lon="5.01186">
        <ele>296</ele>
        <time>2021-01-10T09:43:01Z</time>
      </trkpt>
      <trkpt lat="44.14313" lon="5.01187">
        <ele>296</ele>
        <time>2021-01-10T09:43:02Z</time>
      </trkpt>
      <trkpt lat="44.14311" lon="5.01188">
        <ele>296</ele>
        <time>2021-01-10T09:43:03Z</time>
      </trkpt>
      <trkpt lat="44.14308" lon="5.01189">
        <ele>296</ele>
        <time>2021-01-10T09:43:04Z</time>
      </trkpt>
      <trkpt lat="44.14306" lon="5.0119">
        <ele>296</ele>
        <time>2021-01-10T09:43:05Z</time>
      </trkpt>
      <trkpt lat="44.14304" lon="5.01191">
        <ele>295</ele>
        <time>2021-01-10T09:43:06Z</time>
      </trkpt>
      <trkpt lat="44.14283" lon="5.01211">
        <ele>291</ele>
        <time>2021-01-10T09:43:16Z</time>
      </trkpt>
      <trkpt lat="44.1427" lon="5.01221">
        <ele>290</ele>
        <time>2021-01-10T09:43:21Z</time>
      </trkpt>
      <trkpt lat="44.14268" lon="5.01222">
        <ele>290</ele>
        <time>2021-01-10T09:43:22Z</time>
      </trkpt>
      <trkpt lat="44.14265" lon="5.01223">
        <ele>289</ele>
        <time>2021-01-10T09:43:23Z</time>
      </trkpt>
      <trkpt lat="44.14243" lon="5.01229">
        <ele>287</ele>
        <time>2021-01-10T09:43:32Z</time>
      </trkpt>
      <trkpt lat="44.1424" lon="5.01232">
        <ele>286</ele>
        <time>2021-01-10T09:43:33Z</time>
      </trkpt>
      <trkpt lat="44.14238" lon="5.01234">
        <ele>286</ele>
        <time>2021-01-10T09:43:34Z</time>
      </trkpt>
      <trkpt lat="44.14235" lon="5.01235">
        <ele>285</ele>
        <time>2021-01-10T09:43:35Z</time>
      </trkpt>
      <trkpt lat="44.14233" lon="5.01237">
        <ele>285</ele>
        <time>2021-01-10T09:43:36Z</time>
      </trkpt>
      <trkpt lat="44.14228" lon="5.01239">
        <ele>284</ele>
        <time>2021-01-10T09:43:39Z</time>
      </trkpt>
      <trkpt lat="44.14225" lon="5.01239">
        <ele>284</ele>
        <time>2021-01-10T09:43:40Z</time>
      </trkpt>
      <trkpt lat="44.14215" lon="5.01239">
        <ele>284</ele>
        <time>2021-01-10T09:43:45Z</time>
      </trkpt>
      <trkpt lat="44.14212" lon="5.01241">
        <ele>283</ele>
        <time>2021-01-10T09:43:46Z</time>
      </trkpt>
      <trkpt lat="44.1421" lon="5.01242">
        <ele>283</ele>
        <time>2021-01-10T09:43:47Z</time>
      </trkpt>
      <trkpt lat="44.14207" lon="5.01244">
        <ele>282</ele>
        <time>2021-01-10T09:43:48Z</time>
      </trkpt>
      <trkpt lat="44.14204" lon="5.01245">
        <ele>282</ele>
        <time>2021-01-10T09:43:49Z</time>
      </trkpt>
      <trkpt lat="44.14201" lon="5.01245">
        <ele>282</ele>
        <time>2021-01-10T09:43:50Z</time>
      </trkpt>
      <trkpt lat="44.14199" lon="5.01247">
        <ele>281</ele>
        <time>2021-01-10T09:43:51Z</time>
      </trkpt>
      <trkpt lat="44.14167" lon="5.01256">
        <ele>280</ele>
        <time>2021-01-10T09:44:02Z</time>
      </trkpt>
      <trkpt lat="44.14153" lon="5.01262">
        <ele>280</ele>
        <time>2021-01-10T09:44:07Z</time>
      </trkpt>
      <trkpt lat="44.1415" lon="5.01262">
        <ele>280</ele>
        <time>2021-01-10T09:44:08Z</time>
      </trkpt>
      <trkpt lat="44.14148" lon="5.01262">
        <ele>280</ele>
        <time>2021-01-10T09:44:09Z</time>
      </trkpt>
      <trkpt lat="44.14146" lon="5.0126">
        <ele>280</ele>
        <time>2021-01-10T09:44:10Z</time>
      </trkpt>
      <trkpt lat="44.14146" lon="5.01259">
        <ele>280</ele>
        <time>2021-01-10T09:44:11Z</time>
      </trkpt>
      <trkpt lat="44.14146" lon="5.01257">
        <ele>280</ele>
        <time>2021-01-10T09:44:12Z</time>
      </trkpt>
      <trkpt lat="44.14147" lon="5.01246">
        <ele>280</ele>
        <time>2021-01-10T09:44:16Z</time>
      </trkpt>
      <trkpt lat="44.14148" lon="5.01245">
        <ele>280</ele>
        <time>2021-01-10T09:44:17Z</time>
      </trkpt>
      <trkpt lat="44.14158" lon="5.01242">
        <ele>280</ele>
        <time>2021-01-10T09:44:21Z</time>
      </trkpt>
      <trkpt lat="44.14177" lon="5.01222">
        <ele>282</ele>
        <time>2021-01-10T09:44:31Z</time>
      </trkpt>
      <trkpt lat="44.14192" lon="5.0121">
        <ele>283</ele>
        <time>2021-01-10T09:44:38Z</time>
      </trkpt>
      <trkpt lat="44.14202" lon="5.01198">
        <ele>285</ele>
        <time>2021-01-10T09:44:43Z</time>
      </trkpt>
      <trkpt lat="44.14203" lon="5.01196">
        <ele>285</ele>
        <time>2021-01-10T09:44:44Z</time>
      </trkpt>
      <trkpt lat="44.14204" lon="5.01193">
        <ele>285</ele>
        <time>2021-01-10T09:44:45Z</time>
      </trkpt>
      <trkpt lat="44.14206" lon="5.0119">
        <ele>285</ele>
        <time>2021-01-10T09:44:46Z</time>
      </trkpt>
      <trkpt lat="44.14207" lon="5.01188">
        <ele>285</ele>
        <time>2021-01-10T09:44:47Z</time>
      </trkpt>
      <trkpt lat="44.14208" lon="5.01187">
        <ele>285</ele>
        <time>2021-01-10T09:44:48Z</time>
      </trkpt>
      <trkpt lat="44.1421" lon="5.01184">
        <ele>285</ele>
        <time>2021-01-10T09:44:57Z</time>
      </trkpt>
      <trkpt lat="44.1422" lon="5.01177">
        <ele>286</ele>
        <time>2021-01-10T09:45:05Z</time>
      </trkpt>
      <trkpt lat="44.14222" lon="5.01176">
        <ele>286</ele>
        <time>2021-01-10T09:45:06Z</time>
      </trkpt>
      <trkpt lat="44.1423" lon="5.01169">
        <ele>287</ele>
        <time>2021-01-10T09:45:11Z</time>
      </trkpt>
      <trkpt lat="44.14248" lon="5.01154">
        <ele>288</ele>
        <time>2021-01-10T09:45:21Z</time>
      </trkpt>
      <trkpt lat="44.14268" lon="5.01143">
        <ele>290</ele>
        <time>2021-01-10T09:45:30Z</time>
      </trkpt>
      <trkpt lat="44.14289" lon="5.01125">
        <ele>292</ele>
        <time>2021-01-10T09:45:40Z</time>
      </trkpt>
      <trkpt lat="44.14303" lon="5.01104">
        <ele>292</ele>
        <time>2021-01-10T09:45:48Z</time>
      </trkpt>
      <trkpt lat="44.14319" lon="5.0108">
        <ele>293</ele>
        <time>2021-01-10T09:45:59Z</time>
      </trkpt>
      <trkpt lat="44.14323" lon="5.01076">
        <ele>293</ele>
        <time>2021-01-10T09:46:01Z</time>
      </trkpt>
      <trkpt lat="44.14335" lon="5.01066">
        <ele>294</ele>
        <time>2021-01-10T09:46:08Z</time>
      </trkpt>
      <trkpt lat="44.1434" lon="5.01066">
        <ele>295</ele>
        <time>2021-01-10T09:46:12Z</time>
      </trkpt>
      <trkpt lat="44.14342" lon="5.01068">
        <ele>296</ele>
        <time>2021-01-10T09:46:13Z</time>
      </trkpt>
      <trkpt lat="44.14344" lon="5.01069">
        <ele>296</ele>
        <time>2021-01-10T09:46:14Z</time>
      </trkpt>
      <trkpt lat="44.14345" lon="5.01071">
        <ele>297</ele>
        <time>2021-01-10T09:46:15Z</time>
      </trkpt>
      <trkpt lat="44.14347" lon="5.01072">
        <ele>297</ele>
        <time>2021-01-10T09:46:16Z</time>
      </trkpt>
      <trkpt lat="44.14349" lon="5.01073">
        <ele>298</ele>
        <time>2021-01-10T09:46:17Z</time>
      </trkpt>
      <trkpt lat="44.1435" lon="5.01075">
        <ele>298</ele>
        <time>2021-01-10T09:46:18Z</time>
      </trkpt>
      <trkpt lat="44.14363" lon="5.01082">
        <ele>302</ele>
        <time>2021-01-10T09:46:30Z</time>
      </trkpt>
      <trkpt lat="44.14366" lon="5.01073">
        <ele>302</ele>
        <time>2021-01-10T09:46:41Z</time>
      </trkpt>
      <trkpt lat="44.14367" lon="5.01069">
        <ele>301</ele>
        <time>2021-01-10T09:46:43Z</time>
      </trkpt>
      <trkpt lat="44.14369" lon="5.01065">
        <ele>301</ele>
        <time>2021-01-10T09:46:45Z</time>
      </trkpt>
      <trkpt lat="44.14369" lon="5.01063">
        <ele>301</ele>
        <time>2021-01-10T09:46:46Z</time>
      </trkpt>
      <trkpt lat="44.14368" lon="5.01061">
        <ele>300</ele>
        <time>2021-01-10T09:46:47Z</time>
      </trkpt>
      <trkpt lat="44.14368" lon="5.01059">
        <ele>300</ele>
        <time>2021-01-10T09:46:48Z</time>
      </trkpt>
      <trkpt lat="44.14368" lon="5.01058">
        <ele>300</ele>
        <time>2021-01-10T09:46:49Z</time>
      </trkpt>
      <trkpt lat="44.14368" lon="5.01056">
        <ele>300</ele>
        <time>2021-01-10T09:46:50Z</time>
      </trkpt>
      <trkpt lat="44.1437" lon="5.01053">
        <ele>300</ele>
        <time>2021-01-10T09:46:51Z</time>
      </trkpt>
      <trkpt lat="44.14374" lon="5.01048">
        <ele>300</ele>
        <time>2021-01-10T09:46:55Z</time>
      </trkpt>
      <trkpt lat="44.14375" lon="5.01047">
        <ele>300</ele>
        <time>2021-01-10T09:46:56Z</time>
      </trkpt>
      <trkpt lat="44.14377" lon="5.01046">
        <ele>301</ele>
        <time>2021-01-10T09:46:57Z</time>
      </trkpt>
      <trkpt lat="44.14378" lon="5.01044">
        <ele>301</ele>
        <time>2021-01-10T09:46:58Z</time>
      </trkpt>
      <trkpt lat="44.1438" lon="5.01042">
        <ele>301</ele>
        <time>2021-01-10T09:46:59Z</time>
      </trkpt>
      <trkpt lat="44.14382" lon="5.01041">
        <ele>301</ele>
        <time>2021-01-10T09:47:00Z</time>
      </trkpt>
      <trkpt lat="44.14384" lon="5.01039">
        <ele>301</ele>
        <time>2021-01-10T09:47:01Z</time>
      </trkpt>
      <trkpt lat="44.14386" lon="5.01038">
        <ele>301</ele>
        <time>2021-01-10T09:47:02Z</time>
      </trkpt>
      <trkpt lat="44.14387" lon="5.01036">
        <ele>300</ele>
        <time>2021-01-10T09:47:03Z</time>
      </trkpt>
      <trkpt lat="44.14397" lon="5.01022">
        <ele>298</ele>
        <time>2021-01-10T09:47:09Z</time>
      </trkpt>
      <trkpt lat="44.14397" lon="5.0102">
        <ele>298</ele>
        <time>2021-01-10T09:47:10Z</time>
      </trkpt>
      <trkpt lat="44.14398" lon="5.01017">
        <ele>297</ele>
        <time>2021-01-10T09:47:11Z</time>
      </trkpt>
      <trkpt lat="44.14399" lon="5.01016">
        <ele>297</ele>
        <time>2021-01-10T09:47:12Z</time>
      </trkpt>
      <trkpt lat="44.14402" lon="5.01014">
        <ele>296</ele>
        <time>2021-01-10T09:47:14Z</time>
      </trkpt>
      <trkpt lat="44.14404" lon="5.01013">
        <ele>296</ele>
        <time>2021-01-10T09:47:15Z</time>
      </trkpt>
      <trkpt lat="44.14408" lon="5.01013">
        <ele>296</ele>
        <time>2021-01-10T09:47:17Z</time>
      </trkpt>
      <trkpt lat="44.14414" lon="5.01008">
        <ele>295</ele>
        <time>2021-01-10T09:47:21Z</time>
      </trkpt>
      <trkpt lat="44.14415" lon="5.01006">
        <ele>294</ele>
        <time>2021-01-10T09:47:22Z</time>
      </trkpt>
      <trkpt lat="44.14417" lon="5.01003">
        <ele>294</ele>
        <time>2021-01-10T09:47:23Z</time>
      </trkpt>
      <trkpt lat="44.14419" lon="5.01001">
        <ele>293</ele>
        <time>2021-01-10T09:47:24Z</time>
      </trkpt>
      <trkpt lat="44.14421" lon="5.00998">
        <ele>293</ele>
        <time>2021-01-10T09:47:25Z</time>
      </trkpt>
      <trkpt lat="44.14423" lon="5.00995">
        <ele>292</ele>
        <time>2021-01-10T09:47:26Z</time>
      </trkpt>
      <trkpt lat="44.14425" lon="5.00994">
        <ele>292</ele>
        <time>2021-01-10T09:47:27Z</time>
      </trkpt>
      <trkpt lat="44.14426" lon="5.00991">
        <ele>292</ele>
        <time>2021-01-10T09:47:28Z</time>
      </trkpt>
      <trkpt lat="44.14442" lon="5.00961">
        <ele>286</ele>
        <time>2021-01-10T09:47:38Z</time>
      </trkpt>
      <trkpt lat="44.14463" lon="5.00927">
        <ele>283</ele>
        <time>2021-01-10T09:47:49Z</time>
      </trkpt>
      <trkpt lat="44.14474" lon="5.0091">
        <ele>282</ele>
        <time>2021-01-10T09:47:55Z</time>
      </trkpt>
      <trkpt lat="44.14475" lon="5.00907">
        <ele>282</ele>
        <time>2021-01-10T09:47:56Z</time>
      </trkpt>
      <trkpt lat="44.14475" lon="5.00904">
        <ele>282</ele>
        <time>2021-01-10T09:47:57Z</time>
      </trkpt>
      <trkpt lat="44.14475" lon="5.00902">
        <ele>281</ele>
        <time>2021-01-10T09:47:58Z</time>
      </trkpt>
      <trkpt lat="44.14474" lon="5.00899">
        <ele>281</ele>
        <time>2021-01-10T09:47:59Z</time>
      </trkpt>
      <trkpt lat="44.14464" lon="5.00891">
        <ele>278</ele>
        <time>2021-01-10T09:48:05Z</time>
      </trkpt>
      <trkpt lat="44.14446" lon="5.0087">
        <ele>274</ele>
        <time>2021-01-10T09:48:14Z</time>
      </trkpt>
      <trkpt lat="44.14443" lon="5.00865">
        <ele>273</ele>
        <time>2021-01-10T09:48:16Z</time>
      </trkpt>
      <trkpt lat="44.14442" lon="5.00862">
        <ele>273</ele>
        <time>2021-01-10T09:48:17Z</time>
      </trkpt>
      <trkpt lat="44.14441" lon="5.00858">
        <ele>273</ele>
        <time>2021-01-10T09:48:18Z</time>
      </trkpt>
      <trkpt lat="44.14429" lon="5.00838">
        <ele>271</ele>
        <time>2021-01-10T09:48:26Z</time>
      </trkpt>
      <trkpt lat="44.14427" lon="5.00835">
        <ele>270</ele>
        <time>2021-01-10T09:48:27Z</time>
      </trkpt>
      <trkpt lat="44.14419" lon="5.00809">
        <ele>266</ele>
        <time>2021-01-10T09:48:35Z</time>
      </trkpt>
      <trkpt lat="44.14414" lon="5.00793">
        <ele>264</ele>
        <time>2021-01-10T09:48:40Z</time>
      </trkpt>
      <trkpt lat="44.14414" lon="5.0079">
        <ele>264</ele>
        <time>2021-01-10T09:48:41Z</time>
      </trkpt>
      <trkpt lat="44.14414" lon="5.00786">
        <ele>263</ele>
        <time>2021-01-10T09:48:42Z</time>
      </trkpt>
      <trkpt lat="44.14414" lon="5.00783">
        <ele>263</ele>
        <time>2021-01-10T09:48:43Z</time>
      </trkpt>
      <trkpt lat="44.14414" lon="5.0078">
        <ele>263</ele>
        <time>2021-01-10T09:48:44Z</time>
      </trkpt>
      <trkpt lat="44.14414" lon="5.00776">
        <ele>262</ele>
        <time>2021-01-10T09:48:45Z</time>
      </trkpt>
      <trkpt lat="44.14413" lon="5.00773">
        <ele>262</ele>
        <time>2021-01-10T09:48:46Z</time>
      </trkpt>
      <trkpt lat="44.14413" lon="5.00766">
        <ele>261</ele>
        <time>2021-01-10T09:48:48Z</time>
      </trkpt>
      <trkpt lat="44.14414" lon="5.00763">
        <ele>261</ele>
        <time>2021-01-10T09:48:49Z</time>
      </trkpt>
      <trkpt lat="44.14415" lon="5.00761">
        <ele>262</ele>
        <time>2021-01-10T09:48:50Z</time>
      </trkpt>
      <trkpt lat="44.14416" lon="5.00758">
        <ele>262</ele>
        <time>2021-01-10T09:48:51Z</time>
      </trkpt>
      <trkpt lat="44.14418" lon="5.00755">
        <ele>263</ele>
        <time>2021-01-10T09:48:52Z</time>
      </trkpt>
      <trkpt lat="44.14419" lon="5.00752">
        <ele>264</ele>
        <time>2021-01-10T09:48:53Z</time>
      </trkpt>
      <trkpt lat="44.14426" lon="5.00738">
        <ele>266</ele>
        <time>2021-01-10T09:48:58Z</time>
      </trkpt>
      <trkpt lat="44.1443" lon="5.00733">
        <ele>268</ele>
        <time>2021-01-10T09:49:01Z</time>
      </trkpt>
      <trkpt lat="44.14431" lon="5.00732">
        <ele>269</ele>
        <time>2021-01-10T09:49:02Z</time>
      </trkpt>
      <trkpt lat="44.14433" lon="5.0073">
        <ele>269</ele>
        <time>2021-01-10T09:49:03Z</time>
      </trkpt>
      <trkpt lat="44.14434" lon="5.00728">
        <ele>270</ele>
        <time>2021-01-10T09:49:04Z</time>
      </trkpt>
      <trkpt lat="44.14434" lon="5.00724">
        <ele>269</ele>
        <time>2021-01-10T09:49:06Z</time>
      </trkpt>
      <trkpt lat="44.14435" lon="5.00722">
        <ele>269</ele>
        <time>2021-01-10T09:49:07Z</time>
      </trkpt>
      <trkpt lat="44.14435" lon="5.00719">
        <ele>269</ele>
        <time>2021-01-10T09:49:08Z</time>
      </trkpt>
      <trkpt lat="44.14435" lon="5.00716">
        <ele>268</ele>
        <time>2021-01-10T09:49:09Z</time>
      </trkpt>
      <trkpt lat="44.14435" lon="5.00713">
        <ele>268</ele>
        <time>2021-01-10T09:49:10Z</time>
      </trkpt>
      <trkpt lat="44.14436" lon="5.00711">
        <ele>267</ele>
        <time>2021-01-10T09:49:11Z</time>
      </trkpt>
      <trkpt lat="44.14436" lon="5.00708">
        <ele>267</ele>
        <time>2021-01-10T09:49:12Z</time>
      </trkpt>
      <trkpt lat="44.14437" lon="5.00706">
        <ele>267</ele>
        <time>2021-01-10T09:49:13Z</time>
      </trkpt>
      <trkpt lat="44.14438" lon="5.00703">
        <ele>267</ele>
        <time>2021-01-10T09:49:14Z</time>
      </trkpt>
      <trkpt lat="44.14443" lon="5.00695">
        <ele>267</ele>
        <time>2021-01-10T09:49:18Z</time>
      </trkpt>
      <trkpt lat="44.14447" lon="5.00691">
        <ele>267</ele>
        <time>2021-01-10T09:49:21Z</time>
      </trkpt>
      <trkpt lat="44.14453" lon="5.00677">
        <ele>266</ele>
        <time>2021-01-10T09:49:29Z</time>
      </trkpt>
      <trkpt lat="44.14453" lon="5.00675">
        <ele>266</ele>
        <time>2021-01-10T09:49:30Z</time>
      </trkpt>
      <trkpt lat="44.14453" lon="5.00673">
        <ele>265</ele>
        <time>2021-01-10T09:49:31Z</time>
      </trkpt>
      <trkpt lat="44.14455" lon="5.00671">
        <ele>265</ele>
        <time>2021-01-10T09:49:32Z</time>
      </trkpt>
      <trkpt lat="44.14456" lon="5.00669">
        <ele>266</ele>
        <time>2021-01-10T09:49:33Z</time>
      </trkpt>
      <trkpt lat="44.14457" lon="5.00667">
        <ele>266</ele>
        <time>2021-01-10T09:49:34Z</time>
      </trkpt>
      <trkpt lat="44.14458" lon="5.00664">
        <ele>265</ele>
        <time>2021-01-10T09:49:35Z</time>
      </trkpt>
      <trkpt lat="44.14459" lon="5.00661">
        <ele>264</ele>
        <time>2021-01-10T09:49:36Z</time>
      </trkpt>
      <trkpt lat="44.14458" lon="5.00657">
        <ele>263</ele>
        <time>2021-01-10T09:49:37Z</time>
      </trkpt>
      <trkpt lat="44.14458" lon="5.00654">
        <ele>263</ele>
        <time>2021-01-10T09:49:38Z</time>
      </trkpt>
      <trkpt lat="44.14461" lon="5.00641">
        <ele>260</ele>
        <time>2021-01-10T09:50:34Z</time>
      </trkpt>
      <trkpt lat="44.14473" lon="5.00634">
        <ele>262</ele>
        <time>2021-01-10T09:50:42Z</time>
      </trkpt>
      <trkpt lat="44.14484" lon="5.00628">
        <ele>263</ele>
        <time>2021-01-10T09:50:48Z</time>
      </trkpt>
      <trkpt lat="44.14486" lon="5.00628">
        <ele>263</ele>
        <time>2021-01-10T09:50:49Z</time>
      </trkpt>
      <trkpt lat="44.14492" lon="5.00624">
        <ele>263</ele>
        <time>2021-01-10T09:50:53Z</time>
      </trkpt>
      <trkpt lat="44.14494" lon="5.00622">
        <ele>263</ele>
        <time>2021-01-10T09:50:54Z</time>
      </trkpt>
      <trkpt lat="44.14511" lon="5.00608">
        <ele>260</ele>
        <time>2021-01-10T09:51:03Z</time>
      </trkpt>
      <trkpt lat="44.14526" lon="5.006">
        <ele>259</ele>
        <time>2021-01-10T09:51:09Z</time>
      </trkpt>
      <trkpt lat="44.14528" lon="5.00598">
        <ele>259</ele>
        <time>2021-01-10T09:51:10Z</time>
      </trkpt>
      <trkpt lat="44.14542" lon="5.00576">
        <ele>260</ele>
        <time>2021-01-10T09:51:18Z</time>
      </trkpt>
      <trkpt lat="44.14549" lon="5.00564">
        <ele>261</ele>
        <time>2021-01-10T09:51:23Z</time>
      </trkpt>
      <trkpt lat="44.14549" lon="5.00561">
        <ele>261</ele>
        <time>2021-01-10T09:51:24Z</time>
      </trkpt>
      <trkpt lat="44.1455" lon="5.00559">
        <ele>261</ele>
        <time>2021-01-10T09:51:25Z</time>
      </trkpt>
      <trkpt lat="44.14551" lon="5.00556">
        <ele>260</ele>
        <time>2021-01-10T09:51:26Z</time>
      </trkpt>
      <trkpt lat="44.14552" lon="5.00553">
        <ele>260</ele>
        <time>2021-01-10T09:51:27Z</time>
      </trkpt>
      <trkpt lat="44.14553" lon="5.0055">
        <ele>261</ele>
        <time>2021-01-10T09:51:28Z</time>
      </trkpt>
      <trkpt lat="44.14555" lon="5.00548">
        <ele>261</ele>
        <time>2021-01-10T09:51:29Z</time>
      </trkpt>
      <trkpt lat="44.14557" lon="5.00546">
        <ele>261</ele>
        <time>2021-01-10T09:51:30Z</time>
      </trkpt>
      <trkpt lat="44.14559" lon="5.00544">
        <ele>261</ele>
        <time>2021-01-10T09:51:31Z</time>
      </trkpt>
      <trkpt lat="44.14561" lon="5.00543">
        <ele>262</ele>
        <time>2021-01-10T09:51:32Z</time>
      </trkpt>
      <trkpt lat="44.14563" lon="5.00541">
        <ele>262</ele>
        <time>2021-01-10T09:51:33Z</time>
      </trkpt>
      <trkpt lat="44.14565" lon="5.00539">
        <ele>263</ele>
        <time>2021-01-10T09:51:34Z</time>
      </trkpt>
      <trkpt lat="44.14584" lon="5.00527">
        <ele>265</ele>
        <time>2021-01-10T09:51:44Z</time>
      </trkpt>
      <trkpt lat="44.14599" lon="5.00522">
        <ele>269</ele>
        <time>2021-01-10T09:51:53Z</time>
      </trkpt>
      <trkpt lat="44.14616" lon="5.00516">
        <ele>273</ele>
        <time>2021-01-10T09:52:03Z</time>
      </trkpt>
      <trkpt lat="44.14627" lon="5.00509">
        <ele>274</ele>
        <time>2021-01-10T09:52:10Z</time>
      </trkpt>
      <trkpt lat="44.14629" lon="5.00507">
        <ele>274</ele>
        <time>2021-01-10T09:52:11Z</time>
      </trkpt>
      <trkpt lat="44.14643" lon="5.00496">
        <ele>274</ele>
        <time>2021-01-10T09:52:19Z</time>
      </trkpt>
      <trkpt lat="44.14657" lon="5.00488">
        <ele>274</ele>
        <time>2021-01-10T09:52:27Z</time>
      </trkpt>
      <trkpt lat="44.14657" lon="5.00485">
        <ele>273</ele>
        <time>2021-01-10T09:52:30Z</time>
      </trkpt>
      <trkpt lat="44.14656" lon="5.00483">
        <ele>272</ele>
        <time>2021-01-10T09:52:33Z</time>
      </trkpt>
      <trkpt lat="44.14651" lon="5.00483">
        <ele>271</ele>
        <time>2021-01-10T09:52:44Z</time>
      </trkpt>
      <trkpt lat="44.1465" lon="5.00483">
        <ele>271</ele>
        <time>2021-01-10T09:52:45Z</time>
      </trkpt>
      <trkpt lat="44.14648" lon="5.00483">
        <ele>271</ele>
        <time>2021-01-10T09:52:46Z</time>
      </trkpt>
      <trkpt lat="44.14646" lon="5.00482">
        <ele>270</ele>
        <time>2021-01-10T09:52:47Z</time>
      </trkpt>
      <trkpt lat="44.14644" lon="5.00481">
        <ele>269</ele>
        <time>2021-01-10T09:52:48Z</time>
      </trkpt>
      <trkpt lat="44.14643" lon="5.0048">
        <ele>269</ele>
        <time>2021-01-10T09:52:49Z</time>
      </trkpt>
      <trkpt lat="44.14635" lon="5.00476">
        <ele>266</ele>
        <time>2021-01-10T09:52:54Z</time>
      </trkpt>
      <trkpt lat="44.14621" lon="5.00465">
        <ele>259</ele>
        <time>2021-01-10T09:53:03Z</time>
      </trkpt>
      <trkpt lat="44.14616" lon="5.00456">
        <ele>256</ele>
        <time>2021-01-10T09:53:09Z</time>
      </trkpt>
      <trkpt lat="44.14612" lon="5.00453">
        <ele>254</ele>
        <time>2021-01-10T09:53:12Z</time>
      </trkpt>
      <trkpt lat="44.1461" lon="5.00451">
        <ele>253</ele>
        <time>2021-01-10T09:53:14Z</time>
      </trkpt>
      <trkpt lat="44.14608" lon="5.0045">
        <ele>252</ele>
        <time>2021-01-10T09:53:15Z</time>
      </trkpt>
      <trkpt lat="44.14602" lon="5.00444">
        <ele>249</ele>
        <time>2021-01-10T09:53:20Z</time>
      </trkpt>
      <trkpt lat="44.1459" lon="5.00441">
        <ele>246</ele>
        <time>2021-01-10T09:53:28Z</time>
      </trkpt>
      <trkpt lat="44.14584" lon="5.00442">
        <ele>244</ele>
        <time>2021-01-10T09:53:33Z</time>
      </trkpt>
      <trkpt lat="44.14569" lon="5.00443">
        <ele>244</ele>
        <time>2021-01-10T09:53:40Z</time>
      </trkpt>
      <trkpt lat="44.14553" lon="5.00436">
        <ele>241</ele>
        <time>2021-01-10T09:53:47Z</time>
      </trkpt>
      <trkpt lat="44.14551" lon="5.00435">
        <ele>240</ele>
        <time>2021-01-10T09:53:48Z</time>
      </trkpt>
      <trkpt lat="44.14538" lon="5.00431">
        <ele>237</ele>
        <time>2021-01-10T09:53:54Z</time>
      </trkpt>
      <trkpt lat="44.1453" lon="5.00429">
        <ele>235</ele>
        <time>2021-01-10T09:53:58Z</time>
      </trkpt>
      <trkpt lat="44.14514" lon="5.00426">
        <ele>232</ele>
        <time>2021-01-10T09:54:06Z</time>
      </trkpt>
      <trkpt lat="44.14511" lon="5.00429">
        <ele>233</ele>
        <time>2021-01-10T09:54:09Z</time>
      </trkpt>
      <trkpt lat="44.1451" lon="5.00431">
        <ele>233</ele>
        <time>2021-01-10T09:54:10Z</time>
      </trkpt>
      <trkpt lat="44.14507" lon="5.00436">
        <ele>234</ele>
        <time>2021-01-10T09:54:14Z</time>
      </trkpt>
      <trkpt lat="44.14506" lon="5.00437">
        <ele>234</ele>
        <time>2021-01-10T09:54:15Z</time>
      </trkpt>
      <trkpt lat="44.14504" lon="5.00438">
        <ele>234</ele>
        <time>2021-01-10T09:54:16Z</time>
      </trkpt>
      <trkpt lat="44.14499" lon="5.0044">
        <ele>234</ele>
        <time>2021-01-10T09:54:21Z</time>
      </trkpt>
      <trkpt lat="44.14491" lon="5.00446">
        <ele>233</ele>
        <time>2021-01-10T09:54:25Z</time>
      </trkpt>
      <trkpt lat="44.14489" lon="5.00447">
        <ele>233</ele>
        <time>2021-01-10T09:54:26Z</time>
      </trkpt>
      <trkpt lat="44.14487" lon="5.00447">
        <ele>232</ele>
        <time>2021-01-10T09:54:27Z</time>
      </trkpt>
      <trkpt lat="44.14485" lon="5.00447">
        <ele>232</ele>
        <time>2021-01-10T09:54:28Z</time>
      </trkpt>
      <trkpt lat="44.14483" lon="5.00446">
        <ele>231</ele>
        <time>2021-01-10T09:54:29Z</time>
      </trkpt>
      <trkpt lat="44.1448" lon="5.00445">
        <ele>230</ele>
        <time>2021-01-10T09:54:30Z</time>
      </trkpt>
      <trkpt lat="44.14479" lon="5.00444">
        <ele>230</ele>
        <time>2021-01-10T09:54:31Z</time>
      </trkpt>
      <trkpt lat="44.14477" lon="5.00444">
        <ele>229</ele>
        <time>2021-01-10T09:54:32Z</time>
      </trkpt>
      <trkpt lat="44.14475" lon="5.00443">
        <ele>228</ele>
        <time>2021-01-10T09:54:33Z</time>
      </trkpt>
      <trkpt lat="44.14463" lon="5.00428">
        <ele>223</ele>
        <time>2021-01-10T09:54:42Z</time>
      </trkpt>
      <trkpt lat="44.14461" lon="5.00424">
        <ele>222</ele>
        <time>2021-01-10T09:54:44Z</time>
      </trkpt>
      <trkpt lat="44.14457" lon="5.0042">
        <ele>221</ele>
        <time>2021-01-10T09:54:46Z</time>
      </trkpt>
      <trkpt lat="44.14449" lon="5.00415">
        <ele>219</ele>
        <time>2021-01-10T09:54:51Z</time>
      </trkpt>
      <trkpt lat="44.14447" lon="5.00415">
        <ele>219</ele>
        <time>2021-01-10T09:54:52Z</time>
      </trkpt>
      <trkpt lat="44.14445" lon="5.00414">
        <ele>219</ele>
        <time>2021-01-10T09:54:54Z</time>
      </trkpt>
      <trkpt lat="44.14443" lon="5.0041">
        <ele>218</ele>
        <time>2021-01-10T09:54:57Z</time>
      </trkpt>
      <trkpt lat="44.14441" lon="5.00405">
        <ele>217</ele>
        <time>2021-01-10T09:54:59Z</time>
      </trkpt>
      <trkpt lat="44.14435" lon="5.00393">
        <ele>214</ele>
        <time>2021-01-10T09:55:09Z</time>
      </trkpt>
      <trkpt lat="44.14422" lon="5.00381">
        <ele>212</ele>
        <time>2021-01-10T09:55:22Z</time>
      </trkpt>
      <trkpt lat="44.14416" lon="5.00374">
        <ele>211</ele>
        <time>2021-01-10T09:55:27Z</time>
      </trkpt>
      <trkpt lat="44.14414" lon="5.00373">
        <ele>211</ele>
        <time>2021-01-10T09:55:28Z</time>
      </trkpt>
      <trkpt lat="44.14412" lon="5.00372">
        <ele>211</ele>
        <time>2021-01-10T09:55:29Z</time>
      </trkpt>
      <trkpt lat="44.1439" lon="5.00369">
        <ele>210</ele>
        <time>2021-01-10T09:55:40Z</time>
      </trkpt>
      <trkpt lat="44.14361" lon="5.00359">
        <ele>210</ele>
        <time>2021-01-10T09:55:54Z</time>
      </trkpt>
      <trkpt lat="44.14349" lon="5.00348">
        <ele>210</ele>
        <time>2021-01-10T09:56:01Z</time>
      </trkpt>
      <trkpt lat="44.1434" lon="5.00344">
        <ele>210</ele>
        <time>2021-01-10T09:56:04Z</time>
      </trkpt>
      <trkpt lat="44.14338" lon="5.00341">
        <ele>210</ele>
        <time>2021-01-10T09:56:05Z</time>
      </trkpt>
      <trkpt lat="44.14335" lon="5.0034">
        <ele>209</ele>
        <time>2021-01-10T09:56:06Z</time>
      </trkpt>
      <trkpt lat="44.14332" lon="5.00338">
        <ele>209</ele>
        <time>2021-01-10T09:56:07Z</time>
      </trkpt>
      <trkpt lat="44.14329" lon="5.00336">
        <ele>209</ele>
        <time>2021-01-10T09:56:08Z</time>
      </trkpt>
      <trkpt lat="44.14327" lon="5.00335">
        <ele>208</ele>
        <time>2021-01-10T09:56:09Z</time>
      </trkpt>
      <trkpt lat="44.14324" lon="5.00332">
        <ele>208</ele>
        <time>2021-01-10T09:56:10Z</time>
      </trkpt>
      <trkpt lat="44.14322" lon="5.0033">
        <ele>207</ele>
        <time>2021-01-10T09:56:11Z</time>
      </trkpt>
      <trkpt lat="44.14313" lon="5.00318">
        <ele>206</ele>
        <time>2021-01-10T09:56:18Z</time>
      </trkpt>
      <trkpt lat="44.14313" lon="5.00318">
        <ele>206</ele>
        <time>2021-01-10T09:56:19Z</time>
      </trkpt>
      <trkpt lat="44.14307" lon="5.00331">
        <ele>205</ele>
        <time>2021-01-10T09:56:33Z</time>
      </trkpt>
      <trkpt lat="44.14305" lon="5.00333">
        <ele>205</ele>
        <time>2021-01-10T09:56:35Z</time>
      </trkpt>
      <trkpt lat="44.14295" lon="5.00347">
        <ele>207</ele>
        <time>2021-01-10T09:56:46Z</time>
      </trkpt>
      <trkpt lat="44.14281" lon="5.00357">
        <ele>208</ele>
        <time>2021-01-10T09:56:56Z</time>
      </trkpt>
      <trkpt lat="44.14268" lon="5.00367">
        <ele>210</ele>
        <time>2021-01-10T09:57:06Z</time>
      </trkpt>
      <trkpt lat="44.14266" lon="5.00369">
        <ele>210</ele>
        <time>2021-01-10T09:57:08Z</time>
      </trkpt>
      <trkpt lat="44.14265" lon="5.0037">
        <ele>210</ele>
        <time>2021-01-10T09:57:09Z</time>
      </trkpt>
      <trkpt lat="44.14266" lon="5.00376">
        <ele>211</ele>
        <time>2021-01-10T09:57:12Z</time>
      </trkpt>
      <trkpt lat="44.14267" lon="5.00382">
        <ele>211</ele>
        <time>2021-01-10T09:57:16Z</time>
      </trkpt>
      <trkpt lat="44.1427" lon="5.00404">
        <ele>213</ele>
        <time>2021-01-10T09:57:28Z</time>
      </trkpt>
      <trkpt lat="44.14269" lon="5.00409">
        <ele>214</ele>
        <time>2021-01-10T09:57:30Z</time>
      </trkpt>
      <trkpt lat="44.1427" lon="5.00413">
        <ele>214</ele>
        <time>2021-01-10T09:57:31Z</time>
      </trkpt>
      <trkpt lat="44.1427" lon="5.00414">
        <ele>215</ele>
        <time>2021-01-10T09:57:32Z</time>
      </trkpt>
      <trkpt lat="44.14271" lon="5.00417">
        <ele>215</ele>
        <time>2021-01-10T09:57:33Z</time>
      </trkpt>
      <trkpt lat="44.14271" lon="5.00419">
        <ele>215</ele>
        <time>2021-01-10T09:57:34Z</time>
      </trkpt>
      <trkpt lat="44.14271" lon="5.00422">
        <ele>216</ele>
        <time>2021-01-10T09:57:36Z</time>
      </trkpt>
      <trkpt lat="44.14277" lon="5.00441">
        <ele>218</ele>
        <time>2021-01-10T09:57:48Z</time>
      </trkpt>
      <trkpt lat="44.14278" lon="5.00447">
        <ele>219</ele>
        <time>2021-01-10T09:57:53Z</time>
      </trkpt>
      <trkpt lat="44.14278" lon="5.00449">
        <ele>220</ele>
        <time>2021-01-10T09:57:54Z</time>
      </trkpt>
      <trkpt lat="44.14278" lon="5.00454">
        <ele>220</ele>
        <time>2021-01-10T09:57:58Z</time>
      </trkpt>
      <trkpt lat="44.14279" lon="5.00462">
        <ele>222</ele>
        <time>2021-01-10T09:58:05Z</time>
      </trkpt>
      <trkpt lat="44.14278" lon="5.00463">
        <ele>222</ele>
        <time>2021-01-10T09:58:06Z</time>
      </trkpt>
      <trkpt lat="44.14277" lon="5.00463">
        <ele>222</ele>
        <time>2021-01-10T09:58:07Z</time>
      </trkpt>
      <trkpt lat="44.14275" lon="5.00462">
        <ele>221</ele>
        <time>2021-01-10T09:58:08Z</time>
      </trkpt>
      <trkpt lat="44.14274" lon="5.00462">
        <ele>221</ele>
        <time>2021-01-10T09:58:09Z</time>
      </trkpt>
      <trkpt lat="44.14259" lon="5.0046">
        <ele>220</ele>
        <time>2021-01-10T09:58:20Z</time>
      </trkpt>
      <trkpt lat="44.14258" lon="5.0046">
        <ele>220</ele>
        <time>2021-01-10T09:58:21Z</time>
      </trkpt>
      <trkpt lat="44.14256" lon="5.0046">
        <ele>220</ele>
        <time>2021-01-10T09:58:22Z</time>
      </trkpt>
      <trkpt lat="44.14255" lon="5.0046">
        <ele>220</ele>
        <time>2021-01-10T09:58:23Z</time>
      </trkpt>
      <trkpt lat="44.14253" lon="5.0046">
        <ele>220</ele>
        <time>2021-01-10T09:58:24Z</time>
      </trkpt>
      <trkpt lat="44.14251" lon="5.0046">
        <ele>220</ele>
        <time>2021-01-10T09:58:26Z</time>
      </trkpt>
      <trkpt lat="44.14251" lon="5.00463">
        <ele>220</ele>
        <time>2021-01-10T09:58:28Z</time>
      </trkpt>
      <trkpt lat="44.14252" lon="5.00465">
        <ele>220</ele>
        <time>2021-01-10T09:58:29Z</time>
      </trkpt>
      <trkpt lat="44.14253" lon="5.00465">
        <ele>220</ele>
        <time>2021-01-10T09:58:30Z</time>
      </trkpt>
      <trkpt lat="44.14254" lon="5.00466">
        <ele>220</ele>
        <time>2021-01-10T09:58:31Z</time>
      </trkpt>
      <trkpt lat="44.14254" lon="5.00467">
        <ele>220</ele>
        <time>2021-01-10T09:58:32Z</time>
      </trkpt>
      <trkpt lat="44.14254" lon="5.00467">
        <ele>220</ele>
        <time>2021-01-10T09:58:41Z</time>
      </trkpt>
      <trkpt lat="44.1426" lon="5.0047">
        <ele>221</ele>
        <time>2021-01-10T09:58:50Z</time>
      </trkpt>
      <trkpt lat="44.14274" lon="5.00482">
        <ele>224</ele>
        <time>2021-01-10T09:59:02Z</time>
      </trkpt>
      <trkpt lat="44.14275" lon="5.00484">
        <ele>224</ele>
        <time>2021-01-10T09:59:03Z</time>
      </trkpt>
      <trkpt lat="44.14276" lon="5.00485">
        <ele>225</ele>
        <time>2021-01-10T09:59:04Z</time>
      </trkpt>
      <trkpt lat="44.14277" lon="5.00486">
        <ele>225</ele>
        <time>2021-01-10T09:59:05Z</time>
      </trkpt>
      <trkpt lat="44.14278" lon="5.00487">
        <ele>225</ele>
        <time>2021-01-10T09:59:06Z</time>
      </trkpt>
      <trkpt lat="44.1428" lon="5.00491">
        <ele>226</ele>
        <time>2021-01-10T09:59:10Z</time>
      </trkpt>
      <trkpt lat="44.1428" lon="5.00493">
        <ele>226</ele>
        <time>2021-01-10T09:59:11Z</time>
      </trkpt>
      <trkpt lat="44.14272" lon="5.00511">
        <ele>225</ele>
        <time>2021-01-10T09:59:21Z</time>
      </trkpt>
      <trkpt lat="44.1427" lon="5.00522">
        <ele>223</ele>
        <time>2021-01-10T09:59:25Z</time>
      </trkpt>
      <trkpt lat="44.1427" lon="5.00525">
        <ele>223</ele>
        <time>2021-01-10T09:59:26Z</time>
      </trkpt>
      <trkpt lat="44.14271" lon="5.00528">
        <ele>223</ele>
        <time>2021-01-10T09:59:27Z</time>
      </trkpt>
      <trkpt lat="44.14272" lon="5.00531">
        <ele>222</ele>
        <time>2021-01-10T09:59:28Z</time>
      </trkpt>
      <trkpt lat="44.14273" lon="5.00533">
        <ele>222</ele>
        <time>2021-01-10T09:59:29Z</time>
      </trkpt>
      <trkpt lat="44.14275" lon="5.00535">
        <ele>222</ele>
        <time>2021-01-10T09:59:30Z</time>
      </trkpt>
      <trkpt lat="44.14277" lon="5.00537">
        <ele>222</ele>
        <time>2021-01-10T09:59:31Z</time>
      </trkpt>
      <trkpt lat="44.14279" lon="5.00538">
        <ele>222</ele>
        <time>2021-01-10T09:59:32Z</time>
      </trkpt>
      <trkpt lat="44.14281" lon="5.0054">
        <ele>222</ele>
        <time>2021-01-10T09:59:33Z</time>
      </trkpt>
      <trkpt lat="44.14283" lon="5.00542">
        <ele>223</ele>
        <time>2021-01-10T09:59:34Z</time>
      </trkpt>
      <trkpt lat="44.14285" lon="5.00543">
        <ele>223</ele>
        <time>2021-01-10T09:59:35Z</time>
      </trkpt>
      <trkpt lat="44.14299" lon="5.00559">
        <ele>224</ele>
        <time>2021-01-10T09:59:43Z</time>
      </trkpt>
      <trkpt lat="44.14307" lon="5.00571">
        <ele>225</ele>
        <time>2021-01-10T09:59:48Z</time>
      </trkpt>
      <trkpt lat="44.1431" lon="5.00586">
        <ele>224</ele>
        <time>2021-01-10T09:59:53Z</time>
      </trkpt>
      <trkpt lat="44.1431" lon="5.00589">
        <ele>224</ele>
        <time>2021-01-10T09:59:54Z</time>
      </trkpt>
      <trkpt lat="44.1431" lon="5.00592">
        <ele>224</ele>
        <time>2021-01-10T09:59:55Z</time>
      </trkpt>
      <trkpt lat="44.1431" lon="5.00595">
        <ele>224</ele>
        <time>2021-01-10T09:59:56Z</time>
      </trkpt>
      <trkpt lat="44.1431" lon="5.00597">
        <ele>224</ele>
        <time>2021-01-10T09:59:57Z</time>
      </trkpt>
      <trkpt lat="44.1431" lon="5.006">
        <ele>224</ele>
        <time>2021-01-10T09:59:58Z</time>
      </trkpt>
      <trkpt lat="44.14309" lon="5.00603">
        <ele>224</ele>
        <time>2021-01-10T09:59:59Z</time>
      </trkpt>
      <trkpt lat="44.14308" lon="5.00606">
        <ele>224</ele>
        <time>2021-01-10T10:00:00Z</time>
      </trkpt>
      <trkpt lat="44.14307" lon="5.00609">
        <ele>223</ele>
        <time>2021-01-10T10:00:01Z</time>
      </trkpt>
      <trkpt lat="44.14306" lon="5.00613">
        <ele>223</ele>
        <time>2021-01-10T10:00:02Z</time>
      </trkpt>
      <trkpt lat="44.14305" lon="5.00616">
        <ele>223</ele>
        <time>2021-01-10T10:00:03Z</time>
      </trkpt>
      <trkpt lat="44.14302" lon="5.00648">
        <ele>223</ele>
        <time>2021-01-10T10:00:12Z</time>
      </trkpt>
      <trkpt lat="44.14295" lon="5.00675">
        <ele>222</ele>
        <time>2021-01-10T10:00:20Z</time>
      </trkpt>
      <trkpt lat="44.14291" lon="5.00683">
        <ele>222</ele>
        <time>2021-01-10T10:00:23Z</time>
      </trkpt>
      <trkpt lat="44.1429" lon="5.00686">
        <ele>222</ele>
        <time>2021-01-10T10:00:24Z</time>
      </trkpt>
      <trkpt lat="44.14289" lon="5.00688">
        <ele>221</ele>
        <time>2021-01-10T10:00:25Z</time>
      </trkpt>
      <trkpt lat="44.14288" lon="5.00691">
        <ele>221</ele>
        <time>2021-01-10T10:00:26Z</time>
      </trkpt>
      <trkpt lat="44.14286" lon="5.00693">
        <ele>221</ele>
        <time>2021-01-10T10:00:27Z</time>
      </trkpt>
      <trkpt lat="44.14285" lon="5.00696">
        <ele>221</ele>
        <time>2021-01-10T10:00:28Z</time>
      </trkpt>
      <trkpt lat="44.14284" lon="5.00698">
        <ele>220</ele>
        <time>2021-01-10T10:00:29Z</time>
      </trkpt>
      <trkpt lat="44.14265" lon="5.00716">
        <ele>218</ele>
        <time>2021-01-10T10:00:39Z</time>
      </trkpt>
      <trkpt lat="44.14241" lon="5.00716">
        <ele>216</ele>
        <time>2021-01-10T10:00:49Z</time>
      </trkpt>
      <trkpt lat="44.14238" lon="5.00716">
        <ele>216</ele>
        <time>2021-01-10T10:00:50Z</time>
      </trkpt>
      <trkpt lat="44.14208" lon="5.00714">
        <ele>215</ele>
        <time>2021-01-10T10:01:00Z</time>
      </trkpt>
      <trkpt lat="44.14178" lon="5.00711">
        <ele>213</ele>
        <time>2021-01-10T10:01:12Z</time>
      </trkpt>
      <trkpt lat="44.14147" lon="5.00718">
        <ele>211</ele>
        <time>2021-01-10T10:01:24Z</time>
      </trkpt>
      <trkpt lat="44.14125" lon="5.00725">
        <ele>209</ele>
        <time>2021-01-10T10:01:34Z</time>
      </trkpt>
      <trkpt lat="44.14098" lon="5.00737">
        <ele>206</ele>
        <time>2021-01-10T10:01:44Z</time>
      </trkpt>
      <trkpt lat="44.14067" lon="5.00747">
        <ele>202</ele>
        <time>2021-01-10T10:01:55Z</time>
      </trkpt>
      <trkpt lat="44.14042" lon="5.00756">
        <ele>201</ele>
        <time>2021-01-10T10:02:05Z</time>
      </trkpt>
      <trkpt lat="44.14022" lon="5.00763">
        <ele>200</ele>
        <time>2021-01-10T10:02:14Z</time>
      </trkpt>
      <trkpt lat="44.14003" lon="5.00771">
        <ele>199</ele>
        <time>2021-01-10T10:02:22Z</time>
      </trkpt>
      <trkpt lat="44.13982" lon="5.00781">
        <ele>201</ele>
        <time>2021-01-10T10:02:30Z</time>
      </trkpt>
      <trkpt lat="44.13958" lon="5.00796">
        <ele>202</ele>
        <time>2021-01-10T10:02:40Z</time>
      </trkpt>
      <trkpt lat="44.13954" lon="5.00799">
        <ele>201</ele>
        <time>2021-01-10T10:02:42Z</time>
      </trkpt>
      <trkpt lat="44.13929" lon="5.0082">
        <ele>200</ele>
        <time>2021-01-10T10:02:54Z</time>
      </trkpt>
      <trkpt lat="44.13928" lon="5.00826">
        <ele>201</ele>
        <time>2021-01-10T10:03:01Z</time>
      </trkpt>
      <trkpt lat="44.1393" lon="5.00833">
        <ele>202</ele>
        <time>2021-01-10T10:03:13Z</time>
      </trkpt>
      <trkpt lat="44.13931" lon="5.00835">
        <ele>202</ele>
        <time>2021-01-10T10:03:14Z</time>
      </trkpt>
      <trkpt lat="44.13946" lon="5.0086">
        <ele>207</ele>
        <time>2021-01-10T10:03:26Z</time>
      </trkpt>
      <trkpt lat="44.13951" lon="5.00872">
        <ele>209</ele>
        <time>2021-01-10T10:03:31Z</time>
      </trkpt>
      <trkpt lat="44.13952" lon="5.00874">
        <ele>209</ele>
        <time>2021-01-10T10:03:32Z</time>
      </trkpt>
      <trkpt lat="44.13954" lon="5.00875">
        <ele>209</ele>
        <time>2021-01-10T10:03:33Z</time>
      </trkpt>
      <trkpt lat="44.13955" lon="5.00877">
        <ele>209</ele>
        <time>2021-01-10T10:03:34Z</time>
      </trkpt>
      <trkpt lat="44.13956" lon="5.00878">
        <ele>209</ele>
        <time>2021-01-10T10:03:35Z</time>
      </trkpt>
      <trkpt lat="44.13957" lon="5.00879">
        <ele>210</ele>
        <time>2021-01-10T10:03:36Z</time>
      </trkpt>
      <trkpt lat="44.13959" lon="5.00881">
        <ele>210</ele>
        <time>2021-01-10T10:03:37Z</time>
      </trkpt>
      <trkpt lat="44.1396" lon="5.00882">
        <ele>210</ele>
        <time>2021-01-10T10:03:38Z</time>
      </trkpt>
      <trkpt lat="44.13961" lon="5.00883">
        <ele>210</ele>
        <time>2021-01-10T10:03:39Z</time>
      </trkpt>
      <trkpt lat="44.13963" lon="5.00884">
        <ele>211</ele>
        <time>2021-01-10T10:03:40Z</time>
      </trkpt>
      <trkpt lat="44.13964" lon="5.00886">
        <ele>211</ele>
        <time>2021-01-10T10:03:41Z</time>
      </trkpt>
      <trkpt lat="44.13966" lon="5.00887">
        <ele>211</ele>
        <time>2021-01-10T10:03:42Z</time>
      </trkpt>
      <trkpt lat="44.13967" lon="5.00889">
        <ele>211</ele>
        <time>2021-01-10T10:03:43Z</time>
      </trkpt>
      <trkpt lat="44.13969" lon="5.0089">
        <ele>211</ele>
        <time>2021-01-10T10:03:44Z</time>
      </trkpt>
      <trkpt lat="44.13977" lon="5.00896">
        <ele>212</ele>
        <time>2021-01-10T10:03:54Z</time>
      </trkpt>
      <trkpt lat="44.13979" lon="5.00897">
        <ele>213</ele>
        <time>2021-01-10T10:04:16Z</time>
      </trkpt>
      <trkpt lat="44.13987" lon="5.00908">
        <ele>213</ele>
        <time>2021-01-10T10:04:26Z</time>
      </trkpt>
      <trkpt lat="44.13995" lon="5.00912">
        <ele>214</ele>
        <time>2021-01-10T10:04:31Z</time>
      </trkpt>
      <trkpt lat="44.13996" lon="5.00913">
        <ele>215</ele>
        <time>2021-01-10T10:04:32Z</time>
      </trkpt>
      <trkpt lat="44.13998" lon="5.00913">
        <ele>215</ele>
        <time>2021-01-10T10:04:33Z</time>
      </trkpt>
      <trkpt lat="44.14" lon="5.00913">
        <ele>215</ele>
        <time>2021-01-10T10:04:34Z</time>
      </trkpt>
      <trkpt lat="44.14002" lon="5.00913">
        <ele>216</ele>
        <time>2021-01-10T10:04:35Z</time>
      </trkpt>
      <trkpt lat="44.14004" lon="5.00913">
        <ele>216</ele>
        <time>2021-01-10T10:04:36Z</time>
      </trkpt>
      <trkpt lat="44.14007" lon="5.00914">
        <ele>217</ele>
        <time>2021-01-10T10:04:37Z</time>
      </trkpt>
      <trkpt lat="44.14009" lon="5.00915">
        <ele>217</ele>
        <time>2021-01-10T10:04:38Z</time>
      </trkpt>
      <trkpt lat="44.14011" lon="5.00916">
        <ele>217</ele>
        <time>2021-01-10T10:04:39Z</time>
      </trkpt>
      <trkpt lat="44.14013" lon="5.00918">
        <ele>218</ele>
        <time>2021-01-10T10:04:40Z</time>
      </trkpt>
      <trkpt lat="44.14015" lon="5.00919">
        <ele>218</ele>
        <time>2021-01-10T10:04:41Z</time>
      </trkpt>
      <trkpt lat="44.14017" lon="5.00921">
        <ele>218</ele>
        <time>2021-01-10T10:04:42Z</time>
      </trkpt>
      <trkpt lat="44.14019" lon="5.00923">
        <ele>219</ele>
        <time>2021-01-10T10:04:43Z</time>
      </trkpt>
      <trkpt lat="44.14021" lon="5.00925">
        <ele>219</ele>
        <time>2021-01-10T10:04:44Z</time>
      </trkpt>
      <trkpt lat="44.14023" lon="5.00927">
        <ele>219</ele>
        <time>2021-01-10T10:04:45Z</time>
      </trkpt>
      <trkpt lat="44.14037" lon="5.00944">
        <ele>222</ele>
        <time>2021-01-10T10:04:54Z</time>
      </trkpt>
      <trkpt lat="44.14039" lon="5.00946">
        <ele>222</ele>
        <time>2021-01-10T10:04:55Z</time>
      </trkpt>
      <trkpt lat="44.1404" lon="5.00948">
        <ele>223</ele>
        <time>2021-01-10T10:04:56Z</time>
      </trkpt>
      <trkpt lat="44.14042" lon="5.0095">
        <ele>223</ele>
        <time>2021-01-10T10:04:57Z</time>
      </trkpt>
      <trkpt lat="44.14044" lon="5.00953">
        <ele>224</ele>
        <time>2021-01-10T10:04:58Z</time>
      </trkpt>
      <trkpt lat="44.14046" lon="5.00955">
        <ele>224</ele>
        <time>2021-01-10T10:04:59Z</time>
      </trkpt>
      <trkpt lat="44.14047" lon="5.00957">
        <ele>225</ele>
        <time>2021-01-10T10:05:00Z</time>
      </trkpt>
      <trkpt lat="44.14049" lon="5.00959">
        <ele>225</ele>
        <time>2021-01-10T10:05:01Z</time>
      </trkpt>
      <trkpt lat="44.14052" lon="5.00963">
        <ele>226</ele>
        <time>2021-01-10T10:05:03Z</time>
      </trkpt>
      <trkpt lat="44.14054" lon="5.00965">
        <ele>227</ele>
        <time>2021-01-10T10:05:04Z</time>
      </trkpt>
      <trkpt lat="44.14072" lon="5.00974">
        <ele>230</ele>
        <time>2021-01-10T10:05:13Z</time>
      </trkpt>
      <trkpt lat="44.1409" lon="5.00985">
        <ele>233</ele>
        <time>2021-01-10T10:05:22Z</time>
      </trkpt>
      <trkpt lat="44.14093" lon="5.00993">
        <ele>234</ele>
        <time>2021-01-10T10:05:26Z</time>
      </trkpt>
      <trkpt lat="44.14093" lon="5.00998">
        <ele>234</ele>
        <time>2021-01-10T10:05:29Z</time>
      </trkpt>
      <trkpt lat="44.1409" lon="5.01">
        <ele>233</ele>
        <time>2021-01-10T10:05:31Z</time>
      </trkpt>
      <trkpt lat="44.14088" lon="5.01001">
        <ele>233</ele>
        <time>2021-01-10T10:05:32Z</time>
      </trkpt>
      <trkpt lat="44.14087" lon="5.01002">
        <ele>233</ele>
        <time>2021-01-10T10:05:33Z</time>
      </trkpt>
      <trkpt lat="44.14085" lon="5.01003">
        <ele>233</ele>
        <time>2021-01-10T10:05:34Z</time>
      </trkpt>
      <trkpt lat="44.14083" lon="5.01005">
        <ele>233</ele>
        <time>2021-01-10T10:05:35Z</time>
      </trkpt>
      <trkpt lat="44.14065" lon="5.01028">
        <ele>234</ele>
        <time>2021-01-10T10:05:47Z</time>
      </trkpt>
      <trkpt lat="44.14046" lon="5.01047">
        <ele>235</ele>
        <time>2021-01-10T10:05:59Z</time>
      </trkpt>
      <trkpt lat="44.14025" lon="5.01063">
        <ele>236</ele>
        <time>2021-01-10T10:06:10Z</time>
      </trkpt>
      <trkpt lat="44.14023" lon="5.01068">
        <ele>237</ele>
        <time>2021-01-10T10:06:12Z</time>
      </trkpt>
      <trkpt lat="44.14023" lon="5.01071">
        <ele>238</ele>
        <time>2021-01-10T10:06:13Z</time>
      </trkpt>
      <trkpt lat="44.14024" lon="5.01073">
        <ele>238</ele>
        <time>2021-01-10T10:06:14Z</time>
      </trkpt>
      <trkpt lat="44.14025" lon="5.01075">
        <ele>238</ele>
        <time>2021-01-10T10:06:15Z</time>
      </trkpt>
      <trkpt lat="44.14026" lon="5.01077">
        <ele>239</ele>
        <time>2021-01-10T10:06:16Z</time>
      </trkpt>
      <trkpt lat="44.14028" lon="5.01077">
        <ele>239</ele>
        <time>2021-01-10T10:06:17Z</time>
      </trkpt>
      <trkpt lat="44.1403" lon="5.01077">
        <ele>239</ele>
        <time>2021-01-10T10:06:18Z</time>
      </trkpt>
      <trkpt lat="44.1404" lon="5.01072">
        <ele>241</ele>
        <time>2021-01-10T10:06:27Z</time>
      </trkpt>
      <trkpt lat="44.14044" lon="5.01072">
        <ele>241</ele>
        <time>2021-01-10T10:06:31Z</time>
      </trkpt>
      <trkpt lat="44.14053" lon="5.01073">
        <ele>244</ele>
        <time>2021-01-10T10:06:43Z</time>
      </trkpt>
      <trkpt lat="44.14065" lon="5.01072">
        <ele>246</ele>
        <time>2021-01-10T10:06:54Z</time>
      </trkpt>
      <trkpt lat="44.14069" lon="5.01072">
        <ele>247</ele>
        <time>2021-01-10T10:06:56Z</time>
      </trkpt>
      <trkpt lat="44.14075" lon="5.01073">
        <ele>250</ele>
        <time>2021-01-10T10:07:00Z</time>
      </trkpt>
      <trkpt lat="44.14078" lon="5.01074">
        <ele>250</ele>
        <time>2021-01-10T10:07:02Z</time>
      </trkpt>
      <trkpt lat="44.1408" lon="5.01073">
        <ele>251</ele>
        <time>2021-01-10T10:07:03Z</time>
      </trkpt>
      <trkpt lat="44.14093" lon="5.01071">
        <ele>253</ele>
        <time>2021-01-10T10:07:11Z</time>
      </trkpt>
      <trkpt lat="44.14094" lon="5.0107">
        <ele>253</ele>
        <time>2021-01-10T10:07:12Z</time>
      </trkpt>
      <trkpt lat="44.14096" lon="5.01069">
        <ele>253</ele>
        <time>2021-01-10T10:07:13Z</time>
      </trkpt>
      <trkpt lat="44.14097" lon="5.01068">
        <ele>253</ele>
        <time>2021-01-10T10:07:14Z</time>
      </trkpt>
      <trkpt lat="44.14099" lon="5.01067">
        <ele>253</ele>
        <time>2021-01-10T10:07:15Z</time>
      </trkpt>
      <trkpt lat="44.141" lon="5.01066">
        <ele>253</ele>
        <time>2021-01-10T10:07:16Z</time>
      </trkpt>
      <trkpt lat="44.14101" lon="5.01066">
        <ele>254</ele>
        <time>2021-01-10T10:07:17Z</time>
      </trkpt>
      <trkpt lat="44.14103" lon="5.01066">
        <ele>254</ele>
        <time>2021-01-10T10:07:18Z</time>
      </trkpt>
      <trkpt lat="44.14104" lon="5.01065">
        <ele>254</ele>
        <time>2021-01-10T10:07:19Z</time>
      </trkpt>
      <trkpt lat="44.14106" lon="5.01064">
        <ele>254</ele>
        <time>2021-01-10T10:07:20Z</time>
      </trkpt>
      <trkpt lat="44.14107" lon="5.01063">
        <ele>254</ele>
        <time>2021-01-10T10:07:21Z</time>
      </trkpt>
      <trkpt lat="44.14109" lon="5.01063">
        <ele>255</ele>
        <time>2021-01-10T10:07:22Z</time>
      </trkpt>
      <trkpt lat="44.14129" lon="5.01056">
        <ele>256</ele>
        <time>2021-01-10T10:07:31Z</time>
      </trkpt>
      <trkpt lat="44.14149" lon="5.01061">
        <ele>259</ele>
        <time>2021-01-10T10:07:42Z</time>
      </trkpt>
      <trkpt lat="44.14167" lon="5.01073">
        <ele>260</ele>
        <time>2021-01-10T10:07:51Z</time>
      </trkpt>
      <trkpt lat="44.14174" lon="5.01079">
        <ele>262</ele>
        <time>2021-01-10T10:07:55Z</time>
      </trkpt>
      <trkpt lat="44.14181" lon="5.0109">
        <ele>264</ele>
        <time>2021-01-10T10:08:03Z</time>
      </trkpt>
      <trkpt lat="44.14181" lon="5.01093">
        <ele>264</ele>
        <time>2021-01-10T10:08:04Z</time>
      </trkpt>
      <trkpt lat="44.14181" lon="5.01095">
        <ele>264</ele>
        <time>2021-01-10T10:08:05Z</time>
      </trkpt>
      <trkpt lat="44.1418" lon="5.01098">
        <ele>264</ele>
        <time>2021-01-10T10:08:06Z</time>
      </trkpt>
      <trkpt lat="44.14178" lon="5.011">
        <ele>264</ele>
        <time>2021-01-10T10:08:07Z</time>
      </trkpt>
      <trkpt lat="44.14178" lon="5.01101">
        <ele>264</ele>
        <time>2021-01-10T10:08:08Z</time>
      </trkpt>
      <trkpt lat="44.14177" lon="5.01101">
        <ele>265</ele>
        <time>2021-01-10T10:08:09Z</time>
      </trkpt>
      <trkpt lat="44.14175" lon="5.01102">
        <ele>265</ele>
        <time>2021-01-10T10:08:11Z</time>
      </trkpt>
      <trkpt lat="44.14174" lon="5.01102">
        <ele>265</ele>
        <time>2021-01-10T10:08:12Z</time>
      </trkpt>
      <trkpt lat="44.14172" lon="5.01102">
        <ele>265</ele>
        <time>2021-01-10T10:08:13Z</time>
      </trkpt>
      <trkpt lat="44.14171" lon="5.01103">
        <ele>265</ele>
        <time>2021-01-10T10:08:14Z</time>
      </trkpt>
      <trkpt lat="44.14169" lon="5.01103">
        <ele>265</ele>
        <time>2021-01-10T10:08:15Z</time>
      </trkpt>
      <trkpt lat="44.14167" lon="5.01104">
        <ele>265</ele>
        <time>2021-01-10T10:08:16Z</time>
      </trkpt>
      <trkpt lat="44.14165" lon="5.01105">
        <ele>265</ele>
        <time>2021-01-10T10:08:17Z</time>
      </trkpt>
      <trkpt lat="44.14163" lon="5.01106">
        <ele>266</ele>
        <time>2021-01-10T10:08:18Z</time>
      </trkpt>
      <trkpt lat="44.14161" lon="5.01106">
        <ele>266</ele>
        <time>2021-01-10T10:08:19Z</time>
      </trkpt>
      <trkpt lat="44.14157" lon="5.01108">
        <ele>267</ele>
        <time>2021-01-10T10:08:22Z</time>
      </trkpt>
      <trkpt lat="44.14155" lon="5.01108">
        <ele>267</ele>
        <time>2021-01-10T10:08:23Z</time>
      </trkpt>
      <trkpt lat="44.14142" lon="5.01113">
        <ele>271</ele>
        <time>2021-01-10T10:08:35Z</time>
      </trkpt>
      <trkpt lat="44.14128" lon="5.01124">
        <ele>273</ele>
        <time>2021-01-10T10:08:46Z</time>
      </trkpt>
      <trkpt lat="44.14095" lon="5.01148">
        <ele>275</ele>
        <time>2021-01-10T10:09:02Z</time>
      </trkpt>
      <trkpt lat="44.1408" lon="5.01169">
        <ele>278</ele>
        <time>2021-01-10T10:09:13Z</time>
      </trkpt>
      <trkpt lat="44.1406" lon="5.01192">
        <ele>279</ele>
        <time>2021-01-10T10:09:24Z</time>
      </trkpt>
      <trkpt lat="44.1404" lon="5.01211">
        <ele>279</ele>
        <time>2021-01-10T10:09:36Z</time>
      </trkpt>
      <trkpt lat="44.14024" lon="5.01227">
        <ele>279</ele>
        <time>2021-01-10T10:09:46Z</time>
      </trkpt>
      <trkpt lat="44.14008" lon="5.0124">
        <ele>277</ele>
        <time>2021-01-10T10:09:56Z</time>
      </trkpt>
      <trkpt lat="44.13991" lon="5.01245">
        <ele>275</ele>
        <time>2021-01-10T10:10:05Z</time>
      </trkpt>
      <trkpt lat="44.13976" lon="5.01256">
        <ele>274</ele>
        <time>2021-01-10T10:10:14Z</time>
      </trkpt>
      <trkpt lat="44.13966" lon="5.01264">
        <ele>273</ele>
        <time>2021-01-10T10:10:21Z</time>
      </trkpt>
      <trkpt lat="44.13961" lon="5.01267">
        <ele>273</ele>
        <time>2021-01-10T10:10:30Z</time>
      </trkpt>
      <trkpt lat="44.13959" lon="5.01269">
        <ele>272</ele>
        <time>2021-01-10T10:10:41Z</time>
      </trkpt>
      <trkpt lat="44.13956" lon="5.01271">
        <ele>272</ele>
        <time>2021-01-10T10:10:49Z</time>
      </trkpt>
      <trkpt lat="44.13955" lon="5.01272">
        <ele>272</ele>
        <time>2021-01-10T10:10:50Z</time>
      </trkpt>
      <trkpt lat="44.13953" lon="5.01273">
        <ele>272</ele>
        <time>2021-01-10T10:10:51Z</time>
      </trkpt>
      <trkpt lat="44.13951" lon="5.01275">
        <ele>272</ele>
        <time>2021-01-10T10:10:52Z</time>
      </trkpt>
      <trkpt lat="44.1395" lon="5.01276">
        <ele>272</ele>
        <time>2021-01-10T10:10:53Z</time>
      </trkpt>
      <trkpt lat="44.13948" lon="5.01278">
        <ele>271</ele>
        <time>2021-01-10T10:10:54Z</time>
      </trkpt>
      <trkpt lat="44.13946" lon="5.01279">
        <ele>271</ele>
        <time>2021-01-10T10:10:55Z</time>
      </trkpt>
      <trkpt lat="44.13944" lon="5.01281">
        <ele>271</ele>
        <time>2021-01-10T10:10:56Z</time>
      </trkpt>
      <trkpt lat="44.13941" lon="5.01283">
        <ele>270</ele>
        <time>2021-01-10T10:10:57Z</time>
      </trkpt>
      <trkpt lat="44.13939" lon="5.01285">
        <ele>270</ele>
        <time>2021-01-10T10:10:58Z</time>
      </trkpt>
      <trkpt lat="44.13937" lon="5.01286">
        <ele>270</ele>
        <time>2021-01-10T10:10:59Z</time>
      </trkpt>
      <trkpt lat="44.13935" lon="5.01288">
        <ele>270</ele>
        <time>2021-01-10T10:11:00Z</time>
      </trkpt>
      <trkpt lat="44.13933" lon="5.0129">
        <ele>269</ele>
        <time>2021-01-10T10:11:01Z</time>
      </trkpt>
      <trkpt lat="44.13932" lon="5.01292">
        <ele>269</ele>
        <time>2021-01-10T10:11:02Z</time>
      </trkpt>
      <trkpt lat="44.1393" lon="5.01294">
        <ele>269</ele>
        <time>2021-01-10T10:11:03Z</time>
      </trkpt>
      <trkpt lat="44.13928" lon="5.01296">
        <ele>269</ele>
        <time>2021-01-10T10:11:04Z</time>
      </trkpt>
      <trkpt lat="44.13926" lon="5.01299">
        <ele>269</ele>
        <time>2021-01-10T10:11:05Z</time>
      </trkpt>
      <trkpt lat="44.13924" lon="5.01301">
        <ele>269</ele>
        <time>2021-01-10T10:11:06Z</time>
      </trkpt>
      <trkpt lat="44.13922" lon="5.01304">
        <ele>269</ele>
        <time>2021-01-10T10:11:07Z</time>
      </trkpt>
      <trkpt lat="44.13921" lon="5.01306">
        <ele>269</ele>
        <time>2021-01-10T10:11:08Z</time>
      </trkpt>
      <trkpt lat="44.13919" lon="5.01309">
        <ele>269</ele>
        <time>2021-01-10T10:11:09Z</time>
      </trkpt>
      <trkpt lat="44.13917" lon="5.01311">
        <ele>269</ele>
        <time>2021-01-10T10:11:10Z</time>
      </trkpt>
      <trkpt lat="44.13915" lon="5.01314">
        <ele>269</ele>
        <time>2021-01-10T10:11:11Z</time>
      </trkpt>
      <trkpt lat="44.13914" lon="5.01316">
        <ele>269</ele>
        <time>2021-01-10T10:11:12Z</time>
      </trkpt>
      <trkpt lat="44.13913" lon="5.01318">
        <ele>269</ele>
        <time>2021-01-10T10:11:13Z</time>
      </trkpt>
      <trkpt lat="44.13911" lon="5.0132">
        <ele>269</ele>
        <time>2021-01-10T10:11:14Z</time>
      </trkpt>
      <trkpt lat="44.13909" lon="5.01322">
        <ele>269</ele>
        <time>2021-01-10T10:11:15Z</time>
      </trkpt>
      <trkpt lat="44.13893" lon="5.01334">
        <ele>269</ele>
        <time>2021-01-10T10:11:23Z</time>
      </trkpt>
      <trkpt lat="44.13888" lon="5.01338">
        <ele>269</ele>
        <time>2021-01-10T10:11:26Z</time>
      </trkpt>
      <trkpt lat="44.13886" lon="5.0134">
        <ele>268</ele>
        <time>2021-01-10T10:11:27Z</time>
      </trkpt>
      <trkpt lat="44.13885" lon="5.01342">
        <ele>268</ele>
        <time>2021-01-10T10:11:28Z</time>
      </trkpt>
      <trkpt lat="44.13884" lon="5.01344">
        <ele>268</ele>
        <time>2021-01-10T10:11:29Z</time>
      </trkpt>
      <trkpt lat="44.13884" lon="5.01347">
        <ele>268</ele>
        <time>2021-01-10T10:11:30Z</time>
      </trkpt>
      <trkpt lat="44.13883" lon="5.01349">
        <ele>268</ele>
        <time>2021-01-10T10:11:31Z</time>
      </trkpt>
      <trkpt lat="44.13883" lon="5.01352">
        <ele>267</ele>
        <time>2021-01-10T10:11:32Z</time>
      </trkpt>
      <trkpt lat="44.13882" lon="5.01355">
        <ele>267</ele>
        <time>2021-01-10T10:11:33Z</time>
      </trkpt>
      <trkpt lat="44.13873" lon="5.01363">
        <ele>266</ele>
        <time>2021-01-10T10:11:38Z</time>
      </trkpt>
      <trkpt lat="44.13872" lon="5.01363">
        <ele>266</ele>
        <time>2021-01-10T10:11:39Z</time>
      </trkpt>
      <trkpt lat="44.13866" lon="5.01362">
        <ele>265</ele>
        <time>2021-01-10T10:11:47Z</time>
      </trkpt>
      <trkpt lat="44.13865" lon="5.01361">
        <ele>265</ele>
        <time>2021-01-10T10:11:48Z</time>
      </trkpt>
      <trkpt lat="44.13858" lon="5.01363">
        <ele>264</ele>
        <time>2021-01-10T10:11:55Z</time>
      </trkpt>
      <trkpt lat="44.13842" lon="5.01374">
        <ele>262</ele>
        <time>2021-01-10T10:12:04Z</time>
      </trkpt>
      <trkpt lat="44.13823" lon="5.01385">
        <ele>260</ele>
        <time>2021-01-10T10:12:13Z</time>
      </trkpt>
      <trkpt lat="44.13799" lon="5.014">
        <ele>257</ele>
        <time>2021-01-10T10:12:23Z</time>
      </trkpt>
      <trkpt lat="44.13769" lon="5.0142">
        <ele>250</ele>
        <time>2021-01-10T10:12:35Z</time>
      </trkpt>
      <trkpt lat="44.13764" lon="5.01423">
        <ele>249</ele>
        <time>2021-01-10T10:12:39Z</time>
      </trkpt>
      <trkpt lat="44.1375" lon="5.0143">
        <ele>246</ele>
        <time>2021-01-10T10:13:10Z</time>
      </trkpt>
      <trkpt lat="44.13744" lon="5.01447">
        <ele>241</ele>
        <time>2021-01-10T10:13:18Z</time>
      </trkpt>
      <trkpt lat="44.13744" lon="5.0145">
        <ele>241</ele>
        <time>2021-01-10T10:13:19Z</time>
      </trkpt>
      <trkpt lat="44.13745" lon="5.01452">
        <ele>240</ele>
        <time>2021-01-10T10:13:20Z</time>
      </trkpt>
      <trkpt lat="44.13747" lon="5.01454">
        <ele>240</ele>
        <time>2021-01-10T10:13:21Z</time>
      </trkpt>
      <trkpt lat="44.13749" lon="5.01456">
        <ele>240</ele>
        <time>2021-01-10T10:13:22Z</time>
      </trkpt>
      <trkpt lat="44.1375" lon="5.01457">
        <ele>239</ele>
        <time>2021-01-10T10:13:23Z</time>
      </trkpt>
      <trkpt lat="44.13752" lon="5.01459">
        <ele>239</ele>
        <time>2021-01-10T10:13:24Z</time>
      </trkpt>
      <trkpt lat="44.13753" lon="5.01459">
        <ele>239</ele>
        <time>2021-01-10T10:13:25Z</time>
      </trkpt>
      <trkpt lat="44.13755" lon="5.0146">
        <ele>239</ele>
        <time>2021-01-10T10:13:26Z</time>
      </trkpt>
      <trkpt lat="44.1378" lon="5.01468">
        <ele>237</ele>
        <time>2021-01-10T10:13:37Z</time>
      </trkpt>
      <trkpt lat="44.1379" lon="5.0147">
        <ele>236</ele>
        <time>2021-01-10T10:13:41Z</time>
      </trkpt>
      <trkpt lat="44.13816" lon="5.01478">
        <ele>234</ele>
        <time>2021-01-10T10:13:51Z</time>
      </trkpt>
      <trkpt lat="44.13842" lon="5.01486">
        <ele>233</ele>
        <time>2021-01-10T10:14:02Z</time>
      </trkpt>
      <trkpt lat="44.13866" lon="5.01507">
        <ele>231</ele>
        <time>2021-01-10T10:14:12Z</time>
      </trkpt>
      <trkpt lat="44.13868" lon="5.01509">
        <ele>231</ele>
        <time>2021-01-10T10:14:13Z</time>
      </trkpt>
      <trkpt lat="44.13867" lon="5.01511">
        <ele>230</ele>
        <time>2021-01-10T10:14:19Z</time>
      </trkpt>
      <trkpt lat="44.13864" lon="5.01511">
        <ele>229</ele>
        <time>2021-01-10T10:14:40Z</time>
      </trkpt>
      <trkpt lat="44.13862" lon="5.01511">
        <ele>229</ele>
        <time>2021-01-10T10:14:41Z</time>
      </trkpt>
      <trkpt lat="44.13855" lon="5.01515">
        <ele>227</ele>
        <time>2021-01-10T10:14:50Z</time>
      </trkpt>
      <trkpt lat="44.13853" lon="5.01516">
        <ele>227</ele>
        <time>2021-01-10T10:14:52Z</time>
      </trkpt>
      <trkpt lat="44.13833" lon="5.01517">
        <ele>225</ele>
        <time>2021-01-10T10:15:01Z</time>
      </trkpt>
      <trkpt lat="44.13825" lon="5.01516">
        <ele>225</ele>
        <time>2021-01-10T10:15:04Z</time>
      </trkpt>
      <trkpt lat="44.13823" lon="5.01516">
        <ele>225</ele>
        <time>2021-01-10T10:15:05Z</time>
      </trkpt>
      <trkpt lat="44.13796" lon="5.01516">
        <ele>224</ele>
        <time>2021-01-10T10:15:14Z</time>
      </trkpt>
      <trkpt lat="44.13769" lon="5.01518">
        <ele>221</ele>
        <time>2021-01-10T10:15:23Z</time>
      </trkpt>
      <trkpt lat="44.13746" lon="5.01525">
        <ele>215</ele>
        <time>2021-01-10T10:15:30Z</time>
      </trkpt>
      <trkpt lat="44.13715" lon="5.0153">
        <ele>210</ele>
        <time>2021-01-10T10:15:39Z</time>
      </trkpt>
      <trkpt lat="44.13677" lon="5.01523">
        <ele>210</ele>
        <time>2021-01-10T10:15:48Z</time>
      </trkpt>
      <trkpt lat="44.13665" lon="5.01518">
        <ele>210</ele>
        <time>2021-01-10T10:15:51Z</time>
      </trkpt>
      <trkpt lat="44.13663" lon="5.01515">
        <ele>210</ele>
        <time>2021-01-10T10:15:52Z</time>
      </trkpt>
      <trkpt lat="44.13641" lon="5.01475">
        <ele>209</ele>
        <time>2021-01-10T10:16:03Z</time>
      </trkpt>
      <trkpt lat="44.13628" lon="5.01473">
        <ele>208</ele>
        <time>2021-01-10T10:16:07Z</time>
      </trkpt>
      <trkpt lat="44.13625" lon="5.01474">
        <ele>208</ele>
        <time>2021-01-10T10:16:08Z</time>
      </trkpt>
      <trkpt lat="44.13622" lon="5.01475">
        <ele>207</ele>
        <time>2021-01-10T10:16:09Z</time>
      </trkpt>
      <trkpt lat="44.13619" lon="5.01475">
        <ele>207</ele>
        <time>2021-01-10T10:16:10Z</time>
      </trkpt>
      <trkpt lat="44.13616" lon="5.01476">
        <ele>207</ele>
        <time>2021-01-10T10:16:11Z</time>
      </trkpt>
      <trkpt lat="44.13595" lon="5.01481">
        <ele>206</ele>
        <time>2021-01-10T10:16:19Z</time>
      </trkpt>
      <trkpt lat="44.13564" lon="5.0147">
        <ele>205</ele>
        <time>2021-01-10T10:16:29Z</time>
      </trkpt>
      <trkpt lat="44.13547" lon="5.01442">
        <ele>207</ele>
        <time>2021-01-10T10:16:38Z</time>
      </trkpt>
      <trkpt lat="44.1353" lon="5.01413">
        <ele>204</ele>
        <time>2021-01-10T10:16:47Z</time>
      </trkpt>
      <trkpt lat="44.13512" lon="5.01386">
        <ele>201</ele>
        <time>2021-01-10T10:16:57Z</time>
      </trkpt>
      <trkpt lat="44.1351" lon="5.01386">
        <ele>201</ele>
        <time>2021-01-10T10:16:58Z</time>
      </trkpt>
      <trkpt lat="44.13509" lon="5.01388">
        <ele>201</ele>
        <time>2021-01-10T10:16:59Z</time>
      </trkpt>
      <trkpt lat="44.13509" lon="5.0139">
        <ele>201</ele>
        <time>2021-01-10T10:17:00Z</time>
      </trkpt>
      <trkpt lat="44.13509" lon="5.01393">
        <ele>201</ele>
        <time>2021-01-10T10:17:01Z</time>
      </trkpt>
      <trkpt lat="44.13509" lon="5.01396">
        <ele>201</ele>
        <time>2021-01-10T10:17:02Z</time>
      </trkpt>
      <trkpt lat="44.13509" lon="5.01398">
        <ele>201</ele>
        <time>2021-01-10T10:17:03Z</time>
      </trkpt>
      <trkpt lat="44.13509" lon="5.01401">
        <ele>201</ele>
        <time>2021-01-10T10:17:04Z</time>
      </trkpt>
      <trkpt lat="44.13508" lon="5.01403">
        <ele>201</ele>
        <time>2021-01-10T10:17:05Z</time>
      </trkpt>
      <trkpt lat="44.13508" lon="5.01406">
        <ele>201</ele>
        <time>2021-01-10T10:17:06Z</time>
      </trkpt>
      <trkpt lat="44.13508" lon="5.01409">
        <ele>200</ele>
        <time>2021-01-10T10:17:07Z</time>
      </trkpt>
      <trkpt lat="44.13507" lon="5.01412">
        <ele>200</ele>
        <time>2021-01-10T10:17:08Z</time>
      </trkpt>
      <trkpt lat="44.13506" lon="5.01416">
        <ele>200</ele>
        <time>2021-01-10T10:17:09Z</time>
      </trkpt>
      <trkpt lat="44.13505" lon="5.01418">
        <ele>199</ele>
        <time>2021-01-10T10:17:10Z</time>
      </trkpt>
      <trkpt lat="44.13501" lon="5.01439">
        <ele>192</ele>
        <time>2021-01-10T10:17:15Z</time>
      </trkpt>
      <trkpt lat="44.13498" lon="5.01458">
        <ele>186</ele>
        <time>2021-01-10T10:17:20Z</time>
      </trkpt>
      <trkpt lat="44.13499" lon="5.01472">
        <ele>181</ele>
        <time>2021-01-10T10:17:25Z</time>
      </trkpt>
      <trkpt lat="44.13498" lon="5.01482">
        <ele>181</ele>
        <time>2021-01-10T10:17:28Z</time>
      </trkpt>
      <trkpt lat="44.13497" lon="5.01485">
        <ele>181</ele>
        <time>2021-01-10T10:17:29Z</time>
      </trkpt>
      <trkpt lat="44.13495" lon="5.01496">
        <ele>180</ele>
        <time>2021-01-10T10:17:33Z</time>
      </trkpt>
      <trkpt lat="44.13494" lon="5.01499">
        <ele>180</ele>
        <time>2021-01-10T10:17:34Z</time>
      </trkpt>
      <trkpt lat="44.13493" lon="5.01507">
        <ele>180</ele>
        <time>2021-01-10T10:17:41Z</time>
      </trkpt>
      <trkpt lat="44.13492" lon="5.01509">
        <ele>180</ele>
        <time>2021-01-10T10:17:42Z</time>
      </trkpt>
      <trkpt lat="44.13491" lon="5.01511">
        <ele>180</ele>
        <time>2021-01-10T10:17:44Z</time>
      </trkpt>
      <trkpt lat="44.1349" lon="5.01513">
        <ele>180</ele>
        <time>2021-01-10T10:17:45Z</time>
      </trkpt>
      <trkpt lat="44.13489" lon="5.01514">
        <ele>180</ele>
        <time>2021-01-10T10:17:46Z</time>
      </trkpt>
      <trkpt lat="44.13487" lon="5.01516">
        <ele>180</ele>
        <time>2021-01-10T10:17:47Z</time>
      </trkpt>
      <trkpt lat="44.13486" lon="5.01517">
        <ele>180</ele>
        <time>2021-01-10T10:17:48Z</time>
      </trkpt>
      <trkpt lat="44.13484" lon="5.01519">
        <ele>180</ele>
        <time>2021-01-10T10:17:49Z</time>
      </trkpt>
      <trkpt lat="44.13481" lon="5.01519">
        <ele>180</ele>
        <time>2021-01-10T10:17:50Z</time>
      </trkpt>
      <trkpt lat="44.13479" lon="5.0152">
        <ele>180</ele>
        <time>2021-01-10T10:17:51Z</time>
      </trkpt>
      <trkpt lat="44.13478" lon="5.01519">
        <ele>180</ele>
        <time>2021-01-10T10:17:52Z</time>
      </trkpt>
      <trkpt lat="44.13464" lon="5.01498">
        <ele>180</ele>
        <time>2021-01-10T10:18:03Z</time>
      </trkpt>
      <trkpt lat="44.13449" lon="5.01494">
        <ele>179</ele>
        <time>2021-01-10T10:18:12Z</time>
      </trkpt>
      <trkpt lat="44.13446" lon="5.01494">
        <ele>179</ele>
        <time>2021-01-10T10:18:13Z</time>
      </trkpt>
      <trkpt lat="44.13444" lon="5.01495">
        <ele>178</ele>
        <time>2021-01-10T10:18:14Z</time>
      </trkpt>
      <trkpt lat="44.13442" lon="5.01496">
        <ele>178</ele>
        <time>2021-01-10T10:18:15Z</time>
      </trkpt>
      <trkpt lat="44.1344" lon="5.01498">
        <ele>177</ele>
        <time>2021-01-10T10:18:16Z</time>
      </trkpt>
      <trkpt lat="44.13438" lon="5.01498">
        <ele>177</ele>
        <time>2021-01-10T10:18:17Z</time>
      </trkpt>
      <trkpt lat="44.13435" lon="5.01499">
        <ele>176</ele>
        <time>2021-01-10T10:18:18Z</time>
      </trkpt>
      <trkpt lat="44.13433" lon="5.01499">
        <ele>176</ele>
        <time>2021-01-10T10:18:19Z</time>
      </trkpt>
      <trkpt lat="44.13425" lon="5.01498">
        <ele>174</ele>
        <time>2021-01-10T10:18:22Z</time>
      </trkpt>
      <trkpt lat="44.13422" lon="5.01497">
        <ele>174</ele>
        <time>2021-01-10T10:18:23Z</time>
      </trkpt>
      <trkpt lat="44.13419" lon="5.01495">
        <ele>174</ele>
        <time>2021-01-10T10:18:24Z</time>
      </trkpt>
      <trkpt lat="44.13416" lon="5.01492">
        <ele>174</ele>
        <time>2021-01-10T10:18:25Z</time>
      </trkpt>
      <trkpt lat="44.13414" lon="5.01491">
        <ele>174</ele>
        <time>2021-01-10T10:18:26Z</time>
      </trkpt>
      <trkpt lat="44.13411" lon="5.01489">
        <ele>174</ele>
        <time>2021-01-10T10:18:27Z</time>
      </trkpt>
      <trkpt lat="44.13409" lon="5.01487">
        <ele>174</ele>
        <time>2021-01-10T10:18:28Z</time>
      </trkpt>
      <trkpt lat="44.13406" lon="5.01486">
        <ele>174</ele>
        <time>2021-01-10T10:18:29Z</time>
      </trkpt>
      <trkpt lat="44.13403" lon="5.01485">
        <ele>174</ele>
        <time>2021-01-10T10:18:30Z</time>
      </trkpt>
      <trkpt lat="44.13401" lon="5.01485">
        <ele>173</ele>
        <time>2021-01-10T10:18:31Z</time>
      </trkpt>
      <trkpt lat="44.13399" lon="5.01484">
        <ele>173</ele>
        <time>2021-01-10T10:18:32Z</time>
      </trkpt>
      <trkpt lat="44.13396" lon="5.01483">
        <ele>173</ele>
        <time>2021-01-10T10:18:35Z</time>
      </trkpt>
      <trkpt lat="44.13394" lon="5.01484">
        <ele>173</ele>
        <time>2021-01-10T10:18:36Z</time>
      </trkpt>
      <trkpt lat="44.13392" lon="5.01484">
        <ele>172</ele>
        <time>2021-01-10T10:18:37Z</time>
      </trkpt>
      <trkpt lat="44.1339" lon="5.01484">
        <ele>172</ele>
        <time>2021-01-10T10:18:38Z</time>
      </trkpt>
      <trkpt lat="44.13387" lon="5.01484">
        <ele>172</ele>
        <time>2021-01-10T10:18:39Z</time>
      </trkpt>
      <trkpt lat="44.13385" lon="5.01483">
        <ele>172</ele>
        <time>2021-01-10T10:18:40Z</time>
      </trkpt>
      <trkpt lat="44.13382" lon="5.0148">
        <ele>172</ele>
        <time>2021-01-10T10:18:42Z</time>
      </trkpt>
      <trkpt lat="44.13381" lon="5.01478">
        <ele>172</ele>
        <time>2021-01-10T10:18:43Z</time>
      </trkpt>
      <trkpt lat="44.13381" lon="5.01475">
        <ele>172</ele>
        <time>2021-01-10T10:18:44Z</time>
      </trkpt>
      <trkpt lat="44.13378" lon="5.01456">
        <ele>175</ele>
        <time>2021-01-10T10:18:52Z</time>
      </trkpt>
      <trkpt lat="44.13376" lon="5.01452">
        <ele>176</ele>
        <time>2021-01-10T10:18:53Z</time>
      </trkpt>
      <trkpt lat="44.13374" lon="5.01449">
        <ele>176</ele>
        <time>2021-01-10T10:18:54Z</time>
      </trkpt>
      <trkpt lat="44.13371" lon="5.01445">
        <ele>176</ele>
        <time>2021-01-10T10:18:55Z</time>
      </trkpt>
      <trkpt lat="44.13368" lon="5.01443">
        <ele>175</ele>
        <time>2021-01-10T10:18:56Z</time>
      </trkpt>
      <trkpt lat="44.13365" lon="5.0144">
        <ele>175</ele>
        <time>2021-01-10T10:18:57Z</time>
      </trkpt>
      <trkpt lat="44.13363" lon="5.01439">
        <ele>175</ele>
        <time>2021-01-10T10:18:58Z</time>
      </trkpt>
      <trkpt lat="44.13361" lon="5.01438">
        <ele>174</ele>
        <time>2021-01-10T10:18:59Z</time>
      </trkpt>
      <trkpt lat="44.1336" lon="5.01437">
        <ele>174</ele>
        <time>2021-01-10T10:19:00Z</time>
      </trkpt>
      <trkpt lat="44.13341" lon="5.01434">
        <ele>171</ele>
        <time>2021-01-10T10:19:08Z</time>
      </trkpt>
      <trkpt lat="44.13327" lon="5.01409">
        <ele>173</ele>
        <time>2021-01-10T10:19:17Z</time>
      </trkpt>
      <trkpt lat="44.13325" lon="5.01406">
        <ele>173</ele>
        <time>2021-01-10T10:19:18Z</time>
      </trkpt>
      <trkpt lat="44.133" lon="5.01394">
        <ele>170</ele>
        <time>2021-01-10T10:19:27Z</time>
      </trkpt>
      <trkpt lat="44.13276" lon="5.01392">
        <ele>168</ele>
        <time>2021-01-10T10:19:35Z</time>
      </trkpt>
      <trkpt lat="44.13269" lon="5.01393">
        <ele>167</ele>
        <time>2021-01-10T10:19:38Z</time>
      </trkpt>
      <trkpt lat="44.13267" lon="5.01393">
        <ele>167</ele>
        <time>2021-01-10T10:19:39Z</time>
      </trkpt>
      <trkpt lat="44.13265" lon="5.01395">
        <ele>166</ele>
        <time>2021-01-10T10:19:40Z</time>
      </trkpt>
      <trkpt lat="44.13264" lon="5.01396">
        <ele>166</ele>
        <time>2021-01-10T10:19:41Z</time>
      </trkpt>
      <trkpt lat="44.13262" lon="5.01398">
        <ele>165</ele>
        <time>2021-01-10T10:19:42Z</time>
      </trkpt>
      <trkpt lat="44.1326" lon="5.014">
        <ele>165</ele>
        <time>2021-01-10T10:19:43Z</time>
      </trkpt>
      <trkpt lat="44.13259" lon="5.01402">
        <ele>164</ele>
        <time>2021-01-10T10:19:44Z</time>
      </trkpt>
      <trkpt lat="44.13257" lon="5.01404">
        <ele>163</ele>
        <time>2021-01-10T10:19:45Z</time>
      </trkpt>
      <trkpt lat="44.13256" lon="5.01406">
        <ele>163</ele>
        <time>2021-01-10T10:19:46Z</time>
      </trkpt>
      <trkpt lat="44.13255" lon="5.01408">
        <ele>162</ele>
        <time>2021-01-10T10:19:47Z</time>
      </trkpt>
      <trkpt lat="44.13253" lon="5.01409">
        <ele>162</ele>
        <time>2021-01-10T10:19:48Z</time>
      </trkpt>
      <trkpt lat="44.13251" lon="5.01411">
        <ele>161</ele>
        <time>2021-01-10T10:19:49Z</time>
      </trkpt>
      <trkpt lat="44.13249" lon="5.01413">
        <ele>161</ele>
        <time>2021-01-10T10:19:50Z</time>
      </trkpt>
      <trkpt lat="44.13231" lon="5.01414">
        <ele>160</ele>
        <time>2021-01-10T10:19:59Z</time>
      </trkpt>
      <trkpt lat="44.13229" lon="5.01414">
        <ele>160</ele>
        <time>2021-01-10T10:20:02Z</time>
      </trkpt>
      <trkpt lat="44.13227" lon="5.01413">
        <ele>160</ele>
        <time>2021-01-10T10:20:03Z</time>
      </trkpt>
      <trkpt lat="44.13226" lon="5.01413">
        <ele>160</ele>
        <time>2021-01-10T10:20:04Z</time>
      </trkpt>
      <trkpt lat="44.13223" lon="5.01411">
        <ele>160</ele>
        <time>2021-01-10T10:20:06Z</time>
      </trkpt>
      <trkpt lat="44.13221" lon="5.0141">
        <ele>161</ele>
        <time>2021-01-10T10:20:07Z</time>
      </trkpt>
      <trkpt lat="44.13219" lon="5.01408">
        <ele>161</ele>
        <time>2021-01-10T10:20:08Z</time>
      </trkpt>
      <trkpt lat="44.13217" lon="5.01407">
        <ele>161</ele>
        <time>2021-01-10T10:20:09Z</time>
      </trkpt>
      <trkpt lat="44.13215" lon="5.01406">
        <ele>162</ele>
        <time>2021-01-10T10:20:10Z</time>
      </trkpt>
      <trkpt lat="44.13212" lon="5.01405">
        <ele>162</ele>
        <time>2021-01-10T10:20:11Z</time>
      </trkpt>
      <trkpt lat="44.13206" lon="5.01399">
        <ele>162</ele>
        <time>2021-01-10T10:20:15Z</time>
      </trkpt>
      <trkpt lat="44.13204" lon="5.01397">
        <ele>162</ele>
        <time>2021-01-10T10:20:16Z</time>
      </trkpt>
      <trkpt lat="44.13203" lon="5.01394">
        <ele>161</ele>
        <time>2021-01-10T10:20:17Z</time>
      </trkpt>
      <trkpt lat="44.13202" lon="5.01391">
        <ele>161</ele>
        <time>2021-01-10T10:20:18Z</time>
      </trkpt>
      <trkpt lat="44.13201" lon="5.01387">
        <ele>161</ele>
        <time>2021-01-10T10:20:19Z</time>
      </trkpt>
      <trkpt lat="44.13201" lon="5.01384">
        <ele>161</ele>
        <time>2021-01-10T10:20:20Z</time>
      </trkpt>
      <trkpt lat="44.13202" lon="5.0135">
        <ele>163</ele>
        <time>2021-01-10T10:20:30Z</time>
      </trkpt>
      <trkpt lat="44.13197" lon="5.01306">
        <ele>160</ele>
        <time>2021-01-10T10:20:41Z</time>
      </trkpt>
      <trkpt lat="44.13192" lon="5.01265">
        <ele>159</ele>
        <time>2021-01-10T10:20:53Z</time>
      </trkpt>
      <trkpt lat="44.13193" lon="5.0124">
        <ele>158</ele>
        <time>2021-01-10T10:21:01Z</time>
      </trkpt>
      <trkpt lat="44.13193" lon="5.01237">
        <ele>158</ele>
        <time>2021-01-10T10:21:02Z</time>
      </trkpt>
      <trkpt lat="44.13196" lon="5.01208">
        <ele>158</ele>
        <time>2021-01-10T10:21:13Z</time>
      </trkpt>
      <trkpt lat="44.13198" lon="5.01196">
        <ele>158</ele>
        <time>2021-01-10T10:21:19Z</time>
      </trkpt>
      <trkpt lat="44.13198" lon="5.01195">
        <ele>158</ele>
        <time>2021-01-10T10:21:20Z</time>
      </trkpt>
      <trkpt lat="44.13198" lon="5.01158">
        <ele>158</ele>
        <time>2021-01-10T10:21:32Z</time>
      </trkpt>
      <trkpt lat="44.13194" lon="5.01143">
        <ele>158</ele>
        <time>2021-01-10T10:21:36Z</time>
      </trkpt>
      <trkpt lat="44.13194" lon="5.0114">
        <ele>158</ele>
        <time>2021-01-10T10:21:37Z</time>
      </trkpt>
      <trkpt lat="44.13193" lon="5.01138">
        <ele>158</ele>
        <time>2021-01-10T10:21:38Z</time>
      </trkpt>
      <trkpt lat="44.13174" lon="5.01113">
        <ele>155</ele>
        <time>2021-01-10T10:21:49Z</time>
      </trkpt>
      <trkpt lat="44.13165" lon="5.01105">
        <ele>153</ele>
        <time>2021-01-10T10:21:51Z</time>
      </trkpt>
      <trkpt lat="44.13162" lon="5.01104">
        <ele>153</ele>
        <time>2021-01-10T10:21:52Z</time>
      </trkpt>
      <trkpt lat="44.13144" lon="5.01086">
        <ele>152</ele>
        <time>2021-01-10T10:22:02Z</time>
      </trkpt>
      <trkpt lat="44.13134" lon="5.01064">
        <ele>151</ele>
        <time>2021-01-10T10:22:12Z</time>
      </trkpt>
      <trkpt lat="44.13124" lon="5.01055">
        <ele>151</ele>
        <time>2021-01-10T10:22:16Z</time>
      </trkpt>
      <trkpt lat="44.13122" lon="5.01054">
        <ele>151</ele>
        <time>2021-01-10T10:22:17Z</time>
      </trkpt>
      <trkpt lat="44.1312" lon="5.01053">
        <ele>151</ele>
        <time>2021-01-10T10:22:18Z</time>
      </trkpt>
      <trkpt lat="44.13119" lon="5.01052">
        <ele>151</ele>
        <time>2021-01-10T10:22:19Z</time>
      </trkpt>
      <trkpt lat="44.13117" lon="5.0105">
        <ele>150</ele>
        <time>2021-01-10T10:22:20Z</time>
      </trkpt>
      <trkpt lat="44.13096" lon="5.0103">
        <ele>149</ele>
        <time>2021-01-10T10:22:30Z</time>
      </trkpt>
      <trkpt lat="44.13092" lon="5.01025">
        <ele>149</ele>
        <time>2021-01-10T10:22:33Z</time>
      </trkpt>
      <trkpt lat="44.13087" lon="5.0101">
        <ele>150</ele>
        <time>2021-01-10T10:22:42Z</time>
      </trkpt>
      <trkpt lat="44.1308" lon="5.00999">
        <ele>150</ele>
        <time>2021-01-10T10:22:47Z</time>
      </trkpt>
      <trkpt lat="44.13061" lon="5.00985">
        <ele>150</ele>
        <time>2021-01-10T10:22:58Z</time>
      </trkpt>
      <trkpt lat="44.13059" lon="5.00986">
        <ele>150</ele>
        <time>2021-01-10T10:22:59Z</time>
      </trkpt>
      <trkpt lat="44.13057" lon="5.00987">
        <ele>149</ele>
        <time>2021-01-10T10:23:00Z</time>
      </trkpt>
      <trkpt lat="44.13053" lon="5.00989">
        <ele>149</ele>
        <time>2021-01-10T10:23:01Z</time>
      </trkpt>
      <trkpt lat="44.13051" lon="5.0099">
        <ele>148</ele>
        <time>2021-01-10T10:23:02Z</time>
      </trkpt>
      <trkpt lat="44.13048" lon="5.00991">
        <ele>147</ele>
        <time>2021-01-10T10:23:03Z</time>
      </trkpt>
      <trkpt lat="44.13045" lon="5.00991">
        <ele>147</ele>
        <time>2021-01-10T10:23:04Z</time>
      </trkpt>
      <trkpt lat="44.13041" lon="5.00991">
        <ele>147</ele>
        <time>2021-01-10T10:23:06Z</time>
      </trkpt>
      <trkpt lat="44.1304" lon="5.00991">
        <ele>146</ele>
        <time>2021-01-10T10:23:07Z</time>
      </trkpt>
      <trkpt lat="44.13017" lon="5.00977">
        <ele>146</ele>
        <time>2021-01-10T10:23:17Z</time>
      </trkpt>
      <trkpt lat="44.12992" lon="5.00968">
        <ele>143</ele>
        <time>2021-01-10T10:23:26Z</time>
      </trkpt>
      <trkpt lat="44.12967" lon="5.00952">
        <ele>144</ele>
        <time>2021-01-10T10:23:37Z</time>
      </trkpt>
      <trkpt lat="44.12965" lon="5.00952">
        <ele>144</ele>
        <time>2021-01-10T10:23:38Z</time>
      </trkpt>
      <trkpt lat="44.12962" lon="5.00952">
        <ele>144</ele>
        <time>2021-01-10T10:23:39Z</time>
      </trkpt>
      <trkpt lat="44.1296" lon="5.00951">
        <ele>144</ele>
        <time>2021-01-10T10:23:40Z</time>
      </trkpt>
      <trkpt lat="44.12958" lon="5.00951">
        <ele>144</ele>
        <time>2021-01-10T10:23:41Z</time>
      </trkpt>
      <trkpt lat="44.12955" lon="5.0095">
        <ele>144</ele>
        <time>2021-01-10T10:23:42Z</time>
      </trkpt>
      <trkpt lat="44.1293" lon="5.00955">
        <ele>141</ele>
        <time>2021-01-10T10:23:51Z</time>
      </trkpt>
      <trkpt lat="44.12917" lon="5.00952">
        <ele>141</ele>
        <time>2021-01-10T10:23:58Z</time>
      </trkpt>
      <trkpt lat="44.12914" lon="5.00951">
        <ele>141</ele>
        <time>2021-01-10T10:24:00Z</time>
      </trkpt>
      <trkpt lat="44.12912" lon="5.00948">
        <ele>141</ele>
        <time>2021-01-10T10:24:01Z</time>
      </trkpt>
      <trkpt lat="44.12911" lon="5.00946">
        <ele>141</ele>
        <time>2021-01-10T10:24:02Z</time>
      </trkpt>
      <trkpt lat="44.12908" lon="5.00939">
        <ele>142</ele>
        <time>2021-01-10T10:24:05Z</time>
      </trkpt>
      <trkpt lat="44.12907" lon="5.00937">
        <ele>142</ele>
        <time>2021-01-10T10:24:06Z</time>
      </trkpt>
      <trkpt lat="44.12897" lon="5.00932">
        <ele>141</ele>
        <time>2021-01-10T10:24:13Z</time>
      </trkpt>
      <trkpt lat="44.12893" lon="5.00929">
        <ele>141</ele>
        <time>2021-01-10T10:24:17Z</time>
      </trkpt>
      <trkpt lat="44.12892" lon="5.00927">
        <ele>141</ele>
        <time>2021-01-10T10:24:18Z</time>
      </trkpt>
      <trkpt lat="44.12885" lon="5.00917">
        <ele>142</ele>
        <time>2021-01-10T10:24:24Z</time>
      </trkpt>
      <trkpt lat="44.12885" lon="5.00907">
        <ele>142</ele>
        <time>2021-01-10T10:24:28Z</time>
      </trkpt>
      <trkpt lat="44.12889" lon="5.00897">
        <ele>141</ele>
        <time>2021-01-10T10:24:40Z</time>
      </trkpt>
      <trkpt lat="44.12893" lon="5.00892">
        <ele>142</ele>
        <time>2021-01-10T10:24:52Z</time>
      </trkpt>
      <trkpt lat="44.12902" lon="5.00871">
        <ele>144</ele>
        <time>2021-01-10T10:25:01Z</time>
      </trkpt>
      <trkpt lat="44.12911" lon="5.00844">
        <ele>144</ele>
        <time>2021-01-10T10:25:10Z</time>
      </trkpt>
      <trkpt lat="44.12919" lon="5.00817">
        <ele>142</ele>
        <time>2021-01-10T10:25:20Z</time>
      </trkpt>
      <trkpt lat="44.12925" lon="5.00778">
        <ele>140</ele>
        <time>2021-01-10T10:25:31Z</time>
      </trkpt>
      <trkpt lat="44.12935" lon="5.00735">
        <ele>140</ele>
        <time>2021-01-10T10:25:42Z</time>
      </trkpt>
      <trkpt lat="44.12951" lon="5.00701">
        <ele>140</ele>
        <time>2021-01-10T10:25:53Z</time>
      </trkpt>
      <trkpt lat="44.1297" lon="5.00676">
        <ele>140</ele>
        <time>2021-01-10T10:26:04Z</time>
      </trkpt>
      <trkpt lat="44.1299" lon="5.00647">
        <ele>140</ele>
        <time>2021-01-10T10:26:15Z</time>
      </trkpt>
      <trkpt lat="44.13003" lon="5.00612">
        <ele>139</ele>
        <time>2021-01-10T10:26:25Z</time>
      </trkpt>
      <trkpt lat="44.13019" lon="5.00582">
        <ele>139</ele>
        <time>2021-01-10T10:26:34Z</time>
      </trkpt>
      <trkpt lat="44.13035" lon="5.00563">
        <ele>139</ele>
        <time>2021-01-10T10:26:42Z</time>
      </trkpt>
      <trkpt lat="44.13047" lon="5.00533">
        <ele>139</ele>
        <time>2021-01-10T10:26:52Z</time>
      </trkpt>
      <trkpt lat="44.1306" lon="5.00495">
        <ele>139</ele>
        <time>2021-01-10T10:27:03Z</time>
      </trkpt>
      <trkpt lat="44.13076" lon="5.00458">
        <ele>138</ele>
        <time>2021-01-10T10:27:15Z</time>
      </trkpt>
      <trkpt lat="44.13093" lon="5.00428">
        <ele>137</ele>
        <time>2021-01-10T10:27:26Z</time>
      </trkpt>
      <trkpt lat="44.13119" lon="5.004">
        <ele>135</ele>
        <time>2021-01-10T10:27:36Z</time>
      </trkpt>
      <trkpt lat="44.13137" lon="5.00373">
        <ele>132</ele>
        <time>2021-01-10T10:27:44Z</time>
      </trkpt>
      <trkpt lat="44.13149" lon="5.00349">
        <ele>131</ele>
        <time>2021-01-10T10:27:52Z</time>
      </trkpt>
      <trkpt lat="44.13142" lon="5.00317">
        <ele>131</ele>
        <time>2021-01-10T10:28:05Z</time>
      </trkpt>
      <trkpt lat="44.13132" lon="5.00281">
        <ele>130</ele>
        <time>2021-01-10T10:28:15Z</time>
      </trkpt>
      <trkpt lat="44.13148" lon="5.00256">
        <ele>130</ele>
        <time>2021-01-10T10:28:26Z</time>
      </trkpt>
      <trkpt lat="44.13161" lon="5.00237">
        <ele>130</ele>
        <time>2021-01-10T10:28:34Z</time>
      </trkpt>
      <trkpt lat="44.13168" lon="5.00228">
        <ele>130</ele>
        <time>2021-01-10T10:28:44Z</time>
      </trkpt>
      <trkpt lat="44.13171" lon="5.00224">
        <ele>130</ele>
        <time>2021-01-10T10:28:57Z</time>
      </trkpt>
      <trkpt lat="44.13174" lon="5.00219">
        <ele>130</ele>
        <time>2021-01-10T10:29:26Z</time>
      </trkpt>
      <trkpt lat="44.13187" lon="5.00215">
        <ele>130</ele>
        <time>2021-01-10T10:29:36Z</time>
      </trkpt>
      <trkpt lat="44.13188" lon="5.00214">
        <ele>130</ele>
        <time>2021-01-10T10:29:37Z</time>
      </trkpt>
      <trkpt lat="44.1319" lon="5.00213">
        <ele>130</ele>
        <time>2021-01-10T10:29:38Z</time>
      </trkpt>
      <trkpt lat="44.13192" lon="5.00212">
        <ele>130</ele>
        <time>2021-01-10T10:29:39Z</time>
      </trkpt>
      <trkpt lat="44.13195" lon="5.0021">
        <ele>130</ele>
        <time>2021-01-10T10:29:40Z</time>
      </trkpt>
      <trkpt lat="44.13198" lon="5.0021">
        <ele>130</ele>
        <time>2021-01-10T10:29:41Z</time>
      </trkpt>
      <trkpt lat="44.132" lon="5.00209">
        <ele>130</ele>
        <time>2021-01-10T10:29:42Z</time>
      </trkpt>
      <trkpt lat="44.13201" lon="5.00208">
        <ele>130</ele>
        <time>2021-01-10T10:29:43Z</time>
      </trkpt>
      <trkpt lat="44.1322" lon="5.002">
        <ele>130</ele>
        <time>2021-01-10T10:29:54Z</time>
      </trkpt>
      <trkpt lat="44.13246" lon="5.0019">
        <ele>133</ele>
        <time>2021-01-10T10:30:06Z</time>
      </trkpt>
      <trkpt lat="44.13266" lon="5.00183">
        <ele>136</ele>
        <time>2021-01-10T10:30:16Z</time>
      </trkpt>
      <trkpt lat="44.13287" lon="5.00173">
        <ele>138</ele>
        <time>2021-01-10T10:30:26Z</time>
      </trkpt>
      <trkpt lat="44.13318" lon="5.00158">
        <ele>140</ele>
        <time>2021-01-10T10:30:38Z</time>
      </trkpt>
      <trkpt lat="44.13346" lon="5.00142">
        <ele>141</ele>
        <time>2021-01-10T10:30:50Z</time>
      </trkpt>
      <trkpt lat="44.13368" lon="5.00123">
        <ele>142</ele>
        <time>2021-01-10T10:31:01Z</time>
      </trkpt>
      <trkpt lat="44.13383" lon="5.00107">
        <ele>141</ele>
        <time>2021-01-10T10:31:10Z</time>
      </trkpt>
      <trkpt lat="44.13405" lon="5.00083">
        <ele>142</ele>
        <time>2021-01-10T10:31:22Z</time>
      </trkpt>
      <trkpt lat="44.13427" lon="5.00059">
        <ele>143</ele>
        <time>2021-01-10T10:31:33Z</time>
      </trkpt>
      <trkpt lat="44.1344" lon="5.00054">
        <ele>142</ele>
        <time>2021-01-10T10:31:38Z</time>
      </trkpt>
      <trkpt lat="44.13471" lon="5.0005">
        <ele>140</ele>
        <time>2021-01-10T10:31:48Z</time>
      </trkpt>
      <trkpt lat="44.13499" lon="5.00027">
        <ele>140</ele>
        <time>2021-01-10T10:31:59Z</time>
      </trkpt>
      <trkpt lat="44.13528" lon="5.00005">
        <ele>140</ele>
        <time>2021-01-10T10:32:10Z</time>
      </trkpt>
      <trkpt lat="44.13553" lon="4.99987">
        <ele>138</ele>
        <time>2021-01-10T10:32:20Z</time>
      </trkpt>
      <trkpt lat="44.13576" lon="4.99971">
        <ele>137</ele>
        <time>2021-01-10T10:32:29Z</time>
      </trkpt>
      <trkpt lat="44.13598" lon="4.9995">
        <ele>136</ele>
        <time>2021-01-10T10:32:39Z</time>
      </trkpt>
      <trkpt lat="44.13618" lon="4.9994">
        <ele>135</ele>
        <time>2021-01-10T10:32:49Z</time>
      </trkpt>
      <trkpt lat="44.13619" lon="4.99938">
        <ele>135</ele>
        <time>2021-01-10T10:32:50Z</time>
      </trkpt>
      <trkpt lat="44.13619" lon="4.99936">
        <ele>135</ele>
        <time>2021-01-10T10:32:51Z</time>
      </trkpt>
      <trkpt lat="44.13618" lon="4.99933">
        <ele>135</ele>
        <time>2021-01-10T10:32:52Z</time>
      </trkpt>
      <trkpt lat="44.13617" lon="4.9993">
        <ele>134</ele>
        <time>2021-01-10T10:32:53Z</time>
      </trkpt>
      <trkpt lat="44.13615" lon="4.99927">
        <ele>134</ele>
        <time>2021-01-10T10:32:54Z</time>
      </trkpt>
      <trkpt lat="44.13614" lon="4.99925">
        <ele>134</ele>
        <time>2021-01-10T10:32:55Z</time>
      </trkpt>
      <trkpt lat="44.13601" lon="4.9989">
        <ele>135</ele>
        <time>2021-01-10T10:33:05Z</time>
      </trkpt>
      <trkpt lat="44.13587" lon="4.99856">
        <ele>138</ele>
        <time>2021-01-10T10:33:16Z</time>
      </trkpt>
      <trkpt lat="44.13579" lon="4.99824">
        <ele>142</ele>
        <time>2021-01-10T10:33:26Z</time>
      </trkpt>
      <trkpt lat="44.13595" lon="4.99789">
        <ele>141</ele>
        <time>2021-01-10T10:33:37Z</time>
      </trkpt>
      <trkpt lat="44.1361" lon="4.9976">
        <ele>139</ele>
        <time>2021-01-10T10:33:46Z</time>
      </trkpt>
      <trkpt lat="44.13625" lon="4.99729">
        <ele>136</ele>
        <time>2021-01-10T10:33:55Z</time>
      </trkpt>
      <trkpt lat="44.1363" lon="4.9969">
        <ele>133</ele>
        <time>2021-01-10T10:34:05Z</time>
      </trkpt>
      <trkpt lat="44.13628" lon="4.99646">
        <ele>132</ele>
        <time>2021-01-10T10:34:16Z</time>
      </trkpt>
      <trkpt lat="44.13624" lon="4.9963">
        <ele>131</ele>
        <time>2021-01-10T10:34:22Z</time>
      </trkpt>
      <trkpt lat="44.13614" lon="4.99596">
        <ele>128</ele>
        <time>2021-01-10T10:34:32Z</time>
      </trkpt>
      <trkpt lat="44.13601" lon="4.99567">
        <ele>126</ele>
        <time>2021-01-10T10:34:41Z</time>
      </trkpt>
      <trkpt lat="44.13581" lon="4.99562">
        <ele>124</ele>
        <time>2021-01-10T10:34:49Z</time>
      </trkpt>
      <trkpt lat="44.1356" lon="4.99568">
        <ele>124</ele>
        <time>2021-01-10T10:34:59Z</time>
      </trkpt>
      <trkpt lat="44.13541" lon="4.99568">
        <ele>125</ele>
        <time>2021-01-10T10:35:07Z</time>
      </trkpt>
      <trkpt lat="44.13514" lon="4.99556">
        <ele>123</ele>
        <time>2021-01-10T10:35:19Z</time>
      </trkpt>
      <trkpt lat="44.1348" lon="4.99546">
        <ele>121</ele>
        <time>2021-01-10T10:35:33Z</time>
      </trkpt>
      <trkpt lat="44.1345" lon="4.99532">
        <ele>119</ele>
        <time>2021-01-10T10:35:45Z</time>
      </trkpt>
      <trkpt lat="44.13426" lon="4.99511">
        <ele>117</ele>
        <time>2021-01-10T10:35:56Z</time>
      </trkpt>
      <trkpt lat="44.13409" lon="4.99483">
        <ele>116</ele>
        <time>2021-01-10T10:36:06Z</time>
      </trkpt>
      <trkpt lat="44.13406" lon="4.9948">
        <ele>116</ele>
        <time>2021-01-10T10:36:08Z</time>
      </trkpt>
      <trkpt lat="44.134" lon="4.99478">
        <ele>116</ele>
        <time>2021-01-10T10:36:11Z</time>
      </trkpt>
      <trkpt lat="44.13399" lon="4.99476">
        <ele>115</ele>
        <time>2021-01-10T10:36:12Z</time>
      </trkpt>
      <trkpt lat="44.13398" lon="4.99474">
        <ele>115</ele>
        <time>2021-01-10T10:36:13Z</time>
      </trkpt>
      <trkpt lat="44.13397" lon="4.99471">
        <ele>115</ele>
        <time>2021-01-10T10:36:14Z</time>
      </trkpt>
      <trkpt lat="44.13397" lon="4.99469">
        <ele>115</ele>
        <time>2021-01-10T10:36:15Z</time>
      </trkpt>
      <trkpt lat="44.13398" lon="4.99465">
        <ele>115</ele>
        <time>2021-01-10T10:36:16Z</time>
      </trkpt>
      <trkpt lat="44.13398" lon="4.99462">
        <ele>115</ele>
        <time>2021-01-10T10:36:17Z</time>
      </trkpt>
      <trkpt lat="44.13399" lon="4.99459">
        <ele>115</ele>
        <time>2021-01-10T10:36:18Z</time>
      </trkpt>
      <trkpt lat="44.13399" lon="4.99456">
        <ele>115</ele>
        <time>2021-01-10T10:36:19Z</time>
      </trkpt>
      <trkpt lat="44.134" lon="4.99453">
        <ele>115</ele>
        <time>2021-01-10T10:36:20Z</time>
      </trkpt>
      <trkpt lat="44.13401" lon="4.9945">
        <ele>115</ele>
        <time>2021-01-10T10:36:21Z</time>
      </trkpt>
      <trkpt lat="44.13402" lon="4.9944">
        <ele>114</ele>
        <time>2021-01-10T10:36:24Z</time>
      </trkpt>
      <trkpt lat="44.13391" lon="4.99412">
        <ele>113</ele>
        <time>2021-01-10T10:36:34Z</time>
      </trkpt>
      <trkpt lat="44.13392" lon="4.99411">
        <ele>112</ele>
        <time>2021-01-10T10:36:35Z</time>
      </trkpt>
      <trkpt lat="44.13393" lon="4.99409">
        <ele>112</ele>
        <time>2021-01-10T10:36:36Z</time>
      </trkpt>
      <trkpt lat="44.13398" lon="4.99406">
        <ele>113</ele>
        <time>2021-01-10T10:36:39Z</time>
      </trkpt>
      <trkpt lat="44.13411" lon="4.99395">
        <ele>113</ele>
        <time>2021-01-10T10:36:48Z</time>
      </trkpt>
      <trkpt lat="44.13412" lon="4.99394">
        <ele>113</ele>
        <time>2021-01-10T10:36:49Z</time>
      </trkpt>
      <trkpt lat="44.13414" lon="4.99392">
        <ele>112</ele>
        <time>2021-01-10T10:36:50Z</time>
      </trkpt>
      <trkpt lat="44.13434" lon="4.99376">
        <ele>113</ele>
        <time>2021-01-10T10:37:01Z</time>
      </trkpt>
      <trkpt lat="44.13452" lon="4.99366">
        <ele>114</ele>
        <time>2021-01-10T10:37:10Z</time>
      </trkpt>
      <trkpt lat="44.13472" lon="4.99361">
        <ele>117</ele>
        <time>2021-01-10T10:37:20Z</time>
      </trkpt>
      <trkpt lat="44.13489" lon="4.99353">
        <ele>118</ele>
        <time>2021-01-10T10:37:29Z</time>
      </trkpt>
      <trkpt lat="44.13489" lon="4.9935">
        <ele>118</ele>
        <time>2021-01-10T10:37:30Z</time>
      </trkpt>
      <trkpt lat="44.1349" lon="4.99348">
        <ele>118</ele>
        <time>2021-01-10T10:37:31Z</time>
      </trkpt>
      <trkpt lat="44.1349" lon="4.99345">
        <ele>118</ele>
        <time>2021-01-10T10:37:32Z</time>
      </trkpt>
      <trkpt lat="44.13489" lon="4.99342">
        <ele>118</ele>
        <time>2021-01-10T10:37:33Z</time>
      </trkpt>
      <trkpt lat="44.13488" lon="4.9934">
        <ele>118</ele>
        <time>2021-01-10T10:37:34Z</time>
      </trkpt>
      <trkpt lat="44.13487" lon="4.99313">
        <ele>116</ele>
        <time>2021-01-10T10:37:43Z</time>
      </trkpt>
      <trkpt lat="44.135" lon="4.99294">
        <ele>117</ele>
        <time>2021-01-10T10:37:53Z</time>
      </trkpt>
      <trkpt lat="44.13519" lon="4.9927">
        <ele>117</ele>
        <time>2021-01-10T10:38:05Z</time>
      </trkpt>
      <trkpt lat="44.13538" lon="4.99257">
        <ele>118</ele>
        <time>2021-01-10T10:38:16Z</time>
      </trkpt>
      <trkpt lat="44.13557" lon="4.99239">
        <ele>120</ele>
        <time>2021-01-10T10:38:26Z</time>
      </trkpt>
      <trkpt lat="44.13577" lon="4.99216">
        <ele>120</ele>
        <time>2021-01-10T10:38:38Z</time>
      </trkpt>
      <trkpt lat="44.13596" lon="4.99197">
        <ele>120</ele>
        <time>2021-01-10T10:38:48Z</time>
      </trkpt>
      <trkpt lat="44.13616" lon="4.99178">
        <ele>121</ele>
        <time>2021-01-10T10:38:59Z</time>
      </trkpt>
      <trkpt lat="44.13638" lon="4.99152">
        <ele>121</ele>
        <time>2021-01-10T10:39:12Z</time>
      </trkpt>
      <trkpt lat="44.13652" lon="4.99138">
        <ele>122</ele>
        <time>2021-01-10T10:39:21Z</time>
      </trkpt>
      <trkpt lat="44.13671" lon="4.99123">
        <ele>122</ele>
        <time>2021-01-10T10:39:31Z</time>
      </trkpt>
      <trkpt lat="44.13691" lon="4.99106">
        <ele>123</ele>
        <time>2021-01-10T10:39:43Z</time>
      </trkpt>
      <trkpt lat="44.13709" lon="4.99093">
        <ele>124</ele>
        <time>2021-01-10T10:39:53Z</time>
      </trkpt>
      <trkpt lat="44.13728" lon="4.99079">
        <ele>125</ele>
        <time>2021-01-10T10:40:04Z</time>
      </trkpt>
      <trkpt lat="44.13747" lon="4.99063">
        <ele>126</ele>
        <time>2021-01-10T10:40:14Z</time>
      </trkpt>
      <trkpt lat="44.13757" lon="4.99055">
        <ele>126</ele>
        <time>2021-01-10T10:40:19Z</time>
      </trkpt>
      <trkpt lat="44.13759" lon="4.99053">
        <ele>126</ele>
        <time>2021-01-10T10:40:20Z</time>
      </trkpt>
      <trkpt lat="44.13781" lon="4.99034">
        <ele>127</ele>
        <time>2021-01-10T10:40:31Z</time>
      </trkpt>
      <trkpt lat="44.13801" lon="4.99019">
        <ele>127</ele>
        <time>2021-01-10T10:40:41Z</time>
      </trkpt>
      <trkpt lat="44.13823" lon="4.98999">
        <ele>127</ele>
        <time>2021-01-10T10:40:53Z</time>
      </trkpt>
      <trkpt lat="44.13841" lon="4.98985">
        <ele>127</ele>
        <time>2021-01-10T10:41:02Z</time>
      </trkpt>
      <trkpt lat="44.13849" lon="4.98976">
        <ele>127</ele>
        <time>2021-01-10T10:41:06Z</time>
      </trkpt>
      <trkpt lat="44.13875" lon="4.98951">
        <ele>127</ele>
        <time>2021-01-10T10:41:18Z</time>
      </trkpt>
      <trkpt lat="44.13877" lon="4.98952">
        <ele>127</ele>
        <time>2021-01-10T10:41:19Z</time>
      </trkpt>
      <trkpt lat="44.1388" lon="4.98953">
        <ele>127</ele>
        <time>2021-01-10T10:41:20Z</time>
      </trkpt>
      <trkpt lat="44.13882" lon="4.98955">
        <ele>127</ele>
        <time>2021-01-10T10:41:21Z</time>
      </trkpt>
      <trkpt lat="44.13892" lon="4.98961">
        <ele>128</ele>
        <time>2021-01-10T10:41:27Z</time>
      </trkpt>
      <trkpt lat="44.13893" lon="4.98959">
        <ele>128</ele>
        <time>2021-01-10T10:41:28Z</time>
      </trkpt>
      <trkpt lat="44.13895" lon="4.98957">
        <ele>128</ele>
        <time>2021-01-10T10:41:29Z</time>
      </trkpt>
      <trkpt lat="44.13897" lon="4.98952">
        <ele>127</ele>
        <time>2021-01-10T10:41:31Z</time>
      </trkpt>
      <trkpt lat="44.13898" lon="4.98949">
        <ele>127</ele>
        <time>2021-01-10T10:41:32Z</time>
      </trkpt>
      <trkpt lat="44.13907" lon="4.98934">
        <ele>127</ele>
        <time>2021-01-10T10:41:41Z</time>
      </trkpt>
      <trkpt lat="44.13909" lon="4.98925">
        <ele>126</ele>
        <time>2021-01-10T10:41:51Z</time>
      </trkpt>
      <trkpt lat="44.1391" lon="4.9892">
        <ele>126</ele>
        <time>2021-01-10T10:41:53Z</time>
      </trkpt>
      <trkpt lat="44.1391" lon="4.98913">
        <ele>126</ele>
        <time>2021-01-10T10:41:56Z</time>
      </trkpt>
      <trkpt lat="44.139" lon="4.98891">
        <ele>125</ele>
        <time>2021-01-10T10:42:05Z</time>
      </trkpt>
      <trkpt lat="44.13882" lon="4.98862">
        <ele>124</ele>
        <time>2021-01-10T10:42:16Z</time>
      </trkpt>
      <trkpt lat="44.13866" lon="4.98836">
        <ele>124</ele>
        <time>2021-01-10T10:42:27Z</time>
      </trkpt>
      <trkpt lat="44.13851" lon="4.98811">
        <ele>123</ele>
        <time>2021-01-10T10:42:37Z</time>
      </trkpt>
      <trkpt lat="44.13834" lon="4.98779">
        <ele>123</ele>
        <time>2021-01-10T10:42:49Z</time>
      </trkpt>
      <trkpt lat="44.13831" lon="4.9875">
        <ele>124</ele>
        <time>2021-01-10T10:42:59Z</time>
      </trkpt>
      <trkpt lat="44.13832" lon="4.98706">
        <ele>123</ele>
        <time>2021-01-10T10:43:12Z</time>
      </trkpt>
      <trkpt lat="44.13832" lon="4.98692">
        <ele>123</ele>
        <time>2021-01-10T10:47:21Z</time>
      </trkpt>
    </trkseg>
  </trk>
</gpx>